GFSSGP_850_spd_000.txt.gz
Wind_Speed
12 12 4 1 3 3 7 6 4 10 3 2 6 12 13 14 3 6 18 20 21 22 23 25 25 26 26 25 25 25 24 26 27 28 24 20 20 21 20 18 15 12 10 10 11 10 10 10 10
16 11 2 2 4 2 4 15 11 11 12 15 17 11 15 7 16 20 25 21 23 24 24 24 24 24 24 24 25 25 26 28 27 26 24 20 18 18 17 14 12 11 9 9 8 8 8 9 10
12 5 3 3 1 4 10 13 12 20 20 11 9 17 8 11 23 26 25 24 24 25 25 24 23 23 24 25 26 26 25 23 21 20 18 15 15 15 14 11 11 10 8 7 6 5 5 7 9
8 6 2 2 6 2 15 16 24 18 10 16 17 12 12 10 19 25 24 26 25 25 24 24 23 23 25 26 26 25 23 22 20 19 18 16 15 14 12 10 9 7 6 5 5 4 5 7 8
6 2 3 4 2 9 17 31 29 17 12 21 15 8 10 14 27 27 26 25 26 25 24 23 23 24 25 24 23 21 20 20 20 19 18 15 13 11 9 7 5 3 4 5 5 5 6 6 6
7 3 5 3 7 5 16 30 29 21 26 26 21 16 7 29 28 26 24 24 23 24 23 22 21 23 23 23 21 19 18 17 17 15 13 12 10 9 6 4 2 2 4 4 5 5 5 4 4
8 6 7 2 4 13 17 32 22 25 22 12 19 8 21 28 25 25 22 22 23 22 21 21 21 21 21 20 18 17 16 15 13 11 10 9 8 7 4 1 1 1 1 2 4 4 3 1 1
11 10 3 2 2 4 18 12 30 32 11 29 30 9 17 32 27 23 21 23 21 22 21 21 20 20 20 19 17 15 14 12 10 9 9 8 6 3 2 1 1 2 3 2 2 2 3 1 0
12 5 3 5 7 3 14 12 22 15 30 19 7 30 35 35 31 27 24 21 18 19 18 17 18 19 18 18 16 14 12 11 9 9 8 6 5 4 3 3 3 1 2 2 1 2 2 2 1
8 5 11 7 5 7 14 25 21 13 22 19 28 33 34 36 33 31 27 24 21 20 18 17 16 16 16 15 14 12 11 10 9 9 7 5 3 3 0 3 7 2 1 2 1 5 5 6 3
10 11 9 13 11 21 15 13 15 26 14 39 34 37 40 38 37 30 27 22 19 19 17 16 15 15 14 15 13 12 11 9 8 8 6 6 3 3 5 5 3 3 4 3 5 8 10 8 8
5 16 26 13 24 22 11 17 8 16 18 33 40 38 42 41 37 30 29 23 19 20 17 15 15 14 14 12 12 11 10 10 9 8 5 5 5 6 5 5 7 7 6 5 6 7 8 11 10
16 13 23 27 24 20 17 11 13 21 35 35 36 37 37 37 30 28 24 21 21 19 20 16 14 15 13 14 12 10 12 11 8 6 7 8 8 7 9 8 9 9 11 11 12 9 12 15 15
20 33 30 31 27 21 21 18 12 27 34 34 34 31 35 32 31 28 26 24 23 18 19 15 13 15 12 12 11 11 10 12 10 10 8 11 9 11 14 12 11 8 9 12 15 15 16 16 17
37 20 13 17 19 8 28 7 10 32 34 32 31 29 29 26 26 29 25 23 22 20 19 20 17 15 13 11 12 12 13 13 12 11 12 12 12 14 12 12 9 11 10 13 14 14 16 16 15
8 14 8 7 17 16 13 6 13 35 32 28 30 31 30 29 28 26 26 23 20 21 21 19 16 14 15 15 17 17 16 15 15 15 14 12 15 14 13 12 12 13 13 13 12 13 14 15 16
5 8 12 6 6 9 6 8 18 32 31 29 29 30 33 33 32 29 25 23 19 19 19 18 16 14 14 12 12 13 17 17 18 18 14 14 13 14 14 14 15 14 12 12 11 12 14 14 14
5 7 17 14 11 3 11 8 20 29 29 29 30 30 31 36 37 31 27 24 20 19 18 18 16 13 11 10 10 9 11 11 13 14 12 13 11 10 13 15 13 10 9 9 10 13 14 15 18
5 7 12 10 11 8 16 12 19 26 25 24 27 30 31 35 35 30 27 24 22 21 19 18 19 15 14 11 9 8 7 7 9 7 8 11 12 10 12 12 8 8 9 9 11 14 15 15 17
4 7 8 3 12 7 13 17 19 23 28 31 30 30 34 31 34 32 29 27 27 23 20 20 19 16 12 9 9 8 6 6 7 6 8 8 7 8 8 12 14 10 9 10 11 11 14 16 14
6 8 9 10 6 6 11 1 8 15 22 25 27 38 40 37 37 36 32 28 28 26 22 21 17 17 13 11 9 9 8 8 8 8 9 7 7 9 12 7 6 6 6 7 11 12 12 13 11
8 10 14 8 16 7 8 6 6 17 15 13 24 31 38 40 38 37 34 29 31 28 23 21 19 17 16 13 12 11 10 11 10 7 8 8 7 10 3 4 1 1 7 11 9 9 8 8 9
13 8 12 11 16 7 3 5 10 8 9 11 21 37 42 44 44 43 39 34 31 31 27 23 23 20 18 16 13 11 13 12 13 10 10 10 8 3 4 5 3 7 13 10 7 7 5 6 6
14 5 6 5 5 2 11 7 4 10 25 21 18 32 37 43 46 45 40 37 33 33 29 27 27 24 21 17 12 14 13 14 14 14 13 11 13 8 6 7 7 12 12 6 5 4 6 5 5
4 6 2 2 1 6 8 8 11 21 24 18 23 35 41 45 46 48 44 42 38 38 34 31 30 29 25 19 17 15 13 11 13 16 16 15 11 9 7 8 11 9 4 2 3 5 5 4 6
8 10 6 7 3 5 8 7 11 17 36 34 34 43 44 42 48 52 49 47 44 41 38 35 35 33 29 25 24 19 10 8 10 12 10 8 8 11 11 10 9 6 4 1 3 4 6 6 8
9 4 10 7 1 3 4 7 6 6 16 21 28 32 38 42 46 52 52 48 47 44 43 42 39 38 33 30 28 22 12 9 9 8 8 9 12 11 9 9 10 11 8 5 7 7 7 10 11
15 8 3 3 7 4 5 4 6 4 12 12 14 26 37 40 44 49 53 51 50 47 45 44 43 42 37 33 30 24 16 11 9 10 10 11 11 10 10 10 8 6 8 9 9 10 11 13 12
2 3 4 6 5 6 3 6 7 15 17 18 18 30 32 42 47 50 54 53 53 50 49 47 47 44 40 37 33 26 20 16 10 9 10 10 9 8 8 9 9 9 8 8 11 13 13 15 15
8 9 7 6 5 1 5 7 5 13 13 22 25 32 36 44 50 52 53 54 56 55 55 51 50 46 42 39 34 29 22 16 11 11 11 9 7 8 9 10 9 8 8 9 9 10 11 13 15

GFSSGP_850_spd_003.txt.gz
Wind_Speed
12 10 4 1 2 5 2 2 2 4 4 1 5 8 10 14 3 4 16 19 19 19 20 23 24 23 22 23 23 24 23 26 29 24 21 19 19 18 17 14 11 10 8 8 8 8 8 8 8
11 7 5 3 4 3 2 3 3 3 10 21 13 10 12 5 10 19 20 20 20 22 24 24 23 24 24 24 23 23 24 27 27 20 18 19 20 19 16 13 11 8 7 6 5 4 5 6 7
12 8 0 2 2 3 5 3 6 12 17 6 7 13 5 4 21 26 24 23 22 23 23 23 22 22 23 23 23 23 24 25 23 21 19 18 19 17 13 11 10 8 6 4 3 3 4 6 7
9 1 2 2 2 2 3 6 15 13 7 9 20 10 9 7 21 21 25 24 23 24 22 22 22 22 24 24 24 24 23 22 21 18 16 16 16 14 11 10 8 5 3 2 2 3 4 5 6
10 1 3 5 5 3 5 16 19 7 6 14 10 7 9 13 20 24 26 24 23 23 22 21 22 23 24 25 25 23 21 20 19 17 16 15 14 11 9 7 4 1 1 2 2 3 4 4 4
2 3 5 2 4 5 9 18 18 9 10 15 16 13 6 16 24 26 25 25 22 23 22 22 23 24 24 24 22 21 19 19 18 17 14 12 10 8 6 3 0 0 2 1 3 4 4 4 3
4 4 6 5 4 5 5 18 6 16 15 10 15 5 15 23 26 26 25 24 23 22 22 23 23 24 23 21 19 18 16 16 15 13 10 9 8 6 3 1 1 1 2 4 4 4 4 3 2
5 2 4 2 5 6 8 4 13 17 9 20 22 7 13 30 26 23 22 23 22 21 20 21 23 22 21 19 17 16 15 14 13 11 10 9 6 4 3 1 3 2 3 4 4 4 4 3 3
1 4 2 6 5 5 18 6 15 4 19 11 7 21 30 33 27 25 23 24 22 21 20 21 21 21 20 18 17 15 14 12 11 10 9 6 4 3 2 4 3 5 3 3 4 4 5 4 3
5 5 8 7 8 10 20 20 20 9 17 5 15 26 33 32 31 28 28 26 25 23 20 19 20 20 20 18 17 14 12 11 9 9 7 3 2 2 3 3 6 8 2 3 3 4 6 6 4
7 8 9 10 15 34 22 17 9 25 7 17 37 40 38 36 32 29 28 25 26 24 23 21 18 18 18 17 15 13 12 10 10 9 8 4 2 2 3 4 5 5 5 5 5 5 6 7 7
5 19 11 12 18 22 21 21 10 13 7 29 42 40 41 39 35 31 29 24 26 25 22 21 19 18 17 14 13 12 12 11 11 11 8 5 4 3 2 3 5 6 8 8 8 9 10 11 11
7 4 21 24 25 26 24 14 10 10 20 31 36 38 38 36 33 28 25 22 22 23 22 21 18 18 17 16 13 13 12 12 10 9 10 9 7 7 4 5 8 8 9 11 10 10 11 13 14
6 10 17 22 19 18 16 11 12 16 28 32 37 37 37 36 34 31 30 27 23 21 23 19 19 17 18 18 15 11 13 14 13 12 11 10 9 9 8 9 10 10 9 10 12 13 13 14 15
25 7 8 3 6 7 25 4 7 29 31 30 33 33 37 35 35 32 30 28 24 21 23 20 17 19 17 15 15 13 13 14 15 13 14 12 11 10 10 10 9 9 10 11 12 13 14 14 14
7 4 10 4 6 13 6 4 12 29 33 29 29 29 35 36 34 31 27 24 25 22 22 20 18 16 18 16 13 13 12 14 15 15 15 14 14 14 14 12 10 11 13 13 12 13 13 12 13
6 14 4 5 11 4 2 5 18 30 29 27 27 29 32 34 33 33 29 23 22 22 22 23 23 20 18 17 16 16 17 19 18 18 16 16 14 14 17 15 12 14 14 13 12 11 12 11 12
13 6 8 13 15 7 6 6 19 30 28 29 30 30 32 34 36 32 30 26 23 21 20 22 22 18 15 14 16 18 18 21 22 21 17 17 17 15 14 13 15 15 11 9 10 11 13 13 12
11 4 15 12 7 5 7 10 21 29 26 25 28 29 30 35 37 34 31 27 25 22 22 22 22 19 18 19 19 19 16 14 16 15 16 17 18 16 13 12 10 9 12 10 10 11 12 11 13
5 5 7 3 7 6 4 6 18 24 29 34 33 32 35 36 38 39 35 31 30 25 24 22 21 20 19 19 16 14 12 13 12 13 13 13 11 10 9 9 13 14 11 10 11 10 12 11 10
5 6 5 7 9 6 9 3 9 13 17 23 28 34 31 39 40 41 41 35 31 29 26 25 22 21 19 15 14 15 14 12 12 12 12 9 8 8 10 12 9 5 2 4 9 11 11 10 8
4 9 8 9 16 7 7 5 9 14 15 13 24 28 35 40 39 40 42 38 34 29 26 24 24 23 21 18 18 14 11 11 11 12 11 11 10 8 8 6 3 5 4 9 9 8 8 9 8
9 7 8 9 15 6 4 4 6 12 11 20 26 33 35 41 43 43 43 36 32 29 29 25 26 24 22 21 19 15 13 12 12 12 11 12 10 9 8 7 5 7 8 10 6 5 5 6 6
3 4 7 5 4 5 12 7 5 12 27 27 23 31 37 43 47 44 42 37 33 31 31 28 28 26 24 23 20 17 14 11 12 14 14 14 9 8 9 9 7 7 11 8 5 3 4 4 3
5 7 3 3 1 5 8 4 9 19 25 25 27 35 40 41 46 49 46 44 38 35 35 34 33 32 29 26 22 18 15 12 13 15 14 13 10 11 10 9 9 11 6 5 1 1 3 3 3
7 10 6 7 5 6 5 7 10 15 30 35 29 39 38 42 49 52 50 48 45 40 39 38 38 36 35 30 26 21 16 14 13 14 16 13 11 10 8 9 10 7 7 7 5 5 5 6 7
5 5 9 6 1 3 4 6 7 7 11 21 29 29 36 42 46 50 51 50 48 44 43 42 42 40 38 35 30 26 21 18 17 13 13 13 12 11 10 10 9 9 11 10 10 10 9 10 12
13 7 2 2 6 5 4 4 6 8 8 11 13 26 37 40 42 44 48 51 51 49 44 43 44 43 42 38 35 30 26 22 16 16 15 13 11 13 13 11 10 9 9 11 13 12 12 13 14
2 2 4 5 4 7 4 6 8 8 9 17 20 38 33 39 43 47 50 50 54 54 50 46 47 46 44 42 39 34 31 27 18 16 14 12 11 13 13 12 11 10 9 10 11 13 13 15 16
7 11 10 8 5 1 4 7 5 9 9 16 20 27 37 41 42 46 49 51 54 57 55 52 51 49 48 44 41 38 33 29 21 18 15 13 13 12 11 10 10 10 9 9 10 11 9 11 12

GFSSGP_850_spd_006.txt.gz
Wind_Speed
13 14 3 5 3 4 2 4 3 3 2 2 7 7 9 9 2 4 18 16 15 18 20 23 23 24 22 22 23 20 20 21 23 23 23 21 18 15 13 10 9 9 8 7 6 6 6 7 8
12 7 1 1 4 4 4 3 6 3 8 18 14 10 6 5 7 19 18 18 18 19 22 23 20 20 20 21 21 22 23 26 22 20 19 16 15 14 13 9 8 7 6 5 4 4 5 7 8
11 4 1 3 3 1 2 3 8 15 12 4 5 10 5 4 18 24 21 21 20 21 22 21 21 21 22 21 21 23 26 24 19 18 17 17 16 14 11 8 6 5 4 3 4 3 4 6 7
6 1 3 3 4 1 2 7 17 11 7 5 14 7 8 4 20 21 23 23 23 23 22 22 21 21 22 22 21 22 24 20 17 17 16 16 13 10 7 7 5 3 2 2 2 3 5 6 6
6 1 3 3 3 2 4 11 15 5 6 9 5 5 10 13 17 24 24 22 22 22 21 21 20 21 20 20 21 22 22 20 18 14 14 13 11 7 6 5 2 1 1 1 3 4 5 5 6
2 1 5 2 2 3 4 12 8 5 11 12 14 12 6 9 22 24 23 22 21 21 20 20 19 20 20 21 21 20 18 17 15 13 12 11 9 7 5 2 1 1 0 3 5 6 7 6 5
3 3 3 3 4 3 3 10 7 3 10 9 20 5 11 19 22 24 23 21 20 19 19 20 21 21 21 20 18 17 16 15 14 13 11 9 8 5 3 1 2 2 3 5 6 7 7 6 4
1 3 3 2 5 4 7 8 7 9 1 19 20 8 11 27 27 25 23 21 20 19 19 20 22 22 21 19 17 16 14 14 14 11 8 7 6 4 3 2 3 3 4 4 6 6 6 6 5
6 2 3 7 9 6 14 4 11 6 15 5 8 17 25 33 30 27 26 23 22 21 20 21 21 20 20 17 16 15 15 13 13 11 9 6 4 4 2 5 5 4 5 5 4 5 5 5 5
4 2 7 7 7 10 18 14 16 6 16 4 9 17 33 34 32 30 29 27 25 23 21 21 21 21 19 17 15 14 13 12 11 11 9 5 5 3 3 3 4 7 3 4 4 5 6 5 5
7 7 6 7 17 27 20 15 13 14 6 11 23 33 38 35 31 29 28 27 26 23 22 21 20 19 19 18 17 15 13 12 11 10 8 5 4 1 3 3 4 4 4 4 4 5 4 6 6
3 13 11 10 16 23 18 19 8 23 8 16 21 38 39 37 33 30 28 27 26 24 21 19 18 19 19 16 15 13 13 13 11 10 9 7 5 3 2 3 3 5 7 7 7 8 8 8 10
6 2 14 17 24 25 25 16 6 18 6 14 31 37 37 35 31 28 26 23 23 24 22 20 18 18 17 17 15 14 13 13 11 12 11 10 7 7 5 5 6 8 8 10 10 10 11 12 13
4 4 15 16 16 15 13 8 18 13 17 27 36 37 35 35 32 28 28 25 24 22 22 20 18 17 17 17 14 13 13 12 13 12 11 11 10 10 8 9 9 9 9 10 11 12 13 13 14
9 7 10 5 8 5 21 2 6 22 26 31 32 35 34 32 31 31 28 26 22 20 20 20 20 16 17 17 14 14 11 14 15 16 13 13 11 10 11 9 8 9 10 12 13 14 14 15 13
3 5 6 4 8 14 8 6 3 29 30 27 26 28 33 33 30 28 27 25 23 22 23 20 18 19 18 17 16 15 14 14 14 13 14 13 13 13 12 11 10 12 12 13 14 13 13 13 14
4 7 3 3 7 7 3 3 10 26 27 25 28 28 30 32 32 31 28 28 25 23 21 22 20 19 18 16 17 17 16 15 14 15 16 15 14 13 13 13 14 15 14 15 12 12 12 12 13
7 7 3 7 9 9 5 3 12 23 23 26 28 28 32 35 35 32 30 27 24 23 24 21 23 21 17 16 17 17 17 16 18 19 18 17 16 15 15 13 10 13 12 10 11 12 12 12 11
7 8 17 1 3 3 5 5 15 23 21 22 25 28 32 37 34 32 30 30 26 24 26 24 24 20 20 20 21 20 19 18 18 20 19 17 17 17 16 16 13 10 10 13 13 12 13 10 13
9 7 10 2 4 4 2 3 10 20 24 28 27 28 30 35 33 34 34 34 32 26 25 24 22 21 21 22 20 19 17 18 16 15 16 17 15 14 13 11 10 14 16 15 11 10 10 11 9
6 9 6 14 6 3 6 2 8 12 17 21 25 28 30 36 37 37 35 35 34 30 26 24 23 22 23 21 21 20 19 18 16 16 15 13 10 9 9 10 13 12 6 3 7 10 10 9 8
7 8 7 9 10 6 5 5 8 12 17 15 28 29 37 38 38 38 37 38 37 32 28 25 23 23 24 22 22 22 18 15 12 11 11 11 11 11 10 11 6 6 3 4 9 7 8 9 8
8 8 11 8 8 5 1 2 6 14 11 22 28 32 37 42 41 40 40 37 35 33 30 27 25 25 26 25 23 21 19 16 14 13 13 14 14 12 9 7 5 6 6 8 9 7 6 6 6
10 7 6 4 4 1 8 9 5 7 24 25 25 33 38 39 43 40 38 37 37 34 31 29 28 28 28 27 25 23 20 17 15 12 12 12 13 11 9 8 9 7 6 9 5 4 4 4 4
6 7 2 2 2 6 3 4 12 10 16 24 23 38 39 44 44 43 42 41 40 39 34 33 32 33 31 30 28 25 21 18 15 13 12 12 12 11 9 10 9 7 8 6 4 4 4 2 2
6 9 6 6 5 5 4 8 10 21 18 20 20 34 32 38 43 47 46 44 41 39 37 37 38 37 36 33 31 27 23 19 15 14 15 13 13 10 9 8 9 10 9 9 9 8 8 8 6
4 4 6 7 2 2 5 8 9 6 7 12 25 28 37 42 48 48 48 47 45 42 42 42 41 40 39 37 33 30 26 22 17 15 16 15 13 12 10 11 11 11 10 12 13 12 10 10 11
9 9 4 3 5 5 4 4 6 5 11 9 8 26 36 42 40 46 48 50 49 45 45 44 44 43 42 40 39 35 32 26 20 18 17 15 13 13 14 13 12 13 12 11 12 14 12 12 13
3 3 5 6 5 7 4 6 8 10 11 11 14 32 37 42 42 45 49 50 51 50 50 48 46 46 46 45 43 41 36 31 26 22 20 18 16 15 15 14 14 14 12 11 11 10 10 13 13
11 11 9 7 6 2 4 7 5 12 6 12 19 28 30 37 42 45 45 47 50 52 53 54 50 49 49 48 47 44 40 35 32 28 23 19 18 17 16 15 15 15 14 11 10 9 8 9 10

GFSSGP_850_spd_009.txt.gz
Wind_Speed
6 2 6 2 1 4 6 5 5 7 5 3 5 5 7 6 3 9 18 19 20 22 22 24 25 23 22 23 21 22 23 23 22 23 22 19 17 13 11 9 8 7 7 7 7 7 8 9 9
13 5 5 3 3 5 4 4 10 4 9 14 11 8 5 5 6 18 19 21 19 22 23 22 22 22 21 20 20 21 21 22 21 21 19 16 13 10 7 7 6 6 5 5 4 5 7 9 9
8 2 2 2 2 5 4 5 9 15 9 4 5 8 4 5 14 17 19 20 20 22 22 20 19 18 18 19 20 21 23 22 20 19 16 13 11 10 6 5 5 5 3 3 3 5 7 8 9
5 2 2 2 7 5 4 10 17 12 7 5 12 9 7 7 11 17 21 20 20 22 21 18 17 17 18 19 19 22 22 19 17 16 15 14 12 9 5 4 4 2 3 2 4 6 7 8 8
2 0 2 3 6 5 10 14 11 4 6 8 4 6 9 7 13 22 22 22 22 22 20 18 18 18 18 18 20 23 19 16 16 15 14 12 9 5 4 3 2 4 3 4 6 8 9 8 7
2 1 1 4 4 6 7 14 9 4 6 10 15 14 8 6 19 22 22 22 21 20 19 18 18 17 18 19 21 21 17 15 13 11 11 9 6 4 3 1 3 3 3 6 8 8 8 7 7
2 2 3 5 6 5 6 13 7 7 7 6 18 9 8 15 22 23 22 20 19 19 19 19 18 18 18 18 18 17 15 13 11 10 9 8 6 3 2 2 4 2 4 6 6 7 7 6 5
2 1 4 4 9 6 11 11 8 9 5 15 13 7 11 21 23 23 21 18 17 17 17 18 18 18 18 18 16 15 14 14 12 10 8 6 5 4 3 3 4 4 4 5 6 6 6 6 5
2 2 5 6 9 8 16 10 7 7 13 8 10 8 14 27 26 24 21 17 17 18 17 18 19 19 18 17 15 13 14 13 12 9 6 6 4 4 4 4 5 5 4 4 6 4 6 6 5
5 3 5 8 10 11 21 16 15 7 12 8 6 9 23 28 26 25 23 21 19 19 20 20 20 21 19 17 16 15 13 12 12 9 8 7 5 5 4 4 4 4 2 4 5 5 5 6 5
5 9 3 5 9 19 20 16 13 9 12 15 17 21 30 29 27 25 23 22 22 21 20 21 20 20 19 18 16 14 13 13 11 10 10 8 5 3 2 2 2 3 3 3 4 5 6 7 7
8 9 10 5 13 20 21 19 13 16 6 15 17 27 30 29 27 25 24 24 23 23 21 21 22 21 20 17 16 14 13 13 12 11 10 10 6 3 3 3 2 3 4 5 6 8 8 9 11
9 8 10 9 19 18 20 20 13 15 6 10 18 28 30 28 26 24 22 22 24 23 22 21 21 22 20 18 17 16 14 14 13 13 12 11 8 6 6 6 5 7 8 8 8 9 10 11 12
5 5 4 11 15 16 17 11 12 11 9 15 23 30 28 27 25 22 22 22 25 24 23 20 19 18 18 19 17 16 15 14 15 13 12 11 11 10 9 9 8 8 8 8 10 11 12 12 12
7 6 10 11 19 8 19 8 13 11 14 18 22 28 26 26 24 24 24 24 23 23 22 21 19 18 18 19 17 15 14 14 14 14 13 12 11 11 11 10 9 8 8 10 12 13 14 13 12
3 5 6 8 15 11 17 13 13 17 20 21 24 26 25 25 25 24 23 23 22 22 23 22 21 19 18 18 17 15 14 13 15 15 15 15 13 13 11 10 9 9 11 12 14 13 13 13 13
4 8 9 9 13 9 13 6 13 20 22 22 25 26 25 24 25 25 25 25 24 21 20 22 21 20 19 17 17 17 16 17 15 15 15 14 13 13 13 10 9 11 13 13 14 11 10 12 13
12 9 8 10 12 10 13 6 9 18 22 23 24 25 26 27 28 25 26 26 25 22 21 21 24 20 18 18 17 17 17 17 17 17 17 16 17 14 13 12 11 10 11 12 10 11 12 11 11
15 15 15 9 11 12 13 11 7 16 20 22 23 25 27 29 26 25 26 27 27 26 24 25 24 24 21 21 19 20 19 18 17 16 15 17 16 16 14 13 12 12 10 10 12 12 11 7 9
15 19 16 7 10 12 9 14 10 17 25 25 25 26 27 25 25 27 27 28 30 29 26 26 26 22 24 24 22 20 17 16 16 15 16 16 16 15 15 14 13 10 11 12 9 6 6 7 7
14 19 16 14 9 3 7 15 10 13 22 23 25 26 26 27 28 28 29 29 30 30 29 27 25 22 23 24 23 21 19 18 17 18 18 16 14 13 12 11 11 13 9 4 3 7 7 4 6
18 14 15 16 12 13 11 14 12 17 18 22 28 30 29 28 27 26 28 32 32 31 29 29 25 23 24 24 25 24 22 17 14 14 12 12 12 12 12 11 12 9 6 4 5 6 6 5 4
11 12 17 15 16 7 8 6 11 9 17 24 30 33 34 32 31 31 30 32 33 31 31 29 27 26 27 26 26 24 22 19 17 13 12 12 13 13 13 11 9 7 8 6 5 5 4 4 5
10 11 6 5 8 9 14 13 9 9 16 25 27 33 36 34 32 31 30 31 32 31 30 31 30 30 29 28 27 27 24 20 18 15 13 14 15 16 14 11 9 9 9 7 6 5 3 3 3
14 13 6 9 7 9 5 11 17 11 17 22 21 36 37 35 33 32 32 35 36 37 34 33 33 33 32 31 30 29 26 21 18 16 15 15 15 14 12 10 10 10 10 8 7 5 3 1 2
19 21 12 16 10 12 5 11 7 16 19 19 21 24 31 36 35 35 37 39 39 38 36 35 35 35 35 34 33 31 28 25 22 20 17 17 16 13 12 11 11 12 10 8 7 6 7 7 6
9 13 15 14 2 6 6 5 10 14 13 12 21 21 30 36 40 41 41 42 41 39 37 39 38 38 38 38 35 34 32 30 27 22 18 17 17 16 14 12 12 12 11 10 11 11 11 11 10
12 13 11 7 18 17 9 5 7 6 11 12 12 25 32 35 38 40 43 46 43 40 38 38 39 40 41 41 39 37 36 32 28 24 21 19 19 18 16 14 13 13 12 12 13 14 14 13 12
9 8 2 6 7 14 15 13 8 13 13 12 15 26 28 32 39 42 42 48 45 43 43 43 40 40 41 43 43 42 40 35 31 29 25 21 21 19 18 16 15 15 13 13 13 13 12 13 12
19 19 18 12 12 5 9 13 4 14 14 13 16 16 21 29 38 35 35 39 44 47 45 47 44 43 42 45 46 46 45 40 37 36 31 23 21 24 21 18 17 17 16 14 14 12 13 12 11

GFSSGP_850_spd_012.txt.gz
Wind_Speed
8 5 4 5 6 4 11 6 10 8 7 4 8 6 7 11 9 11 19 16 18 19 24 25 21 22 22 23 22 23 23 22 22 21 19 17 15 13 11 10 9 9 8 7 8 9 10 10 10
9 7 2 9 3 7 8 6 8 9 13 13 10 8 6 8 12 22 21 19 18 19 19 18 19 19 20 20 20 21 20 20 20 20 17 15 12 9 8 8 7 7 5 6 7 7 8 9 10
9 6 8 4 4 8 11 7 10 13 12 5 5 8 5 11 20 17 20 19 18 19 18 18 19 17 17 18 19 19 19 19 19 18 15 12 8 7 7 6 5 5 5 5 6 8 9 9 9
5 4 5 3 10 7 10 10 13 12 8 3 8 11 13 14 12 16 19 18 18 18 16 18 16 15 16 17 17 19 19 18 18 15 12 11 9 7 5 4 3 5 4 5 7 9 9 8 8
3 4 4 8 11 9 9 12 11 7 7 8 8 11 15 9 14 20 19 17 18 17 14 15 16 16 17 19 21 20 18 17 16 14 13 12 9 6 4 2 4 5 4 6 9 9 8 7 7
9 5 4 10 11 8 8 11 8 5 8 7 14 20 12 14 20 18 18 18 18 17 16 16 18 17 18 20 22 19 16 16 15 13 11 8 5 4 2 2 5 5 5 7 8 7 8 6 6
9 7 4 8 10 9 9 10 8 7 9 8 20 14 15 19 19 20 20 19 18 17 17 16 15 17 18 19 19 18 14 13 11 10 8 7 4 2 1 3 5 4 5 5 6 6 6 7 5
6 5 3 2 6 12 10 11 7 8 7 14 12 7 18 23 22 21 19 18 18 17 15 17 15 14 14 16 18 17 14 11 10 9 8 5 3 2 2 3 4 4 4 5 5 5 6 6 5
4 6 4 7 3 11 16 11 9 7 12 8 11 9 22 25 23 22 21 19 18 17 16 16 16 16 16 14 15 14 13 12 10 8 5 4 2 4 4 6 4 5 4 3 4 4 6 7 9
10 7 5 3 1 11 18 13 15 11 12 11 12 10 25 27 25 24 23 21 19 17 17 17 16 15 15 13 13 11 10 9 8 7 7 4 5 4 4 5 3 4 2 3 4 5 6 9 4
9 11 6 3 2 9 20 13 13 11 12 14 18 17 27 27 25 24 21 20 20 18 18 18 18 17 15 13 12 10 10 10 10 10 8 6 5 4 3 4 2 1 4 2 4 4 4 4 3
10 10 10 8 5 12 18 17 13 12 4 14 16 20 29 28 26 24 22 20 20 19 18 18 17 17 16 13 12 12 11 10 9 8 10 9 5 5 6 4 4 2 4 5 5 5 6 6 8
12 11 9 10 8 13 16 16 10 13 8 13 17 22 28 27 25 23 21 20 19 19 18 18 18 17 17 16 13 13 12 11 10 10 10 9 9 9 7 7 7 6 6 7 6 6 7 7 7
1 7 9 6 11 13 14 14 13 14 12 14 20 23 27 27 26 23 22 21 20 19 19 18 19 19 18 17 16 14 12 11 12 11 11 13 10 11 9 8 7 7 6 6 6 6 7 7 8
8 7 5 10 15 10 13 12 14 14 16 14 20 22 26 27 25 25 24 23 22 21 20 20 19 18 18 18 16 15 12 12 12 11 12 13 11 12 10 10 9 8 8 9 8 8 7 6 9
14 12 10 11 15 9 17 13 15 16 19 16 19 22 26 27 26 25 23 23 22 21 21 20 19 19 19 17 16 15 14 13 14 13 13 13 13 11 11 10 10 10 9 11 9 8 8 9 9
14 14 13 11 15 7 15 4 16 17 19 17 19 23 26 25 25 25 24 23 22 22 21 22 21 20 20 18 17 16 15 16 14 11 13 14 13 11 11 11 10 10 11 8 8 7 7 8 9
18 18 14 13 15 12 16 6 5 16 19 19 21 22 25 26 28 26 25 23 22 21 20 20 20 20 20 19 18 17 14 14 13 14 13 11 12 11 12 10 10 10 8 6 6 6 8 8 7
17 16 14 15 14 16 15 13 11 12 17 19 21 23 25 26 26 26 25 25 24 22 21 21 21 21 20 17 16 15 15 14 14 15 15 13 13 13 13 9 9 8 6 6 6 7 8 3 6
20 18 17 13 9 15 13 15 13 14 19 22 24 25 26 25 25 27 26 26 26 25 23 22 23 23 22 18 18 16 13 13 12 13 12 12 11 11 9 10 8 10 7 7 6 4 3 4 4
23 21 18 15 11 15 11 15 17 15 19 21 24 26 28 28 28 29 30 29 28 27 25 24 24 24 22 22 19 16 15 13 10 11 10 10 10 10 10 10 8 9 6 6 3 3 4 2 3
24 23 19 17 14 13 16 13 14 17 17 20 26 29 30 31 30 29 30 31 30 29 26 25 25 25 24 22 21 19 14 12 10 10 10 10 10 10 9 9 8 9 5 7 3 3 3 2 3
24 21 19 19 17 19 15 11 13 4 14 20 27 32 33 32 33 32 31 31 31 29 27 26 28 27 25 24 23 20 18 14 12 10 10 9 10 11 10 11 10 9 6 7 6 4 3 3 4
21 19 16 17 16 18 22 15 15 12 15 17 20 30 33 32 32 32 31 30 31 30 29 28 29 30 29 28 26 25 19 17 14 14 11 10 10 10 12 11 11 10 8 7 5 6 5 4 5
22 18 12 15 15 15 18 20 16 12 10 15 12 24 32 33 32 32 33 33 32 33 32 30 30 33 32 31 29 27 23 21 19 16 14 13 12 12 13 14 12 10 9 9 7 7 6 4 4
27 26 15 24 16 14 21 16 18 19 21 27 14 15 26 34 36 36 35 35 34 34 34 32 32 36 35 34 32 31 28 23 20 18 16 15 13 13 14 13 13 12 11 9 9 7 6 7 5
26 26 25 24 20 17 17 14 23 16 16 17 16 17 23 32 38 36 36 37 35 35 36 38 38 38 38 35 35 34 31 29 22 20 20 16 16 14 16 14 13 12 12 11 10 9 9 9 8
27 22 24 20 25 22 20 20 12 19 17 17 13 19 23 28 34 40 39 39 37 36 36 36 36 37 37 35 37 34 33 32 31 26 26 24 20 20 18 17 14 13 13 12 11 10 10 11 10
20 19 21 23 22 19 18 19 16 15 14 13 12 18 20 24 32 37 42 40 37 36 35 35 35 35 35 37 39 37 33 34 34 33 31 28 24 21 23 19 16 14 13 13 13 13 12 12 11
24 25 24 17 26 19 22 18 18 18 18 24 23 14 13 18 27 32 35 37 39 39 37 36 35 35 37 41 43 41 37 37 36 38 35 33 29 24 22 18 16 14 13 15 15 13 12 13 12

GFSSGP_850_spd_015.txt.gz
Wind_Speed
10 9 11 10 3 2 7 8 16 8 10 13 9 14 17 8 2 12 18 16 19 21 24 25 23 23 23 24 25 23 24 23 22 20 17 16 14 13 12 11 10 10 10 9 9 11 12 11 11
12 10 16 14 2 1 6 17 11 11 17 14 12 8 18 18 27 24 22 20 23 23 19 19 21 21 21 21 22 22 22 22 20 17 15 13 11 10 10 10 9 9 9 9 10 11 11 10 10
13 12 18 7 11 5 11 10 16 16 9 8 9 10 14 21 25 22 24 23 23 21 18 18 21 20 19 21 21 20 20 20 17 15 13 9 7 7 8 8 8 9 9 9 10 10 10 9 10
10 17 14 6 11 10 13 15 14 11 11 9 19 15 26 21 22 25 24 22 21 20 17 19 18 18 18 18 18 18 18 18 16 14 10 7 6 6 6 7 8 8 7 8 9 9 9 8 8
12 16 13 10 10 8 11 13 12 10 12 9 24 22 21 15 23 23 22 21 21 19 15 16 16 16 16 17 17 17 16 16 14 11 8 8 6 5 5 6 7 7 6 7 9 9 8 7 7
13 6 8 13 11 9 9 8 7 12 12 8 23 22 17 19 22 21 20 20 18 17 16 15 17 16 17 17 17 17 16 14 12 10 10 7 4 4 4 5 7 6 6 7 8 8 8 7 7
13 9 1 14 10 10 9 8 7 11 12 15 21 18 18 22 20 20 20 19 18 18 17 15 15 17 18 19 17 16 15 13 12 11 7 5 3 1 2 5 6 6 6 6 6 7 7 7 6
18 5 6 10 8 14 11 8 8 10 11 18 18 13 21 24 23 22 20 20 18 21 16 15 14 14 14 19 17 14 13 11 10 8 6 4 2 3 4 6 5 6 5 5 6 5 7 7 9
14 5 3 2 15 10 13 12 9 11 15 13 4 20 25 25 24 23 21 20 18 17 19 17 15 15 14 12 14 13 12 10 8 7 5 3 1 4 4 7 9 6 5 4 6 6 10 10 11
4 8 7 8 11 15 11 13 12 13 16 14 10 25 26 26 25 24 22 21 20 19 18 17 18 16 15 12 13 10 9 7 7 5 8 2 5 5 5 8 7 7 5 4 9 9 8 9 8
14 16 25 5 4 9 15 11 13 12 12 18 17 23 27 27 24 22 21 20 20 16 17 18 18 16 15 15 9 9 8 9 7 9 9 5 4 5 6 8 5 5 8 8 7 7 8 6 4
15 12 3 5 8 8 15 14 13 9 14 16 18 22 27 26 24 23 21 20 20 18 19 18 15 16 15 14 11 10 10 9 8 8 11 8 6 5 5 6 2 5 4 7 8 6 8 7 7
11 12 7 5 10 10 16 14 12 10 8 15 19 22 27 26 24 22 20 20 20 20 19 19 18 18 16 13 11 12 11 10 9 9 10 8 7 7 6 6 6 6 6 10 6 9 7 8 8
10 9 10 6 11 11 11 17 10 14 11 17 20 23 26 26 25 23 22 22 21 20 20 19 18 17 16 15 12 12 11 10 10 10 9 10 8 9 10 7 7 7 8 10 6 6 8 7 8
16 9 9 9 12 12 13 14 14 21 15 18 20 22 25 25 25 25 24 23 22 21 20 20 19 17 17 16 15 13 12 11 12 11 11 11 14 11 10 8 8 8 11 12 9 8 7 7 7
18 16 14 14 13 12 20 16 16 19 20 19 19 21 24 25 25 24 24 24 23 22 22 21 18 18 18 16 15 14 13 12 12 11 12 11 13 12 8 9 8 9 7 11 10 6 6 9 7
17 17 20 16 16 14 16 11 18 18 20 19 20 22 24 25 25 25 25 25 24 23 23 22 21 19 19 18 16 14 15 15 14 12 12 12 11 12 10 10 11 12 11 12 8 4 6 8 8
20 22 20 18 17 12 14 3 18 18 19 20 20 21 24 26 28 27 26 25 24 23 23 22 22 22 20 20 21 17 16 13 12 12 14 16 17 13 11 10 14 9 10 7 4 5 8 8 5
23 20 15 14 25 19 18 14 13 16 18 19 23 22 25 26 26 26 26 26 25 24 24 23 24 24 22 21 19 16 15 15 14 14 13 15 14 11 16 10 8 9 6 5 6 7 7 5 3
27 23 18 14 21 21 18 19 18 18 16 19 22 25 26 27 27 28 28 28 27 27 26 25 25 26 24 20 18 19 16 13 14 13 16 14 12 11 10 7 8 10 5 10 6 5 2 4 3
26 25 19 17 25 19 15 18 18 16 22 20 22 24 27 30 30 30 30 30 29 30 30 28 28 27 26 23 17 20 15 16 10 14 12 12 11 12 12 11 10 7 9 6 7 2 3 2 4
25 25 24 20 13 12 19 16 21 19 20 20 24 25 28 30 31 31 32 32 32 31 29 29 29 30 26 25 21 21 17 15 13 12 11 10 10 11 11 11 9 10 5 8 3 3 3 2 2
25 24 24 23 18 24 24 17 13 22 20 22 20 27 28 29 32 33 34 33 32 31 30 29 31 30 28 26 24 21 18 15 13 12 11 15 13 12 12 11 9 8 6 8 6 4 4 3 3
24 24 25 24 19 17 23 18 20 16 15 14 21 27 29 29 30 33 33 32 34 32 31 31 32 33 31 29 26 27 21 21 15 15 12 10 11 10 13 12 12 8 7 8 5 6 5 6 7
28 25 16 20 18 19 22 21 22 19 16 20 16 23 29 30 31 32 35 36 35 36 35 33 34 35 33 30 27 28 26 22 19 15 16 12 12 12 14 14 13 10 10 8 7 7 6 4 3
31 29 20 26 18 19 23 22 22 17 12 8 12 13 19 28 32 35 37 38 37 36 37 37 36 36 36 32 31 29 28 24 22 21 17 16 15 14 15 16 14 12 10 9 9 7 6 6 4
30 29 28 27 24 19 20 25 23 12 19 17 21 21 15 25 32 37 36 37 38 38 41 40 37 37 37 33 33 32 29 29 26 23 22 19 19 16 19 16 14 13 13 12 11 8 9 9 8
33 24 27 22 28 26 24 23 18 21 19 19 14 20 17 23 31 35 36 36 37 37 38 40 39 37 36 35 34 33 34 32 31 28 28 24 20 21 18 19 16 15 14 13 11 9 8 10 9
21 27 24 26 24 21 20 19 20 17 17 20 22 27 19 22 27 32 36 37 38 36 37 39 39 39 36 37 35 35 34 32 33 35 33 32 26 25 23 24 17 15 14 12 10 10 12 11 12
27 28 32 18 27 21 22 19 15 16 16 13 13 14 21 22 25 28 34 35 37 39 38 38 38 37 38 37 39 39 38 35 34 36 33 32 31 29 27 25 22 18 15 11 4 11 12 13 15

GFSSGP_850_spd_018.txt.gz
Wind_Speed
12 12 15 9 2 1 2 8 13 9 17 30 30 14 5 3 4 13 20 18 21 21 23 24 23 24 24 24 25 25 26 24 22 19 18 17 16 14 13 13 12 12 12 11 12 13 13 13 12
16 17 23 9 1 4 2 14 13 10 19 32 31 20 21 21 27 23 23 23 24 22 23 23 24 24 23 24 24 24 24 22 19 17 16 15 14 13 12 12 12 11 11 11 11 12 11 11 11
18 23 8 6 5 4 9 12 14 16 15 18 28 16 12 23 23 23 26 28 25 20 19 23 23 23 23 23 22 22 22 20 17 14 12 11 11 11 11 10 10 10 9 11 12 11 10 10 10
11 13 21 15 17 7 8 16 12 15 23 25 29 18 26 21 27 29 29 29 23 21 18 22 22 22 22 21 20 19 19 18 15 12 9 8 8 8 9 9 10 9 9 10 11 11 10 10 10
18 4 5 8 8 13 13 14 17 14 20 31 31 26 26 27 29 28 26 25 22 20 19 20 20 21 20 20 19 18 18 16 13 10 8 8 7 7 7 8 9 8 8 10 10 11 10 10 11
8 12 14 7 11 8 12 19 26 13 28 27 30 28 23 30 30 24 23 22 23 18 18 18 19 19 19 18 18 17 16 14 12 10 9 7 5 6 7 8 8 8 8 9 10 10 10 10 12
10 10 6 8 10 10 8 13 14 19 21 24 31 22 27 27 24 24 23 20 20 20 17 17 19 19 18 18 17 16 15 14 12 11 8 4 5 6 7 7 8 9 8 9 10 10 10 11 12
9 4 20 20 10 13 9 9 14 16 25 25 26 17 23 30 28 26 21 19 22 15 16 16 17 19 19 18 16 15 15 13 11 8 5 4 5 8 6 9 9 10 8 9 11 10 11 13 15
27 6 5 15 12 14 9 14 14 25 20 17 7 28 29 25 34 29 26 21 20 22 16 16 16 13 15 17 17 15 13 11 9 7 4 4 3 6 4 7 10 11 10 8 11 11 10 10 11
5 2 5 22 8 8 13 15 14 12 16 12 27 29 29 27 33 34 27 22 21 19 19 17 19 14 11 12 14 12 10 8 6 4 2 0 7 3 4 9 7 7 10 7 8 8 8 10 11
10 5 13 22 21 18 14 18 13 22 12 18 34 31 30 28 25 29 28 26 23 21 21 23 16 18 15 17 8 7 4 4 3 4 3 2 8 9 5 7 5 2 7 10 7 5 10 9 8
14 24 25 21 16 17 23 21 13 17 17 24 27 28 30 28 26 24 25 23 28 22 24 21 17 17 17 17 6 7 8 4 6 8 8 7 2 5 4 6 7 5 6 9 7 10 9 8 5
15 14 26 8 7 8 21 17 18 12 24 23 25 28 29 27 24 22 23 23 24 19 24 24 19 20 17 15 10 11 13 8 7 10 9 4 4 11 3 4 6 6 5 6 4 5 6 11 9
19 16 15 14 11 10 16 17 16 16 19 24 26 28 29 28 26 24 23 25 26 21 26 22 20 20 18 21 14 10 17 10 10 9 11 10 8 10 6 5 3 7 5 9 9 7 8 7 6
25 18 8 13 14 10 14 16 12 22 17 23 24 27 28 28 26 26 23 23 23 23 22 24 21 18 24 20 18 20 11 10 8 10 7 15 9 13 11 7 6 6 10 13 10 8 6 5 7
22 18 16 18 13 14 17 12 13 25 19 22 23 26 28 28 27 26 25 24 23 24 25 23 18 19 17 19 17 21 13 15 16 9 14 13 14 13 11 5 5 10 6 8 11 8 5 7 8
22 17 20 10 15 16 13 6 12 20 20 24 24 25 28 28 28 28 26 26 26 25 26 25 21 22 20 16 17 13 14 14 12 16 13 13 12 12 8 6 7 8 10 12 9 3 5 5 6
20 20 18 18 17 18 21 12 23 38 25 24 25 26 27 28 29 30 28 27 27 28 27 27 26 22 23 20 17 18 15 17 17 11 12 16 12 9 13 6 11 15 11 7 8 0 8 8 3
22 21 22 14 3 18 22 17 11 34 26 23 26 25 28 29 28 29 28 29 28 29 30 30 30 28 22 22 23 21 22 15 12 12 17 17 18 14 17 12 11 5 3 7 4 7 6 3 1
27 27 24 21 24 23 18 27 32 30 23 26 27 26 27 28 30 30 31 30 31 31 32 31 32 32 32 26 24 20 18 15 12 16 16 17 11 12 11 7 5 5 5 3 9 13 4 3 5
27 26 23 22 19 21 18 19 21 24 24 24 27 29 29 30 31 34 33 33 33 34 34 34 33 33 32 29 23 21 19 21 9 17 15 19 16 16 10 10 9 6 10 5 6 4 2 1 2
26 26 27 24 16 11 14 12 11 18 22 21 26 26 31 32 33 33 37 36 35 35 36 35 33 31 31 29 24 19 21 17 14 13 14 16 14 6 12 8 8 11 5 7 6 3 4 3 3
26 26 27 25 16 16 22 11 12 22 22 25 21 30 30 32 34 35 40 39 36 35 37 37 33 32 31 29 30 23 22 20 15 15 16 15 9 11 11 10 12 13 11 8 10 10 6 4 1
25 26 26 23 19 16 20 17 19 18 16 22 22 31 31 32 35 37 37 39 40 37 37 39 37 35 32 32 29 26 22 22 19 17 16 17 18 16 18 18 15 13 13 12 9 10 7 12 9
28 23 16 18 17 17 19 20 12 23 21 22 3 27 34 31 32 36 39 41 44 42 39 39 40 38 36 34 32 32 27 23 21 20 21 14 15 15 15 18 17 13 13 12 8 7 6 5 9
27 26 17 21 18 19 23 21 16 23 22 22 44 45 37 38 34 36 41 41 43 45 41 41 41 40 37 34 37 31 34 28 30 23 21 21 16 16 16 14 14 12 11 14 10 9 8 2 3
26 24 27 26 23 18 19 23 24 15 22 17 14 24 21 38 36 37 38 41 40 44 46 43 41 41 39 36 38 37 32 38 32 31 25 19 21 18 21 20 19 16 15 12 13 10 8 9 7
29 17 22 19 26 25 21 22 14 18 22 19 11 20 21 16 34 35 36 39 41 41 44 43 43 42 40 38 38 39 37 36 38 31 29 27 21 22 21 24 24 19 18 17 16 15 18 8 6
18 23 23 21 21 18 18 17 15 19 17 19 21 27 21 17 29 31 35 37 39 38 40 43 43 41 42 40 39 40 40 38 37 36 32 31 29 26 24 26 26 22 21 22 20 19 18 10 8
29 27 27 17 21 20 19 16 14 11 18 16 15 23 20 29 26 30 33 38 39 40 40 42 43 44 44 44 40 42 41 41 42 40 38 36 34 33 33 33 30 28 26 27 22 23 22 14 14

GFSSGP_850_spd_021.txt.gz
Wind_Speed
7 14 11 1 3 2 3 5 4 11 5 5 15 10 11 18 5 5 22 24 25 28 30 28 28 29 28 27 27 26 24 22 20 19 18 17 17 16 16 14 13 12 12 12 11 11 12 11 11
14 17 10 1 2 1 3 3 2 8 20 28 23 23 14 8 21 27 25 24 24 28 29 26 25 27 25 26 27 26 23 21 20 19 17 16 16 15 14 13 12 11 11 10 10 10 10 11 10
19 17 8 0 4 1 3 6 4 22 30 18 12 17 10 16 23 25 29 24 24 26 26 27 26 25 25 25 26 25 22 20 18 16 14 14 14 13 13 11 10 10 10 10 10 10 11 11 11
14 9 4 6 6 6 7 15 22 28 25 26 26 13 21 23 23 35 32 24 21 23 25 25 25 25 24 24 24 23 21 18 15 12 12 12 11 12 10 10 9 9 9 9 10 11 12 13 14
7 8 4 1 7 10 12 27 18 23 24 27 34 23 25 24 35 36 34 23 21 21 23 24 24 24 23 24 23 21 19 16 14 11 11 10 10 9 9 10 9 8 9 10 10 12 13 15 15
5 2 4 8 5 13 10 30 29 30 33 29 33 32 22 31 33 32 31 26 19 23 24 25 25 24 23 22 21 19 17 15 12 10 10 9 8 8 10 11 11 10 9 10 11 12 14 16 17
5 3 6 12 2 10 12 29 24 28 33 22 34 24 27 34 28 29 24 23 18 21 23 23 24 23 22 21 20 19 17 14 10 10 8 8 8 9 11 9 13 11 10 11 11 13 16 17 16
11 3 8 4 7 1 26 19 37 33 21 36 46 12 24 36 30 28 24 27 19 17 20 22 23 23 22 21 19 18 15 13 12 10 6 6 7 7 7 10 12 11 9 12 13 13 12 14 11
10 4 4 5 3 6 19 20 30 32 43 31 7 38 39 38 32 31 28 27 22 16 17 22 23 23 21 20 18 16 15 14 11 8 6 7 4 6 4 8 10 9 10 10 9 10 10 10 9
9 5 13 13 6 4 24 31 24 24 25 13 35 33 38 40 35 34 29 28 27 19 17 17 22 22 20 19 17 15 13 10 9 9 6 7 4 2 1 5 7 5 10 9 6 9 9 9 10
12 7 9 20 20 12 15 20 26 21 10 31 36 41 43 42 36 35 35 31 31 22 18 18 16 18 17 18 15 13 9 8 8 7 7 2 2 2 2 5 3 4 9 5 7 7 6 7 8
7 17 13 5 22 14 7 24 16 24 28 40 43 41 48 44 41 35 36 34 30 29 25 25 16 15 18 15 5 11 9 8 5 3 7 5 3 2 2 2 4 5 5 7 10 8 8 5 8
12 14 25 24 24 21 20 5 23 22 42 43 38 36 42 43 39 36 31 35 30 32 29 27 21 18 21 19 11 11 8 5 4 7 2 3 7 3 3 3 5 6 4 7 7 8 8 10 6
25 21 14 26 28 24 24 12 19 35 43 43 40 35 32 34 38 34 35 39 35 36 31 28 25 25 22 20 15 11 7 12 5 9 6 5 6 7 6 3 2 1 5 7 11 10 8 5 6
25 14 15 6 4 8 33 12 17 36 42 41 39 36 31 30 28 30 37 41 31 31 30 27 27 28 23 22 20 16 17 15 8 7 8 7 7 6 10 9 3 2 4 6 9 7 3 3 6
12 8 6 8 10 15 20 25 13 33 39 36 37 36 34 33 30 28 29 32 29 28 32 33 30 28 20 26 26 21 19 15 12 12 9 11 9 12 8 6 4 5 7 7 12 9 2 3 4
7 9 11 15 7 10 9 10 14 32 35 33 36 36 35 35 33 31 28 30 32 31 29 32 28 22 20 19 27 24 22 16 14 17 10 12 10 9 8 3 5 7 10 11 10 2 1 4 7
8 8 13 14 9 9 11 11 14 16 15 32 35 36 37 38 38 36 34 29 30 32 31 29 25 22 22 17 14 17 21 20 14 17 15 15 13 12 10 6 11 8 9 9 4 3 4 7 5
14 15 16 19 9 7 5 14 10 20 15 16 34 36 39 41 37 38 35 34 32 32 34 33 31 26 24 23 20 18 18 14 14 15 14 13 12 14 12 11 11 5 6 3 4 7 10 3 3
20 19 20 14 12 12 13 16 14 11 20 22 31 36 41 42 41 40 40 39 37 37 37 36 34 31 25 26 24 21 21 20 15 14 15 15 15 13 12 8 11 8 8 7 7 6 5 5 3
21 20 16 10 9 9 10 3 4 14 11 26 32 41 42 46 46 44 45 42 42 40 40 39 36 34 34 26 26 24 19 21 21 21 17 16 14 17 10 11 10 10 13 10 7 4 10 8 5
18 22 20 19 10 14 15 7 9 15 14 15 28 36 41 43 48 49 49 46 45 44 40 39 37 35 36 34 29 28 24 25 24 12 16 17 12 13 11 14 11 11 12 11 8 4 7 9 7
21 13 19 21 15 9 12 4 10 19 18 21 22 38 41 45 48 52 52 52 48 46 46 42 39 37 33 36 37 32 23 24 19 16 15 16 18 16 10 12 12 15 13 12 10 6 8 15 11
16 14 17 17 12 10 15 16 6 14 28 22 23 32 42 43 50 49 54 52 50 48 47 46 42 39 35 31 32 32 27 21 24 20 20 21 21 17 11 16 15 14 14 17 12 10 9 13 14
19 8 12 12 11 9 12 13 9 21 16 26 24 30 35 42 45 49 50 53 54 51 48 48 45 42 39 33 30 33 32 28 22 24 22 23 20 18 18 20 19 15 15 17 14 11 12 16 16
16 16 12 13 14 9 9 12 13 18 17 35 40 31 42 39 51 52 55 57 57 54 50 48 49 45 41 37 32 30 37 30 29 23 23 24 23 20 18 17 19 15 16 17 15 13 12 14 18
11 21 14 5 8 6 8 9 11 15 19 16 25 31 38 38 37 51 55 56 58 56 53 50 49 47 42 38 33 32 37 38 32 33 25 26 25 21 16 17 16 15 16 19 17 14 14 14 13
19 6 11 14 15 19 16 10 12 8 18 14 12 20 32 33 45 49 54 56 57 58 55 51 49 48 45 40 36 32 37 40 37 35 35 30 26 24 22 24 22 21 19 20 20 18 17 15 13
12 17 12 7 13 12 10 16 8 10 16 16 18 32 37 51 46 48 55 57 57 56 55 54 51 48 47 43 39 36 35 40 38 39 39 39 30 28 30 26 27 26 25 23 23 21 20 19 17
24 13 11 9 6 4 8 15 9 13 7 25 31 36 37 26 51 49 54 53 55 54 55 57 54 51 47 44 41 38 37 38 40 42 42 41 39 34 32 33 31 29 28 25 25 23 24 21 18

GFSSGP_850_spd_024.txt.gz
Wind_Speed
9 11 6 2 2 2 2 5 4 3 2 4 11 9 10 15 1 5 21 26 28 28 30 26 30 31 31 29 27 26 25 23 21 20 19 18 16 15 13 13 13 13 13 13 13 12 12 13 12
13 11 3 3 2 1 1 2 1 2 10 21 19 13 13 7 13 25 28 27 29 31 30 28 29 29 30 28 26 24 23 21 20 19 18 16 15 14 12 12 11 12 12 12 12 12 12 12 12
15 9 6 3 3 3 3 3 11 13 18 6 8 16 6 9 30 30 29 29 32 31 28 27 27 27 27 28 26 24 22 20 19 17 16 15 14 13 12 11 10 11 12 14 13 13 14 12 12
11 6 5 2 8 4 6 10 17 13 7 12 20 12 11 7 24 29 31 31 31 29 26 26 26 25 26 26 24 22 21 18 16 14 14 13 12 12 12 10 11 11 12 14 14 14 14 14 13
15 8 3 2 6 3 11 23 22 11 9 22 17 11 11 11 27 31 29 28 28 28 28 27 25 24 25 25 23 21 19 16 14 12 12 12 12 12 12 12 12 11 12 13 15 15 15 15 15
5 4 2 3 5 8 15 28 25 19 22 27 23 17 10 30 32 28 25 25 25 27 27 26 25 24 23 23 22 20 18 15 12 12 12 12 11 11 12 14 13 12 12 12 13 14 15 14 13
6 3 2 3 7 14 16 27 24 21 25 11 23 11 20 29 29 26 22 21 21 24 26 26 25 23 22 22 21 19 17 14 12 12 11 11 9 10 11 12 12 11 12 11 14 16 15 12 11
5 3 3 6 7 7 19 18 30 37 15 27 31 9 21 34 31 27 22 20 20 22 23 25 25 24 23 22 21 18 16 13 12 11 9 9 8 8 10 10 11 11 11 12 13 13 11 10 10
4 2 3 4 2 10 28 17 25 18 34 20 7 31 40 36 34 31 27 23 23 22 22 24 24 24 22 21 20 18 16 13 12 9 8 6 4 7 8 10 12 11 10 11 11 9 10 8 8
5 3 5 6 5 18 28 29 26 15 30 10 27 36 39 40 36 35 32 30 27 26 23 23 24 23 22 21 20 18 15 13 10 9 8 5 4 3 5 7 8 9 9 7 8 6 5 7 6
8 7 6 20 10 23 27 30 27 33 16 33 39 40 44 41 39 38 35 31 27 20 24 25 25 23 23 22 20 17 15 12 11 10 7 4 2 3 4 7 6 6 6 4 5 6 4 6 6
8 24 16 28 29 18 15 34 21 37 20 43 46 50 47 43 43 41 36 34 29 24 23 25 25 24 23 21 17 14 13 13 13 10 8 6 4 2 3 4 4 3 5 5 6 5 6 5 3
18 14 25 33 24 15 25 20 29 22 36 40 44 46 46 45 44 43 39 34 30 27 25 26 24 24 22 21 15 17 15 14 11 9 7 5 5 2 1 3 2 3 1 2 4 5 4 4 6
12 15 17 21 31 21 12 9 12 26 39 39 46 44 45 45 43 43 40 38 35 29 26 25 23 20 24 22 19 19 14 11 9 11 6 6 9 4 6 3 2 2 2 3 6 5 2 6 3
16 8 13 11 19 9 20 5 14 38 42 41 43 44 43 43 43 41 39 40 38 32 28 26 25 21 22 22 19 16 18 13 12 12 9 9 8 6 3 7 6 5 2 5 5 7 2 4 3
5 2 4 1 9 11 14 10 20 43 40 38 40 43 42 44 42 40 37 42 40 35 34 30 28 26 25 23 24 19 14 16 11 12 9 11 10 6 8 5 7 10 6 6 7 10 7 8 4
3 6 6 11 15 10 4 4 15 38 39 35 38 38 42 41 38 40 39 40 43 37 35 31 32 29 26 27 27 23 19 19 16 12 10 11 12 9 6 4 7 8 8 7 8 5 3 2 7
6 4 5 6 3 11 6 11 17 39 37 37 38 36 38 41 40 34 40 42 42 38 36 33 35 31 26 24 28 26 26 21 20 16 17 17 12 11 10 8 8 10 8 8 4 4 2 1 4
5 6 8 7 4 7 13 14 21 38 35 34 36 37 38 43 42 37 34 34 44 39 37 37 38 33 28 27 25 31 30 28 22 18 15 15 15 13 12 10 9 9 6 3 5 3 6 7 3
10 12 18 8 6 4 9 16 19 26 33 41 37 38 40 41 43 41 40 37 43 42 40 38 37 33 30 28 25 22 19 25 26 20 18 17 16 14 12 10 9 11 11 8 7 7 3 9 5
14 16 15 10 7 3 6 2 3 9 10 28 37 44 44 47 47 49 47 46 43 45 44 41 37 34 32 30 26 24 19 22 24 22 20 16 14 13 13 11 11 13 15 13 10 6 9 10 6
11 15 16 10 2 5 7 4 7 12 8 17 33 36 41 45 47 51 53 54 51 48 44 42 39 37 36 33 30 30 29 27 26 25 22 18 17 16 14 13 14 14 16 14 10 7 12 12 11
13 9 10 11 7 4 10 2 7 8 15 12 21 39 41 46 49 52 56 58 57 53 50 47 44 43 40 36 35 34 33 27 21 25 21 19 20 20 18 15 17 19 16 13 11 8 11 15 13
14 6 7 5 8 9 14 12 6 8 14 17 22 36 44 44 50 55 57 57 59 57 54 51 49 46 43 40 36 37 36 30 26 28 25 21 21 21 20 16 16 13 15 13 12 10 10 15 14
10 7 6 6 8 11 9 8 11 15 17 24 26 35 43 48 49 52 53 54 57 60 58 56 52 50 47 43 38 35 33 32 28 30 27 24 24 24 23 19 16 16 16 14 13 12 13 15 18
9 13 9 9 4 5 6 8 13 15 23 40 45 41 41 44 50 55 59 62 62 61 60 59 56 52 50 46 41 35 31 31 32 28 30 28 25 24 22 20 18 18 16 16 16 14 13 14 17
10 8 13 7 3 1 5 6 8 11 13 22 34 29 39 47 50 57 58 62 64 62 62 60 58 54 51 48 42 38 34 32 35 29 29 30 26 24 22 19 18 19 18 17 17 16 14 14 14
12 8 3 1 14 16 5 5 10 7 12 11 22 34 43 51 57 56 56 63 61 63 63 61 58 56 52 49 44 40 34 33 35 32 35 31 27 25 24 21 21 18 19 17 16 18 16 17 16
10 11 4 5 8 11 4 16 8 11 9 9 18 41 47 51 56 50 56 59 63 61 61 61 60 57 54 51 46 42 37 35 35 36 38 38 31 29 29 27 26 23 22 20 19 19 21 19 17
20 13 11 8 8 8 17 24 5 9 9 10 20 35 45 51 47 54 53 53 54 57 58 60 60 59 56 51 47 44 39 35 36 38 40 41 39 35 34 31 29 26 26 25 23 22 23 25 24

GFSSGP_850_spd_030.txt.gz
Wind_Speed
13 14 9 4 2 1 3 2 3 2 3 2 10 4 7 6 2 3 18 23 30 38 31 24 26 26 28 27 28 27 24 21 19 18 16 14 12 12 12 12 12 12 12 10 10 9 9 9 9
14 13 5 2 2 1 4 2 3 2 9 21 15 13 6 4 7 20 24 31 37 31 30 26 27 27 29 29 27 24 22 20 18 16 15 13 11 12 13 12 12 12 12 12 10 9 8 9 8
14 5 2 2 2 2 2 3 4 15 13 8 6 9 4 3 13 29 34 38 32 30 28 28 28 28 28 27 24 22 20 18 16 16 14 12 12 12 13 13 13 12 12 12 11 9 8 8 7
8 4 2 1 3 4 2 5 10 7 8 6 18 8 8 4 31 24 36 34 31 29 28 30 29 28 27 25 23 21 19 18 16 15 13 12 12 13 13 13 13 12 11 11 10 9 9 8 7
2 1 2 2 4 3 1 14 8 3 4 10 6 5 10 8 16 34 35 33 29 30 29 28 28 27 26 23 22 20 19 16 15 14 13 13 14 13 13 13 12 11 11 10 10 10 11 11 9
1 2 2 2 3 2 3 16 6 6 7 12 14 12 6 8 28 35 31 31 27 31 30 28 27 26 24 22 21 19 17 15 14 13 12 13 13 12 11 11 11 11 10 9 10 10 11 14 14
4 1 2 4 3 0 3 12 7 7 9 7 17 6 10 20 29 32 33 31 29 29 28 27 26 26 23 22 20 18 15 13 13 12 12 11 11 11 9 8 9 10 11 10 10 9 10 11 11
2 3 3 3 1 3 7 7 13 12 3 19 17 7 11 31 32 33 31 29 28 27 27 26 25 25 24 22 20 17 15 13 13 11 11 10 10 8 7 7 9 10 10 8 8 8 8 10 12
4 3 3 4 2 3 15 5 13 6 15 7 7 15 30 36 35 34 31 29 27 27 26 25 25 25 24 22 20 17 15 13 12 11 10 9 7 7 6 7 8 8 8 6 6 7 8 10 9
4 3 6 5 4 6 12 14 15 6 15 3 7 16 37 37 36 36 35 33 31 30 28 25 25 24 24 23 21 18 15 13 13 10 8 7 7 6 5 5 6 8 5 4 3 3 5 7 8
7 6 5 5 4 9 11 6 13 11 8 15 24 34 42 40 37 36 34 33 32 29 28 27 25 24 24 23 21 18 16 14 13 11 9 8 6 5 5 6 6 4 5 5 3 4 5 4 5
4 15 11 7 2 9 10 12 6 18 5 22 22 45 46 42 40 37 34 32 32 31 28 27 26 25 24 22 20 18 16 16 13 11 10 6 6 9 7 7 5 5 4 2 3 4 5 6 3
6 6 9 16 10 9 14 18 12 21 15 11 29 46 46 42 39 35 32 30 30 29 28 28 27 26 23 22 20 19 17 16 14 12 10 8 7 6 7 5 5 3 1 1 3 3 5 2 6
8 13 20 19 24 11 14 18 18 20 14 20 37 41 43 42 40 36 33 32 31 29 28 27 27 25 24 22 21 19 18 16 15 13 9 9 7 5 5 4 4 4 3 2 3 5 6 3 1
16 9 7 10 8 9 17 5 21 14 25 29 33 34 37 38 37 37 36 34 32 29 27 28 27 26 25 23 21 21 19 17 17 14 10 8 9 7 4 4 6 6 5 4 5 6 4 4 6
4 2 2 4 5 6 19 21 21 24 30 28 30 32 34 37 37 35 34 34 33 29 28 27 28 28 26 25 23 22 19 19 16 15 13 12 10 9 7 4 4 7 7 5 7 7 9 7 8
3 4 5 6 7 2 12 7 15 30 32 28 31 33 35 34 37 36 33 34 34 32 29 28 28 29 27 26 25 23 23 20 16 16 14 15 13 10 9 6 6 6 6 7 7 9 5 2 4
6 4 3 5 1 5 7 6 8 28 31 31 32 32 33 36 44 39 35 34 33 34 31 29 27 27 25 25 27 26 25 22 18 19 18 16 13 11 10 8 8 7 8 8 7 6 4 4 8
5 5 4 3 3 6 10 3 6 22 23 25 30 31 34 42 43 39 37 37 35 35 35 34 32 30 28 27 31 30 29 25 21 20 20 16 14 12 11 11 9 8 9 9 7 5 6 6 4
6 5 7 4 7 2 3 9 9 14 27 35 33 32 36 40 33 42 40 40 40 38 37 36 35 34 32 30 29 31 30 28 25 22 22 19 14 13 12 13 10 10 10 10 8 6 8 10 8
6 12 6 4 3 1 4 6 5 13 9 23 27 35 35 36 41 43 44 44 43 44 43 41 38 37 36 34 32 32 31 30 31 28 26 22 17 15 13 14 13 13 12 11 10 9 8 6 10
9 8 5 7 4 4 4 5 5 8 20 16 24 31 35 38 39 41 45 47 48 46 43 43 42 41 38 37 36 35 33 31 30 31 29 26 24 18 15 13 15 14 13 12 11 11 9 9 10
8 9 9 6 5 3 4 1 6 7 11 17 22 31 36 42 45 47 47 48 51 48 46 44 43 44 41 40 39 37 37 31 27 24 26 27 27 23 20 19 16 16 15 13 12 13 11 11 12
7 4 5 5 4 6 9 8 5 7 14 17 21 29 35 39 46 45 48 46 47 48 48 46 47 46 46 45 43 42 39 36 30 27 25 24 25 24 22 20 19 19 18 15 14 13 13 10 14
6 8 2 2 4 9 8 7 14 9 14 20 24 35 39 43 42 47 46 48 49 51 52 49 48 47 47 47 46 45 42 40 34 29 28 25 28 28 26 24 23 22 19 15 16 15 14 12 12
8 10 6 8 5 5 7 9 6 13 17 28 32 43 43 40 46 48 55 54 54 53 55 55 51 50 49 48 47 45 44 43 38 33 30 28 28 28 28 25 24 22 19 16 15 16 14 13 13
6 10 9 4 1 2 5 7 6 6 9 14 26 29 29 38 43 49 53 57 59 57 56 58 55 52 51 50 48 48 45 44 42 37 31 29 29 27 28 25 24 21 19 18 18 17 15 15 14
11 9 4 1 6 6 4 4 6 8 14 14 10 22 34 38 44 49 49 52 56 60 59 58 59 54 52 49 51 50 47 43 41 39 34 29 30 28 31 29 27 24 22 21 21 19 16 17 16
4 6 3 6 6 6 0 7 8 10 13 15 17 30 38 40 45 48 51 55 56 55 58 58 58 58 56 56 54 53 51 47 44 42 37 33 29 31 31 33 29 26 25 24 24 22 19 18 18
22 12 8 6 10 5 4 9 3 10 9 13 18 29 37 36 38 41 46 50 50 53 54 57 57 56 56 55 54 55 53 50 48 45 39 36 33 32 31 34 33 30 28 25 25 23 22 20 19

GFSSGP_850_spd_033.txt.gz
Wind_Speed
13 11 10 3 2 2 2 2 1 6 4 3 10 4 5 6 2 4 25 29 31 33 27 28 26 27 27 26 26 26 24 20 16 16 15 12 11 10 9 9 9 10 8 8 8 8 8 7 8
13 12 5 1 2 1 3 1 3 4 9 16 12 10 5 4 4 16 22 32 34 30 27 26 25 26 27 28 27 24 21 18 17 15 13 12 12 11 10 10 10 10 9 9 7 8 8 7 6
13 6 2 2 2 2 2 0 5 13 13 7 6 7 4 6 11 19 29 34 32 29 27 27 26 28 30 28 24 22 20 18 16 14 12 11 11 11 11 11 11 9 9 8 9 8 8 7 5
8 3 3 3 3 2 1 7 16 12 7 4 13 8 5 4 17 20 31 35 30 29 29 27 28 29 28 25 22 20 19 17 15 13 11 11 12 12 11 11 11 8 9 10 11 10 10 9 9
7 2 2 3 2 2 3 14 11 5 5 7 3 7 10 10 14 30 31 28 28 25 28 27 27 28 26 23 21 20 18 16 15 12 11 12 12 12 11 10 10 8 9 11 13 14 14 13 10
2 3 2 3 3 2 5 15 9 6 7 11 15 16 7 8 25 29 28 26 26 27 25 25 27 26 24 22 20 19 16 15 13 12 12 12 11 11 11 10 9 8 10 11 13 14 14 14 12
2 2 2 4 4 1 5 10 6 8 10 8 16 9 9 18 28 28 28 26 25 25 25 24 26 25 23 21 20 17 15 14 13 12 11 10 10 9 9 9 8 9 11 10 11 11 11 12 12
1 2 1 2 3 3 6 6 8 9 5 17 13 7 12 26 32 32 28 24 25 25 26 26 26 24 23 21 19 16 13 13 12 11 9 9 8 8 8 8 9 9 8 9 9 10 10 10 11
1 3 2 1 3 1 11 4 6 7 15 9 7 12 19 31 31 29 28 25 24 25 28 28 27 25 24 21 19 16 13 12 11 10 9 8 6 7 7 8 8 7 6 6 6 9 12 9 8
4 3 2 3 2 5 13 10 11 5 14 8 7 15 32 32 32 33 31 29 27 27 28 28 28 27 25 22 19 17 14 13 11 10 8 7 6 6 6 6 5 5 5 4 5 6 7 9 7
6 5 3 2 5 3 14 11 10 8 10 14 17 28 34 33 32 31 29 29 29 29 28 28 27 26 25 24 21 18 16 13 11 10 8 7 6 4 4 5 6 4 6 6 5 6 7 6 5
5 12 10 2 1 3 11 13 9 15 4 14 19 32 37 36 36 34 32 30 30 30 30 28 27 26 26 24 22 19 17 15 13 11 9 6 4 6 4 5 3 5 3 2 3 4 5 6 4
15 9 6 13 13 10 8 17 11 20 13 10 21 32 33 33 32 30 28 27 31 31 31 29 28 27 26 24 22 20 18 16 14 12 10 7 7 6 5 4 4 4 1 1 4 5 5 4 6
5 14 15 12 16 12 14 11 12 13 18 15 24 33 33 33 33 29 29 31 34 32 31 29 28 26 25 24 22 20 19 17 15 13 10 9 7 6 4 4 4 3 3 3 2 4 6 1 3
11 13 13 16 11 8 13 9 18 12 23 23 27 31 31 31 29 32 33 33 34 33 31 30 28 26 25 23 22 21 20 18 17 14 11 9 8 5 4 3 5 5 6 5 4 5 5 6 5
3 3 5 1 7 6 15 15 15 21 25 26 28 31 31 31 33 31 30 31 33 32 32 29 28 27 26 24 22 22 21 19 18 17 13 9 7 6 6 4 3 5 7 6 5 6 8 6 5
5 9 8 6 10 5 12 13 5 25 28 27 30 32 31 30 31 32 32 34 34 32 30 30 29 28 27 25 23 23 22 21 19 19 16 12 12 8 8 6 5 5 6 5 7 8 6 2 3
10 9 9 12 1 7 10 17 2 24 29 28 31 31 32 33 36 32 32 32 34 33 30 28 28 29 27 26 25 25 25 23 23 20 17 15 13 13 12 10 7 7 6 6 7 8 4 3 6
7 15 11 4 3 6 12 13 9 18 23 25 27 30 32 34 32 30 31 30 33 35 34 32 30 29 30 31 30 30 29 28 26 21 19 16 14 13 11 11 9 7 6 8 7 6 3 4 4
16 17 16 8 10 4 6 10 9 15 24 31 34 34 35 32 29 31 31 31 33 35 36 36 33 30 31 32 30 32 30 31 27 23 19 19 17 14 14 12 11 9 8 9 7 6 5 7 5
20 22 19 14 3 4 7 13 6 11 19 22 28 30 30 33 35 34 34 36 35 37 38 38 36 34 33 32 30 30 31 31 30 27 23 22 20 16 14 13 14 11 10 10 8 8 6 7 5
23 17 16 15 8 11 5 12 6 11 16 18 24 30 32 34 33 31 36 35 39 41 39 37 37 37 35 34 34 32 33 33 31 30 27 24 21 18 15 14 14 14 12 11 10 9 7 6 6
16 11 16 17 14 11 13 8 12 4 12 19 24 32 34 36 36 36 38 46 45 40 42 40 38 38 38 37 37 35 35 32 28 28 26 27 25 23 22 17 16 15 13 12 11 10 8 7 8
13 7 9 6 9 15 20 14 17 15 15 14 21 29 32 35 37 36 37 37 38 42 44 43 42 41 41 41 39 39 37 35 32 30 26 25 27 27 26 24 20 18 17 14 12 12 11 9 9
20 16 7 9 11 15 12 14 21 9 18 20 18 31 35 36 38 39 36 36 43 43 47 46 45 44 43 43 44 43 40 38 35 31 28 26 25 24 25 24 23 20 17 16 14 14 13 11 10
26 22 9 14 14 12 8 13 13 15 23 25 24 24 27 31 36 39 43 46 49 49 47 48 49 46 45 44 45 45 44 42 39 36 33 28 27 24 24 25 22 21 19 18 16 15 15 13 13
15 23 22 8 1 5 13 14 10 8 18 18 23 20 24 30 34 39 42 46 51 51 50 49 48 47 48 45 43 45 46 45 43 39 34 32 30 27 26 26 27 24 22 21 18 16 15 15 15
14 18 11 13 15 13 8 9 13 18 19 17 18 22 26 28 29 33 37 43 50 51 52 52 50 47 46 47 45 44 44 44 44 41 37 33 32 29 29 28 27 26 24 22 21 19 17 18 17
11 19 12 13 9 9 7 10 8 15 17 20 22 30 28 28 30 32 36 41 45 44 47 53 54 53 51 47 47 45 47 47 46 45 40 35 33 31 31 31 29 29 27 26 24 22 20 21 20
23 19 22 11 14 12 7 7 1 10 10 13 20 25 21 24 30 30 31 31 32 42 45 49 51 53 54 52 50 48 46 47 47 46 42 38 35 33 31 32 33 33 31 30 27 26 25 25 23

GFSSGP_850_spd_036.txt.gz
Wind_Speed
14 11 10 3 3 5 1 4 2 7 5 5 12 4 6 11 3 8 29 33 33 36 31 23 24 24 23 21 22 22 20 17 14 13 12 11 10 8 8 10 9 8 9 9 8 7 7 9 8
13 12 6 2 4 2 5 2 4 7 9 12 11 8 10 9 9 20 28 32 31 33 24 24 27 25 23 23 23 21 18 15 14 12 11 10 9 9 10 11 10 8 8 8 8 8 7 7 7
13 7 4 4 4 4 7 5 7 9 11 8 5 7 5 6 15 26 31 33 28 24 22 24 26 25 24 24 22 19 16 15 14 12 11 10 9 9 11 12 9 8 8 9 9 9 8 7 6
8 3 5 4 6 8 8 8 11 11 7 4 8 9 9 6 17 20 34 35 24 23 22 27 26 26 26 24 20 18 16 15 13 11 11 11 10 10 11 10 8 10 12 12 13 12 11 10 7
4 5 3 7 9 6 7 10 7 3 5 7 5 10 12 12 19 29 34 28 25 25 23 25 27 29 26 22 19 17 16 14 12 10 11 11 10 9 10 10 9 11 13 14 16 16 14 10 8
4 5 7 4 8 7 8 9 5 5 8 8 14 17 9 18 29 29 31 27 25 25 24 24 29 27 23 20 18 17 16 14 11 11 11 11 10 9 9 9 9 11 12 13 13 13 13 11 10
9 6 5 4 7 8 7 6 2 7 10 11 19 13 15 25 28 31 27 27 25 26 25 24 23 25 22 19 18 16 15 13 11 11 11 10 9 9 8 8 10 11 12 12 12 11 12 13 11
5 5 3 2 4 12 7 5 5 6 8 18 15 8 17 29 31 29 25 25 25 26 25 24 22 20 18 19 18 15 13 12 11 10 9 8 8 8 8 9 8 9 9 9 10 9 9 11 10
6 6 3 5 2 7 12 9 7 7 16 9 6 13 26 32 30 28 26 25 25 26 25 24 22 20 18 16 17 15 13 12 11 9 9 7 5 4 5 5 6 7 7 6 9 11 10 9 10
9 8 5 4 5 5 10 7 11 9 16 14 10 16 32 33 32 31 28 27 27 28 26 24 22 20 18 15 15 12 10 8 8 7 6 6 5 4 7 3 6 6 6 6 7 8 9 8 6
10 9 5 4 8 5 11 10 11 9 12 16 16 26 34 34 31 30 28 28 29 28 26 24 22 20 18 16 14 11 10 9 8 9 7 6 4 2 3 2 3 3 5 2 4 4 4 6 6
9 12 5 3 3 4 5 9 10 11 7 15 17 27 34 35 32 32 30 29 29 28 26 24 22 21 20 16 14 12 11 10 8 7 8 6 3 2 4 4 2 3 1 2 2 2 4 4 5
17 9 6 12 9 8 5 7 4 11 10 18 21 28 32 31 30 28 28 27 27 27 26 25 23 22 21 19 15 13 12 11 9 8 8 6 4 4 4 3 3 2 1 1 2 5 4 5 5
10 17 14 12 12 10 10 10 11 11 15 20 26 29 32 32 31 29 28 28 28 27 26 24 23 23 22 20 18 15 13 11 10 9 8 9 6 5 6 3 2 1 2 0 1 1 2 2 2
18 11 11 14 15 10 10 14 15 9 21 22 25 28 30 31 30 31 30 29 28 27 26 25 24 23 24 23 22 17 13 12 11 10 11 11 8 6 4 2 2 3 4 2 0 3 5 3 1
16 16 14 17 19 15 13 10 15 16 25 24 25 28 30 31 32 30 29 28 27 26 27 25 23 23 23 21 22 17 15 14 13 11 10 11 9 6 3 1 1 3 2 2 1 1 3 4 1
14 14 18 12 12 10 15 12 8 18 23 24 26 28 30 30 31 31 29 28 28 27 26 26 25 24 23 23 20 20 17 17 14 14 12 12 10 7 5 4 4 3 5 1 1 2 3 2 2
18 19 15 15 12 13 13 14 4 13 21 22 24 26 28 31 33 32 30 28 27 27 26 26 26 25 25 21 23 18 18 18 16 15 14 16 13 11 9 7 7 2 1 3 1 3 2 2 2
14 18 18 17 13 11 15 14 8 14 20 22 24 27 29 31 30 31 31 30 29 28 28 28 28 28 27 26 23 22 21 19 18 17 18 17 14 12 11 9 8 5 1 1 1 2 2 2 3
20 17 20 16 10 8 12 12 9 12 18 21 25 29 30 28 28 30 32 32 32 32 30 29 30 30 32 26 25 22 21 19 18 18 17 18 16 14 12 11 9 6 4 3 1 0 1 1 2
24 24 20 16 9 12 14 15 15 12 15 19 23 24 27 29 30 32 33 34 33 34 34 33 33 32 32 27 24 22 19 20 19 20 18 17 18 17 13 13 10 10 5 4 4 2 1 1 2
25 23 19 17 15 15 16 14 18 19 17 16 22 26 28 31 31 31 34 35 36 35 32 33 35 35 32 31 25 28 25 23 21 21 18 17 20 18 16 13 11 12 7 8 5 4 4 2 3
22 18 16 21 17 17 20 11 17 14 16 18 20 25 29 32 34 35 36 38 38 33 32 31 33 36 34 34 31 29 26 22 18 20 20 22 19 20 17 16 14 13 9 10 9 7 5 5 6
17 16 15 16 16 19 23 20 18 18 18 18 19 23 28 31 35 35 35 33 34 34 33 32 34 38 38 37 36 36 30 26 22 21 20 19 19 19 23 19 20 17 14 12 9 9 9 8 8
23 18 10 14 17 20 20 20 19 9 20 20 17 23 25 31 33 36 35 35 36 37 37 34 34 40 40 40 39 39 38 34 31 24 21 18 18 19 20 24 25 20 17 15 13 12 12 12 11
28 24 12 18 15 17 18 18 21 24 24 11 22 24 23 27 32 34 38 39 38 40 44 42 41 44 43 43 42 41 39 36 32 30 24 20 20 19 18 20 22 22 20 18 17 14 13 15 15
24 25 26 11 6 9 16 20 16 10 18 24 28 22 24 27 31 35 38 40 39 39 43 46 48 47 46 45 45 44 43 42 34 34 32 28 23 20 20 20 21 21 21 21 19 15 16 17 17
20 24 21 15 17 17 14 19 13 22 22 19 21 25 23 28 30 31 33 37 40 40 42 44 46 45 46 47 47 46 46 44 43 42 39 34 29 28 23 23 23 23 23 24 23 19 20 20 20
22 18 23 18 16 14 12 14 16 19 17 21 21 26 26 26 28 30 31 32 35 36 37 40 42 47 47 47 48 48 46 45 44 45 44 42 37 35 31 30 25 25 25 26 27 24 21 23 23
29 24 28 13 23 19 13 8 5 9 17 18 21 25 25 24 23 23 25 26 29 34 36 39 41 41 44 47 45 46 47 46 44 45 43 42 40 38 35 33 31 30 28 27 30 29 25 28 27

GFSSGP_850_spd_039.txt.gz
Wind_Speed
12 11 9 6 3 6 1 5 6 9 8 19 11 9 14 13 3 6 28 32 32 38 30 20 24 22 19 21 19 18 16 14 12 11 9 9 11 11 10 10 9 10 11 10 8 7 8 8 9
12 11 7 8 3 3 4 10 9 5 15 16 13 13 16 13 12 23 36 27 40 34 19 19 23 20 20 20 20 17 14 13 12 9 9 10 10 11 12 10 9 9 10 10 9 8 7 8 8
15 7 4 4 2 3 7 11 9 13 13 8 13 14 8 8 23 38 34 33 38 26 18 22 23 20 20 21 19 16 14 12 10 8 8 9 10 12 11 10 11 12 12 11 10 9 7 6 7
11 9 9 2 11 15 9 12 12 13 8 9 13 12 12 12 29 28 33 38 32 21 20 25 23 21 21 21 18 15 14 12 10 8 8 8 10 11 10 11 12 13 14 13 12 11 10 8 6
15 14 9 6 8 7 14 10 12 13 11 12 15 11 15 16 24 36 34 31 24 24 23 26 23 22 22 19 16 15 13 11 9 8 8 8 9 9 9 11 12 13 15 16 15 13 10 8 8
9 12 2 4 15 10 12 7 7 14 10 13 18 18 9 19 30 33 30 28 23 24 24 23 24 23 21 18 16 14 13 11 9 9 9 8 9 9 9 10 12 12 13 12 13 12 10 10 8
17 12 14 21 14 15 11 4 7 13 10 16 18 16 17 27 31 33 27 25 24 25 25 22 23 24 20 18 16 14 13 11 10 10 10 9 8 8 9 10 11 11 11 10 11 12 12 12 12
15 12 12 15 8 18 9 12 7 12 19 16 17 9 24 29 33 30 27 24 24 27 23 23 21 19 16 16 15 14 13 11 10 9 9 10 10 9 10 9 9 9 9 9 8 9 11 12 10
14 12 9 2 15 17 12 14 10 12 17 11 5 23 30 31 33 30 26 26 28 25 24 23 21 19 16 14 15 14 12 10 9 7 9 10 6 6 4 5 6 7 7 8 8 9 7 3 11
16 2 7 1 11 12 13 18 11 13 14 13 21 27 31 34 31 30 28 26 23 27 26 24 21 19 17 13 14 10 9 7 6 6 4 6 6 4 6 3 5 5 8 9 8 6 6 8 12
18 7 25 6 6 3 16 17 11 17 12 16 24 32 35 35 30 29 27 26 25 27 26 24 22 19 17 15 12 9 8 8 5 2 6 6 7 4 1 3 3 2 1 7 5 12 7 13 6
17 12 24 8 4 3 8 18 14 9 18 18 21 31 35 34 33 30 29 28 26 26 25 24 22 20 18 15 13 11 10 9 7 6 6 3 4 2 4 6 4 5 6 2 4 3 5 11 4
19 17 11 4 5 5 3 3 13 14 16 19 23 30 33 31 29 28 28 28 27 27 26 24 23 21 19 16 14 12 11 10 8 6 7 4 1 1 5 4 1 2 2 1 5 3 3 6 4
17 20 11 13 12 10 11 7 9 15 17 22 27 29 32 31 29 28 28 28 28 27 26 25 23 21 20 19 15 13 13 10 10 7 7 9 5 4 3 5 3 1 3 4 3 1 3 2 4
23 12 17 16 15 9 10 10 14 18 19 24 26 28 30 31 29 29 29 29 29 27 26 25 23 22 22 20 17 15 13 11 10 9 10 9 7 6 6 1 2 4 4 2 2 4 4 5 1
19 21 17 20 17 18 13 16 18 20 25 25 26 27 30 31 31 29 29 29 29 27 27 26 24 23 22 20 18 16 14 13 11 10 8 9 9 9 2 5 5 2 2 1 2 1 5 3 1
18 18 22 20 23 17 15 15 14 21 28 26 27 27 29 31 31 31 30 29 29 29 28 27 25 24 23 21 18 17 15 14 12 11 10 11 10 8 4 3 3 2 5 0 2 4 1 2 2
22 23 23 23 15 19 18 19 16 22 22 26 28 28 29 31 34 33 31 30 29 29 28 27 26 25 25 21 20 17 17 16 14 13 12 13 11 9 7 4 4 3 2 2 2 1 2 3 1
21 21 23 24 14 21 18 20 17 16 17 24 28 29 31 31 30 32 31 30 30 29 29 30 30 29 26 24 21 20 19 17 16 15 15 15 13 10 9 6 6 2 3 3 0 1 3 2 4
27 24 23 20 14 16 15 15 14 15 18 23 27 29 30 28 29 31 32 33 33 32 32 32 32 32 32 25 23 21 19 17 16 15 16 16 13 12 11 10 12 4 6 4 3 5 4 2 4
28 27 20 19 19 15 15 16 16 12 17 22 26 28 30 33 34 34 34 35 34 34 35 34 35 34 32 26 24 23 20 20 18 17 17 16 15 14 14 12 11 9 8 8 4 3 5 2 4
28 26 23 21 20 18 20 16 21 17 18 19 25 27 30 31 32 34 35 36 37 36 35 34 36 36 33 33 25 26 24 22 20 18 17 17 16 15 14 13 11 14 7 7 5 5 6 4 3
26 21 25 23 19 19 23 17 17 27 25 24 21 29 29 32 33 35 37 37 37 35 35 35 36 35 32 33 32 28 28 22 18 18 19 21 19 16 16 15 13 14 10 11 12 8 6 5 5
22 19 21 24 20 21 25 21 19 17 19 24 26 27 29 30 33 35 35 33 33 33 33 33 37 39 37 35 35 33 29 26 21 21 19 19 19 16 21 19 19 16 12 11 9 11 9 9 7
20 21 13 17 18 20 25 24 21 20 21 20 21 29 28 28 34 34 34 35 35 37 37 37 38 40 39 39 36 40 36 31 26 24 22 19 19 19 21 21 23 19 16 14 14 13 11 11 10
27 26 15 23 19 18 25 28 25 25 16 18 26 30 30 28 32 35 37 37 39 41 43 41 41 41 42 42 42 39 40 32 31 28 23 22 20 19 19 23 21 22 18 18 18 14 12 13 13
23 27 27 23 23 16 21 29 25 20 27 18 15 29 27 30 30 35 38 40 40 42 45 47 46 46 46 46 44 43 41 41 34 32 30 24 23 20 22 21 20 22 23 22 20 17 18 16 17
29 23 23 17 23 19 18 17 18 23 17 25 24 21 30 29 31 35 37 39 40 42 45 48 49 49 48 48 47 46 44 43 42 37 36 30 28 26 20 25 23 21 22 24 23 20 19 20 18
25 22 26 21 18 15 12 12 17 20 22 20 21 34 30 28 31 33 35 38 39 38 39 44 47 47 48 49 50 48 47 47 45 45 43 39 34 33 30 26 26 25 26 26 26 25 20 24 23
26 29 27 17 24 18 14 3 9 18 15 19 23 26 32 29 33 32 32 31 35 38 39 41 43 44 47 45 49 51 50 48 48 47 46 45 43 40 37 33 34 29 27 28 30 28 25 28 26

GFSSGP_850_spd_042.txt.gz
Wind_Speed
12 12 10 8 3 5 4 5 4 1 6 13 10 13 15 12 2 5 22 34 33 25 24 25 23 22 21 19 18 16 15 14 14 13 13 13 14 14 13 13 13 14 13 12 11 10 11 10 10
12 10 8 5 3 2 4 16 8 9 19 21 22 16 14 7 9 26 30 38 33 24 22 25 22 19 20 18 18 16 13 13 13 12 12 13 13 13 13 14 13 13 13 12 11 10 9 9 9
11 11 4 3 3 4 4 8 9 20 19 16 10 13 8 6 18 31 31 42 31 23 18 24 21 20 19 18 16 14 13 12 11 11 12 12 13 13 13 14 14 13 12 13 12 10 8 9 10
10 5 7 4 2 8 6 14 17 14 17 26 23 13 13 14 28 26 45 42 29 24 18 22 20 20 19 18 15 13 12 10 10 10 11 11 11 12 13 14 15 15 14 14 12 11 10 8 9
14 4 2 6 12 7 16 14 13 14 20 16 21 15 21 20 26 30 44 41 24 26 19 23 21 20 19 17 14 13 12 9 9 9 10 10 11 12 13 14 16 16 16 16 13 12 11 10 9
9 3 3 4 9 10 12 20 21 22 24 21 29 25 9 25 31 28 37 29 21 22 19 23 21 20 18 16 14 12 11 9 9 9 9 9 10 11 11 13 14 14 14 13 14 13 11 11 8
14 4 2 12 10 12 12 9 13 15 24 23 24 18 21 34 28 33 29 23 23 24 22 21 21 20 17 15 13 12 10 9 10 9 9 10 11 11 11 12 12 12 12 12 13 13 12 13 13
24 12 5 12 11 9 18 10 16 20 25 27 31 10 25 37 35 29 28 24 25 26 21 19 19 20 17 15 13 12 10 9 10 10 10 13 13 12 10 11 10 10 10 11 10 10 11 10 14
17 11 13 6 10 8 20 19 20 22 25 15 12 37 36 38 35 30 27 25 28 30 23 21 19 13 13 14 13 12 10 9 9 9 6 8 8 6 6 6 8 7 8 9 7 9 11 11 12
17 3 8 15 7 9 12 18 19 14 18 30 35 34 35 39 34 31 31 30 30 26 25 23 20 16 12 11 12 11 9 8 7 5 6 8 9 8 6 4 8 6 6 4 6 6 9 10 9
24 7 12 25 22 18 6 18 20 17 16 29 34 37 36 38 33 30 27 27 31 25 27 25 22 18 15 16 10 6 6 8 2 8 12 5 9 8 10 4 8 6 9 3 9 6 7 8 3
18 22 22 23 24 7 15 17 7 15 25 31 29 37 40 35 33 30 28 28 26 29 29 27 26 20 17 18 9 7 7 10 8 5 6 5 6 2 7 6 9 8 7 5 8 8 9 10 6
18 19 27 17 29 34 41 10 3 8 27 31 32 36 36 34 30 29 27 27 28 28 28 28 26 23 19 15 9 13 10 10 10 9 5 4 2 6 4 7 7 6 5 7 4 5 4 4 4
21 18 17 28 9 35 25 22 25 15 27 31 35 35 35 35 35 36 32 29 30 31 28 29 25 23 22 19 16 11 14 9 7 5 8 5 5 5 3 6 7 4 3 7 6 3 3 2 6
25 16 16 17 15 8 11 25 16 22 24 31 33 34 32 30 37 39 36 35 29 31 29 28 25 22 27 24 21 16 9 8 8 5 11 11 5 0 2 3 3 2 5 6 4 4 9 8 4
22 16 17 20 16 14 11 14 26 34 33 30 31 33 33 31 30 32 36 32 31 30 30 28 23 22 25 26 24 23 13 10 9 9 13 10 9 5 3 3 5 5 1 4 4 3 2 5 4
23 17 23 20 19 17 16 15 14 32 30 33 30 30 33 32 31 31 30 31 30 30 33 30 26 26 22 23 22 21 14 14 12 10 11 10 6 6 5 2 2 5 6 5 4 2 3 5 4
19 21 19 24 22 22 19 17 15 24 30 34 36 33 31 34 35 33 31 30 31 31 33 34 29 24 25 22 23 17 17 15 14 12 11 14 10 8 6 3 0 2 1 5 4 3 4 3 5
23 21 24 21 21 19 21 18 16 21 18 30 31 34 34 33 33 34 32 32 31 33 32 33 34 31 29 26 25 22 18 17 16 15 13 14 15 11 10 8 7 5 2 4 6 4 7 3 8
28 25 24 23 21 19 22 20 19 21 24 27 36 36 34 32 34 36 36 36 35 38 36 36 37 34 31 30 26 23 20 18 17 17 16 20 19 15 11 8 8 6 5 3 3 4 6 2 6
29 27 24 21 12 11 19 17 21 18 31 19 36 36 35 36 37 39 41 40 39 38 41 39 38 38 37 32 27 22 20 20 21 19 18 20 20 13 13 11 8 9 6 5 4 9 6 5 8
27 28 27 25 19 17 23 15 17 18 15 21 29 27 36 38 36 38 39 39 40 40 41 41 39 40 39 37 29 30 30 27 25 22 20 20 16 15 16 13 11 12 10 8 4 6 7 4 2
26 27 25 26 19 19 18 15 15 20 20 24 23 34 33 40 40 42 42 43 42 41 42 42 40 38 39 38 32 30 29 28 23 22 20 22 22 19 16 16 13 14 13 9 7 9 9 7 7
26 23 24 24 18 17 22 20 20 18 23 19 23 34 36 38 41 44 43 40 40 39 40 41 40 38 39 37 39 31 32 29 26 24 24 23 22 21 17 19 18 15 14 13 14 15 10 12 11
24 22 14 17 17 16 22 21 15 17 23 22 24 28 35 35 40 41 44 42 43 42 43 43 42 41 40 41 39 40 34 31 29 26 24 25 25 24 21 18 23 21 15 18 13 13 11 10 14
28 26 15 24 18 17 22 23 21 22 22 24 35 36 35 36 39 40 45 44 45 44 46 45 46 43 41 41 42 38 42 37 33 31 26 28 25 24 24 20 21 19 19 19 18 17 14 15 14
24 26 24 21 20 16 18 28 24 23 24 21 22 32 35 37 37 41 44 45 46 46 47 49 48 46 43 42 44 43 40 44 39 37 33 27 28 23 24 23 23 22 20 21 21 21 18 14 16
30 22 22 17 21 21 19 22 19 24 23 24 18 18 33 37 35 42 44 45 48 49 48 48 48 48 44 43 43 45 43 43 43 37 35 34 26 27 19 25 26 24 21 23 24 24 22 20 23
21 22 25 20 17 15 15 14 16 26 24 20 23 23 22 33 38 39 43 45 47 46 46 47 47 46 47 44 44 46 45 43 42 43 38 37 34 26 28 20 27 27 23 25 29 28 24 25 26
28 27 25 13 22 16 14 11 10 3 24 19 15 32 27 24 34 37 39 42 43 45 45 48 46 46 48 46 43 45 46 45 44 44 44 41 38 36 35 33 29 32 28 26 28 31 32 29 29

GFSSGP_850_spd_045.txt.gz
Wind_Speed
7 10 9 6 2 2 3 6 1 8 9 14 15 11 10 10 3 5 28 33 32 29 27 27 25 24 21 20 19 18 17 16 15 16 16 17 17 17 16 16 16 16 14 13 13 14 13 14 16
11 10 6 4 3 3 3 8 7 10 19 27 23 17 9 5 8 26 39 37 32 30 29 27 24 22 20 20 19 18 16 15 15 14 15 17 17 16 16 16 14 15 14 13 12 11 12 12 14
9 6 3 1 2 3 3 13 11 20 23 17 7 15 7 6 25 39 41 38 33 29 28 27 24 22 21 19 17 16 15 14 13 14 14 16 16 15 15 16 15 14 14 13 12 11 12 14 14
10 7 6 3 6 10 5 8 19 17 16 13 21 10 9 9 28 34 45 35 28 25 27 24 24 22 20 19 16 15 14 13 12 14 14 14 14 14 16 16 16 16 16 15 13 12 11 13 14
7 2 2 1 7 9 10 20 27 15 16 21 13 9 17 11 23 47 41 33 30 25 25 23 23 21 19 17 15 14 13 12 13 14 13 13 13 14 16 16 17 17 16 14 14 14 13 11 13
6 2 2 3 7 11 11 17 28 20 28 25 22 20 11 23 34 48 35 30 27 24 24 23 22 21 19 16 15 13 11 12 13 13 13 13 12 13 14 14 14 15 15 16 15 14 13 12 14
6 3 6 10 10 11 17 25 20 22 21 16 23 11 23 28 46 42 33 29 26 22 25 24 23 21 18 16 14 12 11 13 14 13 14 14 13 13 12 12 12 13 13 13 13 14 17 16 15
9 4 5 7 2 8 14 26 28 32 20 30 29 9 25 31 44 35 27 30 23 20 25 24 23 21 18 16 14 12 12 14 14 14 15 16 16 13 11 10 10 10 11 12 12 10 13 14 17
26 7 7 7 0 6 26 21 26 22 36 13 14 35 37 34 44 31 29 28 28 22 22 24 23 20 17 15 14 13 13 13 13 15 12 11 13 11 9 6 7 7 8 11 13 12 12 12 13
11 3 8 5 6 6 5 7 27 28 28 28 37 35 38 41 37 36 34 33 31 25 20 23 23 19 17 15 13 13 13 12 11 10 9 6 7 8 6 2 5 5 8 10 8 9 8 10 10
15 8 8 5 8 9 12 12 3 30 18 42 42 42 42 37 38 31 34 37 33 27 22 23 22 18 16 16 13 13 14 12 9 5 11 8 8 7 6 4 5 5 8 8 12 11 9 8 4
17 24 11 9 5 5 12 1 9 32 21 41 46 49 44 36 40 36 34 32 35 31 25 22 19 17 18 15 10 14 11 10 9 5 8 7 9 9 5 6 4 6 8 9 11 11 8 8 9
17 14 22 14 4 29 22 10 2 33 41 42 44 42 38 38 40 31 32 31 33 35 31 27 23 19 19 16 8 12 9 5 7 3 2 6 5 7 3 7 5 8 7 8 8 6 2 4 5
20 20 20 17 17 24 16 7 10 32 41 41 43 43 37 39 38 30 34 34 33 34 37 34 27 22 20 17 12 10 9 9 9 4 4 5 3 5 5 4 2 7 6 7 3 2 4 4 6
27 16 17 16 24 9 14 5 13 35 47 43 40 43 41 41 39 36 42 36 36 36 39 38 31 25 26 21 21 16 19 11 11 6 8 6 5 6 4 5 3 5 9 7 3 5 6 6 5
17 17 14 14 15 18 25 14 8 38 43 42 41 42 43 43 43 44 43 40 36 35 39 36 32 27 26 28 24 21 19 15 11 10 9 6 8 9 9 7 4 6 7 6 3 5 5 4 9
11 13 12 9 25 8 28 12 21 34 37 40 41 41 42 44 44 39 39 37 37 35 38 35 32 27 23 26 27 25 21 20 15 10 11 8 4 9 11 5 5 9 7 8 5 1 2 4 10
12 7 10 15 17 16 9 8 23 32 35 39 37 36 35 45 47 46 40 34 38 41 39 33 30 25 22 18 30 27 23 22 18 12 12 11 9 6 8 7 9 9 6 6 4 4 7 6 5
13 17 15 13 15 10 14 11 29 37 28 34 34 33 36 35 40 47 45 40 41 44 41 37 32 28 26 23 25 28 30 25 22 18 13 14 12 9 11 7 8 5 5 6 8 6 10 8 12
19 21 19 14 16 11 10 12 14 33 36 44 34 30 34 37 37 42 41 42 42 45 43 41 38 34 29 26 23 24 22 23 21 22 14 14 14 13 10 9 7 7 8 8 6 11 8 7 11
22 22 18 15 15 17 16 16 10 23 35 37 53 59 44 46 44 41 45 41 42 44 44 43 41 39 36 31 26 22 22 18 21 18 22 16 18 17 13 12 10 12 12 10 8 12 9 10 10
21 19 21 21 13 6 2 3 7 14 23 26 40 43 46 43 44 44 48 45 44 45 44 42 41 39 37 36 32 29 29 30 26 23 19 22 22 19 16 14 12 14 14 10 8 14 11 8 14
16 14 22 23 15 7 18 11 13 10 16 29 30 50 44 43 45 47 53 52 49 45 47 44 41 39 39 39 36 32 30 29 26 23 23 21 20 17 13 14 13 13 15 11 10 12 12 10 9
15 17 15 17 13 14 11 17 17 13 12 26 35 45 48 41 41 47 55 52 50 48 47 47 44 41 39 42 40 37 34 31 29 29 23 22 21 20 19 15 15 13 14 15 14 10 11 12 13
19 11 9 12 13 13 10 7 10 11 13 18 29 44 52 53 49 50 50 49 50 50 48 48 47 44 41 41 43 40 36 33 31 29 28 25 23 25 21 18 18 18 15 17 15 15 15 13 16
22 20 10 15 9 10 8 10 9 12 8 24 36 49 54 51 49 53 56 56 55 52 50 50 50 48 45 42 41 42 40 35 33 30 30 25 28 26 21 20 19 13 16 18 20 18 16 16 16
19 20 12 3 6 3 3 7 13 17 15 9 15 38 51 53 52 54 56 56 57 55 53 52 51 49 46 43 41 41 42 42 38 33 32 28 26 25 22 21 21 20 17 17 19 22 20 19 17
18 12 13 9 9 10 10 12 15 15 20 13 11 24 42 48 55 55 56 56 57 55 53 51 50 49 45 43 42 42 42 44 42 37 32 32 27 29 25 22 25 24 21 20 19 24 24 22 21
12 12 15 6 6 6 6 10 11 22 22 21 12 23 35 43 52 54 56 57 56 53 53 51 51 50 47 44 42 41 41 43 43 42 36 36 33 29 32 30 23 28 27 24 21 24 26 26 24
16 15 15 10 11 5 4 11 6 7 26 22 19 26 32 45 49 53 58 57 55 54 52 51 51 52 50 44 41 41 40 40 42 43 40 36 38 37 31 33 34 25 28 27 23 22 26 27 28

GFSSGP_850_spd_051.txt.gz
Wind_Speed
11 11 9 2 1 2 3 3 4 4 4 4 32 5 9 6 2 2 28 33 32 33 31 27 24 25 23 22 21 21 20 19 19 18 18 18 18 17 16 16 16 15 15 14 13 12 13 13 13
12 13 7 2 3 2 3 4 6 7 8 17 16 14 6 3 5 20 36 35 33 33 30 27 24 24 22 21 20 20 18 19 20 19 17 18 17 17 17 16 15 15 15 14 12 13 14 16 16
12 6 2 1 1 2 2 3 0 7 13 11 7 12 5 5 12 39 35 36 35 32 30 27 24 23 22 20 19 19 18 19 19 19 17 17 17 16 16 16 15 14 13 13 13 14 14 14 16
10 4 2 1 2 4 4 11 9 7 10 8 17 10 7 2 37 27 39 36 35 31 30 27 24 22 21 19 18 17 18 19 19 16 17 18 18 18 19 19 18 16 14 13 14 14 13 13 16
8 1 1 2 2 2 4 10 5 11 6 8 4 5 11 20 19 39 37 36 35 32 29 26 24 22 20 18 17 16 17 18 18 17 17 18 20 21 20 18 17 16 15 14 13 13 14 13 12
2 1 1 1 2 4 5 4 3 3 7 11 14 14 8 12 33 38 36 35 33 32 29 26 23 21 19 18 16 16 16 17 17 17 18 18 19 18 18 18 18 17 16 14 12 12 14 13 11
3 3 2 2 6 4 2 5 1 2 10 8 22 5 13 22 39 35 35 33 31 29 28 26 23 21 19 17 16 16 16 16 17 17 17 17 17 16 16 16 16 17 16 15 15 13 13 13 11
4 1 2 2 1 4 9 8 2 7 4 18 21 8 15 38 38 34 32 31 28 28 26 25 23 21 19 17 15 16 16 16 17 17 17 16 16 16 15 13 14 14 14 13 15 15 14 12 12
5 1 3 6 4 2 9 6 10 5 15 3 10 18 38 47 40 35 33 31 27 26 26 24 22 20 19 17 16 17 16 16 17 16 16 15 14 15 14 13 13 11 13 12 13 14 13 12 11
6 2 6 5 7 4 6 5 10 7 11 7 19 30 47 44 38 39 36 34 31 29 27 24 22 20 18 17 17 17 16 16 17 14 13 13 11 12 12 11 11 11 14 10 11 12 11 10 8
7 5 5 7 11 13 13 11 6 14 2 11 34 48 50 45 41 39 35 33 33 29 27 25 22 20 18 17 17 16 15 15 12 11 9 8 8 9 10 11 12 13 9 10 11 10 8 7 6
3 12 8 5 12 9 7 11 7 16 5 19 39 63 55 47 44 41 39 34 33 30 27 25 23 20 19 18 17 15 16 14 11 9 8 7 6 8 10 11 13 12 11 10 13 11 9 8 6
13 11 14 24 16 8 8 13 9 18 2 28 44 46 51 48 42 34 36 33 32 30 28 26 23 21 20 19 18 17 15 15 10 11 10 7 9 9 10 9 11 12 11 10 10 8 8 7 5
8 19 20 16 21 9 7 3 15 13 26 31 46 44 45 48 42 36 37 35 35 30 29 27 25 22 21 20 20 17 16 14 11 10 10 7 6 6 9 8 8 8 10 7 7 7 8 8 10
14 7 8 13 17 6 5 3 6 28 34 34 40 40 39 41 41 43 40 38 36 32 28 28 26 24 24 22 21 18 14 11 10 9 9 5 7 6 6 7 7 8 10 7 6 6 5 6 10
5 4 3 7 7 7 12 5 12 32 33 31 33 37 37 35 40 40 40 37 36 32 30 29 28 26 27 24 23 18 12 13 13 12 9 6 3 6 6 6 9 9 8 7 5 7 7 6 7
3 4 6 8 13 6 9 4 16 32 30 29 31 35 37 36 37 40 41 40 36 34 30 32 30 28 29 27 24 18 14 12 14 12 11 7 1 4 3 4 5 6 7 7 6 5 5 10 9
6 4 4 6 8 9 8 3 16 30 30 29 31 32 33 37 45 45 43 42 39 35 32 32 31 29 29 27 24 20 17 15 14 12 12 9 3 2 3 2 4 7 7 6 5 6 8 12 7
4 5 6 6 7 15 17 11 18 28 26 28 30 33 34 38 43 44 44 39 41 39 37 35 35 33 32 31 29 27 24 21 17 13 13 12 8 5 2 5 5 8 7 7 6 6 7 7 10
7 5 6 7 5 14 16 17 18 21 31 40 38 38 40 37 40 45 48 43 44 42 42 40 38 37 36 35 30 28 27 27 22 17 13 13 12 8 6 6 7 8 8 7 7 8 9 8 9
13 13 9 8 2 8 6 17 14 22 19 25 32 36 34 41 44 46 47 50 49 47 47 46 41 40 40 37 35 32 29 29 29 25 21 16 14 12 10 7 11 10 10 8 9 9 7 11 11
13 13 15 11 3 5 8 5 14 20 20 20 32 35 37 40 42 44 47 50 52 53 51 47 46 43 43 42 37 33 30 35 33 32 26 21 16 14 13 10 9 13 13 12 9 10 10 11 13
13 6 8 8 4 2 13 2 6 17 18 24 28 36 42 43 44 50 52 52 54 54 53 50 48 47 43 45 40 35 31 32 35 34 29 26 21 17 15 13 10 13 14 13 10 9 12 11 14
4 4 3 2 4 10 16 7 5 17 22 27 33 39 42 43 45 52 54 51 50 55 55 54 52 50 47 48 44 39 34 30 31 32 34 31 27 24 21 16 13 13 15 14 12 10 13 11 9
10 9 4 4 5 12 8 6 13 21 24 25 28 43 45 43 41 42 45 49 54 53 56 55 55 52 49 51 47 41 36 32 30 30 31 31 27 26 23 19 17 15 15 15 14 13 13 15 13
11 12 6 9 4 10 5 7 6 16 24 36 42 47 45 40 38 41 45 55 55 57 58 56 56 56 51 54 49 43 39 34 31 30 30 31 30 26 21 20 18 17 15 15 14 16 15 14 14
12 19 10 4 3 3 4 4 5 8 12 21 30 31 36 41 43 47 46 49 55 56 58 58 57 55 54 56 51 46 41 37 34 32 30 31 30 24 23 20 20 18 16 15 16 16 18 18 18
16 8 9 5 9 6 4 5 9 13 11 18 21 25 32 43 44 41 44 49 53 56 57 56 56 56 54 56 52 48 43 38 35 34 34 31 30 28 27 24 22 20 19 18 17 18 17 19 19
6 14 7 6 4 11 2 8 6 11 17 16 20 33 37 43 49 50 44 50 53 51 54 56 58 57 57 55 51 49 46 42 38 35 35 33 31 30 28 26 24 22 21 21 20 21 19 20 20
8 8 8 10 14 2 7 14 2 10 11 18 26 34 41 46 49 53 49 46 50 47 48 56 58 59 57 52 51 51 47 43 42 37 34 34 33 31 30 29 26 25 24 23 26 25 25 24 23

GFSSGP_850_spd_054.txt.gz
Wind_Speed
12 13 11 5 2 1 2 4 3 5 1 2 23 5 6 5 3 3 27 29 31 31 27 23 22 22 20 19 18 17 16 16 16 15 15 14 13 13 13 13 12 11 11 10 9 10 10 11 13
13 14 7 2 2 1 2 2 7 10 2 14 12 12 5 3 4 16 37 34 33 32 28 23 23 22 20 19 18 17 17 17 16 15 15 14 14 14 14 14 13 13 12 10 10 12 12 13 14
12 9 2 1 1 1 1 3 2 9 16 19 6 10 4 4 8 41 35 37 35 32 27 24 24 22 20 19 18 17 18 18 16 16 15 14 15 15 14 14 13 12 11 11 11 13 12 12 13
11 4 2 2 2 3 3 3 5 6 6 7 17 9 5 0 29 30 39 37 36 32 27 25 24 22 20 19 17 18 19 18 16 15 15 15 15 16 16 15 13 12 12 11 12 12 13 13 12
10 2 0 2 3 3 3 5 9 9 6 5 5 5 8 20 24 35 38 36 35 32 27 25 23 21 19 18 17 17 18 16 16 16 16 18 18 16 17 15 15 14 13 12 11 11 13 12 12
3 1 0 2 2 4 1 1 3 11 9 10 12 12 5 18 29 39 36 35 32 32 28 25 23 21 18 18 17 17 17 17 16 17 17 18 17 17 17 17 16 15 12 11 10 11 13 12 12
1 2 1 2 3 3 2 3 2 7 9 6 21 5 14 19 37 35 36 34 32 30 27 25 23 20 18 16 16 17 16 16 16 17 16 17 17 16 16 16 16 16 15 13 12 11 12 11 11
3 2 2 4 3 3 1 5 5 7 4 20 14 8 14 32 40 34 34 33 31 29 26 25 23 20 18 16 16 16 16 15 16 16 16 16 15 14 14 13 13 14 15 15 14 13 12 11 12
4 1 2 3 6 3 3 4 5 8 16 5 11 13 34 42 39 36 34 30 29 25 26 25 23 21 18 16 17 16 15 16 15 15 14 14 12 13 12 11 13 12 14 14 14 13 13 11 12
4 2 6 4 3 4 7 6 10 7 11 6 13 22 40 46 41 39 37 34 31 30 28 25 23 21 18 17 18 17 16 16 15 14 12 12 11 10 10 10 11 11 12 12 13 12 11 11 10
7 5 1 4 9 13 7 5 7 13 3 10 32 41 45 45 40 37 34 35 34 31 28 26 24 21 18 18 18 17 16 17 15 13 12 9 9 9 9 9 9 9 9 12 11 8 6 5 6
4 13 10 5 9 4 3 10 7 17 5 13 26 50 54 49 43 37 36 38 35 33 29 27 24 22 19 18 17 17 16 13 12 9 8 10 8 7 9 10 9 9 9 10 10 8 7 4 4
11 4 4 17 12 7 6 11 5 12 3 13 33 42 42 46 44 35 34 37 34 33 30 27 25 22 20 19 17 17 15 12 12 11 11 10 8 10 9 11 10 9 9 10 8 7 10 7 3
8 16 12 12 13 8 7 6 10 8 14 28 42 40 38 43 46 40 40 38 35 31 30 27 25 23 21 19 18 18 16 12 12 12 10 9 9 6 9 10 10 9 9 7 7 7 10 6 5
14 4 5 6 6 5 12 3 6 22 23 37 37 36 34 38 41 44 41 38 36 32 29 28 25 23 22 21 19 19 17 13 12 13 10 8 8 8 7 6 5 8 7 5 5 8 7 7 8
6 3 2 2 6 5 12 5 3 28 32 32 35 35 33 39 41 42 41 38 34 32 31 29 27 24 23 23 22 20 16 13 11 10 9 5 5 5 6 6 6 8 8 5 6 6 7 8 6
4 4 6 4 7 3 5 3 11 24 28 31 33 34 33 34 34 40 41 39 36 35 32 30 29 26 25 25 24 20 15 12 12 13 11 7 5 7 7 6 7 7 7 6 5 5 4 5 6
6 4 5 5 5 8 6 0 13 22 26 33 34 34 35 36 39 42 41 39 37 37 33 30 30 28 28 25 25 22 18 15 15 13 11 9 6 7 6 6 7 7 7 5 5 4 5 7 4
4 5 6 6 6 6 11 6 15 23 21 24 31 35 37 39 39 40 41 40 37 38 36 33 32 31 31 29 29 26 22 18 15 14 13 11 8 6 5 4 3 7 6 5 4 5 6 8 7
6 2 4 4 3 8 7 13 14 20 28 36 35 35 35 32 35 39 43 41 41 41 39 35 33 33 32 32 31 28 23 20 15 13 13 14 10 7 5 4 4 6 5 3 5 6 5 5 7
11 7 4 2 3 6 2 7 9 14 13 22 25 31 34 39 38 40 44 46 44 44 42 39 36 36 34 32 31 29 27 23 21 20 16 13 12 10 7 5 4 7 5 4 5 4 5 6 8
11 12 14 5 1 4 6 4 7 11 18 19 27 31 33 36 38 40 44 45 49 47 43 40 39 38 36 34 33 31 29 28 27 25 21 16 12 11 10 8 5 7 7 7 6 7 5 6 8
13 7 10 8 4 3 4 0 7 12 12 18 25 33 35 39 43 44 48 52 50 48 45 43 41 40 39 38 37 34 33 30 28 27 25 23 19 14 12 11 8 7 9 9 9 8 10 8 11
3 1 4 3 4 10 13 9 6 7 13 16 23 34 37 39 43 45 44 45 45 49 46 46 44 43 41 40 38 39 37 33 30 30 31 28 25 22 17 14 12 9 10 10 10 9 8 11 9
12 9 2 3 4 15 9 9 12 6 11 17 23 36 41 42 38 44 43 48 48 49 52 49 50 47 45 42 41 40 40 36 30 27 27 31 31 28 24 20 16 13 9 10 12 12 10 13 12
11 12 6 8 6 14 6 8 6 19 13 28 28 38 35 34 40 47 50 51 53 54 53 50 50 51 49 44 41 39 39 39 34 29 25 26 28 28 22 19 17 14 11 10 13 14 14 12 12
6 16 11 4 3 1 9 4 8 5 11 14 24 22 30 37 40 41 46 50 54 55 54 53 52 49 48 46 44 42 39 42 39 31 27 25 25 25 24 20 18 17 15 15 14 15 15 15 14
8 6 7 4 7 5 4 6 8 9 9 9 8 20 28 36 38 42 39 46 49 55 55 54 52 52 50 45 45 44 41 41 40 35 31 28 26 26 26 23 21 20 19 18 18 17 17 17 17
7 8 5 7 7 7 2 6 7 11 14 14 11 26 32 36 42 48 48 49 47 47 51 52 53 54 54 52 46 45 44 43 43 39 34 29 27 26 28 26 23 21 21 20 20 20 18 18 18
3 4 4 8 12 7 3 7 5 10 9 14 20 30 34 39 45 48 50 47 43 46 48 50 52 54 54 52 49 46 45 44 44 42 36 31 29 28 28 27 26 26 25 23 22 21 20 20 20

GFSSGP_850_spd_057.txt.gz
Wind_Speed
13 12 11 6 3 3 0 1 1 6 5 5 16 5 6 6 2 3 24 25 30 28 26 24 22 21 19 18 17 16 16 15 14 13 13 12 11 10 9 8 8 9 8 8 9 11 11 12 13
14 14 9 2 1 2 3 4 7 8 4 18 10 10 5 4 5 15 31 30 31 26 22 24 20 19 18 19 16 16 15 15 14 13 12 12 12 11 10 10 9 10 8 8 10 12 13 14 14
13 10 2 1 1 1 1 3 5 13 14 16 5 8 3 4 6 32 27 35 32 25 22 24 20 18 18 17 15 15 15 15 14 14 13 13 13 12 11 11 10 9 7 8 10 11 12 13 13
11 5 2 2 4 2 2 4 10 17 13 8 11 7 5 2 21 23 35 35 29 25 22 24 21 19 17 15 16 17 15 15 15 14 14 13 13 12 11 11 9 9 8 10 10 11 13 12 13
12 2 2 2 2 2 4 2 5 11 9 10 5 5 6 13 19 31 35 31 28 24 21 23 20 19 18 16 17 17 15 15 15 14 14 16 15 14 13 12 11 10 9 9 11 12 12 12 11
4 2 2 2 3 1 2 4 7 13 11 12 9 10 5 13 25 32 31 29 27 24 22 22 20 18 19 15 17 16 15 15 16 16 17 15 15 14 14 13 11 10 9 8 11 12 11 11 12
2 2 1 3 2 3 3 5 13 13 14 8 18 7 10 20 29 30 30 28 26 23 22 22 19 19 18 16 17 16 16 16 16 16 16 15 16 15 14 13 14 13 11 10 12 13 12 12 12
3 2 2 4 3 3 5 6 11 10 6 17 14 7 10 27 32 30 29 27 27 25 21 22 19 18 18 16 16 16 15 15 16 15 15 14 15 14 13 12 12 14 13 12 14 13 12 13 12
4 2 4 3 3 1 9 6 8 10 18 6 11 10 21 33 31 31 30 27 26 24 22 21 19 19 17 17 17 15 15 15 15 14 13 13 12 12 11 11 12 13 14 14 14 14 13 12 13
5 3 3 2 1 3 11 9 11 8 16 6 8 13 35 36 33 34 32 30 28 25 23 22 21 19 17 17 17 16 15 14 15 14 13 12 11 11 10 10 11 12 12 14 13 13 13 12 10
7 4 2 2 1 10 9 9 6 15 9 12 23 28 36 37 34 34 32 30 30 25 25 24 23 20 17 17 18 16 16 16 15 14 12 10 10 9 8 9 10 9 11 11 9 8 9 9 8
6 11 12 4 5 7 4 7 7 12 2 13 24 35 41 39 36 35 33 30 28 26 28 26 24 21 18 18 17 16 17 16 14 13 10 10 9 8 8 8 7 8 9 7 6 5 5 6 6
15 6 6 10 5 4 3 5 4 10 5 15 25 36 38 36 34 31 29 28 27 29 29 28 25 22 20 19 18 18 16 14 12 11 11 9 9 9 9 8 7 6 8 8 7 8 7 7 7
5 19 13 4 5 6 7 2 7 4 13 22 30 36 38 36 35 32 31 30 31 32 30 29 26 23 21 20 18 17 15 13 13 12 12 11 11 8 7 7 7 6 6 7 7 8 8 6 8
12 4 6 11 9 6 7 7 10 13 18 26 30 34 37 34 33 34 32 31 35 33 31 30 27 25 22 20 19 19 15 12 13 11 11 11 9 9 7 7 7 7 5 5 6 7 6 4 6
6 9 5 3 13 6 9 3 6 19 24 26 29 33 35 33 35 31 30 30 32 32 32 29 28 26 24 22 21 19 16 14 13 11 9 9 9 8 7 6 5 7 6 3 6 6 6 4 4
5 10 15 5 9 7 13 2 11 18 22 25 28 33 34 33 33 31 30 30 33 34 32 31 29 27 25 23 22 21 18 15 12 10 9 7 7 8 7 6 6 6 6 5 5 6 8 6 7
11 14 10 15 10 12 11 8 11 18 21 23 26 30 33 34 36 32 31 29 31 35 33 31 30 27 26 25 24 23 20 16 14 13 11 8 7 8 8 6 7 7 6 6 6 4 4 7 4
9 7 16 11 9 10 14 11 12 18 19 21 25 29 32 35 34 30 29 30 30 34 35 33 32 30 28 28 28 26 23 17 15 13 11 9 9 9 8 6 7 7 8 5 3 5 6 7 6
17 6 12 14 3 10 8 15 13 19 24 30 33 32 34 32 34 33 32 32 32 35 37 35 34 33 31 31 30 29 23 19 16 14 13 12 10 8 6 6 5 9 6 4 6 5 6 5 8
18 19 8 7 6 10 7 15 13 15 17 19 23 27 27 33 38 38 36 35 33 35 40 39 36 34 34 34 31 29 25 21 19 16 13 13 12 9 7 6 5 6 5 5 6 5 7 5 6
19 17 17 10 5 12 13 12 13 15 19 20 27 30 32 35 36 36 38 37 37 37 40 41 39 35 36 34 35 32 30 27 23 19 15 12 10 11 10 8 6 6 7 5 4 4 5 5 7
14 11 16 19 13 10 11 9 17 11 17 21 27 32 34 36 38 40 42 42 40 35 40 42 40 36 36 37 35 33 31 27 24 21 18 17 15 11 10 10 8 5 7 7 5 5 7 5 6
10 4 12 15 14 16 20 13 15 13 19 20 25 31 34 35 37 37 37 36 39 36 37 43 42 40 38 38 37 35 33 29 26 24 22 22 20 18 15 12 11 9 7 7 8 7 7 9 7
20 14 7 8 11 19 18 16 17 14 15 17 22 32 36 36 37 37 36 39 41 42 41 46 44 43 43 42 40 38 35 32 30 27 24 25 25 24 21 17 14 12 10 10 9 10 10 8 10
20 20 8 13 13 16 17 13 14 26 23 13 20 26 26 31 34 36 38 41 46 48 49 46 47 44 45 45 44 41 38 35 33 32 29 25 26 27 25 22 19 17 14 11 11 11 12 11 10
15 22 21 9 4 10 14 21 13 14 20 25 22 18 24 30 34 37 38 39 43 47 48 47 46 46 46 46 45 44 41 38 35 33 30 27 24 22 22 23 21 19 17 14 12 12 12 12 12
16 16 17 13 17 12 8 21 15 21 16 17 19 22 23 27 30 33 37 41 43 45 47 45 44 43 46 47 47 45 43 38 35 32 31 31 24 21 20 21 21 20 20 18 17 16 14 14 14
13 12 14 16 16 14 12 10 16 19 20 17 18 28 27 27 31 34 37 41 46 44 48 48 46 44 45 46 47 45 44 42 38 35 31 31 28 24 22 22 23 23 22 21 21 19 18 17 17
6 10 23 12 20 19 13 14 4 16 20 25 26 24 28 29 31 34 35 35 37 45 48 50 51 49 46 46 46 46 43 41 40 37 34 31 30 27 24 24 26 25 24 24 23 22 20 20 19

GFSSGP_850_spd_060.txt.gz
Wind_Speed
12 11 10 4 1 3 3 4 1 9 9 5 14 4 9 11 8 8 28 21 25 24 22 20 20 19 18 16 15 13 12 11 10 9 9 8 9 9 7 7 8 8 8 10 10 11 12 12 10
13 11 8 2 3 6 3 2 3 7 11 17 12 12 6 7 10 24 26 27 25 23 21 18 19 18 17 16 15 14 13 13 12 11 10 10 9 9 8 9 8 8 8 11 12 13 13 12 12
12 8 3 3 4 2 1 3 8 7 13 15 7 5 5 5 12 29 27 30 25 24 21 19 19 19 18 16 16 15 13 12 12 11 11 11 10 9 9 9 7 7 7 10 11 12 13 13 13
10 5 3 4 3 4 3 4 14 15 14 9 12 9 8 6 24 23 32 29 26 24 21 20 19 19 16 15 15 14 14 13 13 12 13 12 11 10 9 8 7 7 8 10 12 12 12 11 13
7 4 4 5 4 4 9 6 14 12 13 11 9 8 7 16 14 31 33 29 26 23 21 19 20 17 15 16 15 14 14 13 12 12 14 13 12 10 9 8 7 7 9 10 11 12 12 13 12
4 6 4 2 3 7 7 8 10 12 11 12 8 11 8 14 25 33 31 29 25 23 21 18 19 18 15 17 16 14 14 15 15 16 14 13 12 12 11 9 9 8 9 11 12 10 11 13 13
4 6 4 3 2 6 10 10 16 11 10 10 9 6 11 21 30 32 30 27 24 23 21 18 16 17 15 16 15 14 15 15 16 17 15 14 13 13 11 11 11 10 10 13 13 12 13 12 13
7 4 4 3 3 3 8 9 12 12 11 13 12 6 13 29 30 31 29 27 24 22 20 19 16 14 12 14 15 14 15 15 15 15 14 13 13 12 12 12 13 13 14 14 14 12 14 12 13
4 6 5 2 4 7 11 7 11 6 13 9 12 6 20 34 31 32 31 27 24 22 21 18 17 15 15 12 14 14 14 14 13 12 13 13 8 9 10 11 14 15 15 15 14 13 14 14 15
10 6 3 6 5 4 12 13 13 11 14 8 11 10 33 36 33 34 33 31 26 24 22 20 18 15 15 13 13 11 11 10 10 9 10 9 9 10 8 11 13 15 15 15 15 14 16 10 10
11 5 1 3 4 15 13 10 10 10 10 12 17 28 35 36 34 33 31 29 27 25 23 21 19 17 15 14 13 12 12 11 10 11 10 8 8 7 7 8 7 8 12 7 9 9 7 7 7
10 13 7 4 7 6 8 12 9 11 8 10 18 29 38 38 36 34 31 29 27 25 23 21 18 17 15 14 13 13 12 11 10 9 10 7 7 7 8 7 7 8 7 7 8 6 5 5 7
17 9 6 8 6 5 7 7 4 10 5 12 21 29 37 37 35 32 29 28 26 25 23 21 19 18 16 16 13 13 12 12 10 9 9 7 7 7 7 7 7 7 7 7 7 6 6 6 6
4 18 14 6 11 7 7 6 9 6 10 16 23 31 36 37 36 33 31 30 27 25 24 22 20 18 16 16 16 14 13 11 9 8 8 8 9 8 6 6 5 6 6 7 6 6 6 7 7
15 9 9 18 16 8 8 10 10 13 14 17 22 29 34 34 34 33 31 30 27 25 24 23 21 19 17 16 15 13 11 10 9 8 10 10 8 8 8 5 6 5 5 7 5 6 6 7 6
15 15 14 16 16 10 11 10 13 15 17 20 23 29 33 33 33 31 30 28 26 25 24 23 21 20 19 16 16 13 11 11 10 8 8 9 9 9 7 6 5 6 5 4 7 9 8 6 6
13 14 18 12 16 10 14 6 15 16 17 20 24 28 32 32 31 31 30 28 27 25 24 24 23 21 20 19 16 14 13 12 11 9 7 8 8 8 6 5 6 9 9 6 7 6 6 7 7
16 18 14 17 15 18 16 7 11 15 16 20 23 26 30 32 34 33 31 29 27 26 24 23 23 21 21 19 20 14 14 12 11 9 8 8 7 8 6 5 6 6 6 7 7 8 8 8 5
8 12 18 14 11 15 17 14 14 15 17 20 23 27 30 33 33 31 31 30 29 27 26 25 25 23 23 22 20 17 16 14 11 10 11 9 8 8 7 4 5 7 5 6 6 6 6 7 4
16 12 14 14 10 9 17 18 14 17 18 22 24 27 29 30 33 34 32 33 32 30 29 28 27 25 28 22 21 18 16 13 11 10 13 10 9 8 7 7 5 8 7 6 7 8 7 6 7
19 19 12 14 12 9 17 17 16 16 17 19 21 24 26 30 34 36 34 35 34 33 32 30 30 29 30 23 22 20 16 14 13 13 12 12 11 9 7 6 6 6 5 3 5 6 9 7 6
20 18 16 13 11 14 21 15 21 19 19 19 24 27 29 31 32 34 36 36 38 36 32 31 31 34 33 32 24 24 21 18 16 14 12 11 13 11 9 7 6 6 6 7 7 7 7 9 7
16 14 14 17 15 15 16 13 16 24 19 21 24 28 29 31 34 36 39 38 37 36 35 33 31 34 33 36 29 26 24 19 16 16 15 13 12 12 11 10 9 6 5 8 7 8 8 8 8
13 16 14 15 16 18 23 18 18 18 22 22 24 28 30 31 34 35 36 35 36 35 35 34 35 40 39 37 38 32 26 23 20 19 16 15 13 13 14 11 9 8 6 6 8 9 8 9 8
17 17 10 11 14 21 23 21 18 18 19 21 19 28 31 32 34 35 38 39 38 39 38 37 37 42 43 39 38 39 34 28 23 20 19 17 16 15 15 16 13 11 10 8 8 9 9 7 8
23 21 12 20 16 19 23 25 23 26 17 22 25 24 28 29 31 35 38 39 39 40 41 39 39 44 44 43 40 40 37 30 27 24 20 18 17 16 15 16 16 14 12 11 11 8 8 8 7
20 23 25 25 16 16 18 20 18 23 28 16 18 21 25 28 31 35 37 39 39 41 44 45 42 44 46 43 43 42 40 38 28 27 24 22 19 17 17 17 17 17 15 15 13 10 10 10 8
20 17 21 18 22 22 17 20 20 19 22 26 24 22 24 24 27 31 34 37 39 39 40 41 40 41 44 43 43 43 43 41 39 30 30 25 21 22 19 18 19 18 17 18 17 13 12 11 9
17 22 18 20 18 19 18 15 14 21 26 23 24 31 26 22 25 29 33 37 39 37 38 41 39 39 41 45 41 42 41 41 41 37 35 32 28 26 22 21 19 19 18 19 21 18 15 13 12
14 14 27 16 28 22 16 15 7 9 19 24 27 30 32 30 27 28 29 32 36 39 40 42 40 39 38 43 48 47 43 43 37 41 38 34 31 29 25 24 22 22 21 20 21 21 17 17 16

GFSSGP_850_spd_063.txt.gz
Wind_Speed
11 9 6 6 3 4 2 0 7 9 14 8 13 6 15 19 7 13 32 23 25 23 21 21 20 17 15 13 11 10 8 7 7 7 6 5 7 8 7 8 10 9 10 11 11 11 11 10 10
9 9 8 3 4 5 2 3 7 9 11 18 13 11 14 18 17 34 30 28 26 23 19 18 18 16 14 12 11 9 8 8 8 8 8 8 8 8 8 9 8 9 12 13 13 12 13 13 11
13 9 3 3 4 2 4 1 10 10 18 15 10 10 11 10 28 28 30 30 26 22 19 18 18 16 14 13 13 11 11 10 10 9 9 9 10 9 9 8 8 9 11 12 13 14 13 13 12
10 7 7 4 4 9 4 5 16 6 16 11 12 13 13 12 26 28 31 29 27 22 19 20 18 16 15 14 13 12 12 11 11 10 10 11 10 9 8 8 9 10 11 13 13 13 13 14 13
5 6 5 6 2 0 8 3 15 13 13 13 11 9 14 16 20 31 30 27 26 23 19 19 19 15 14 14 13 12 12 12 12 12 12 12 10 9 8 8 9 10 11 12 13 13 13 12 12
4 7 4 6 6 7 6 13 9 12 10 11 15 15 11 16 25 32 28 26 23 20 19 18 18 15 15 14 13 13 12 14 14 14 14 12 11 11 10 9 9 10 12 12 12 13 13 13 12
6 7 5 7 3 11 12 10 15 6 15 10 15 9 14 20 31 30 27 25 23 21 19 17 15 15 16 14 14 13 14 16 14 13 12 11 11 12 12 11 10 11 13 12 13 14 13 14 15
11 10 12 9 5 8 16 10 11 18 9 12 13 8 14 29 32 30 27 25 23 22 18 17 15 12 14 12 13 14 14 15 14 13 13 12 14 15 16 14 13 14 14 12 13 14 13 14 15
10 7 7 4 2 1 13 13 16 9 12 9 9 11 27 37 33 31 29 26 24 21 20 17 16 14 12 10 12 13 14 13 12 15 17 14 10 10 10 11 15 15 14 13 14 14 16 17 17
10 6 5 7 3 11 13 11 11 11 13 8 12 22 33 38 34 33 31 28 25 23 21 20 17 16 13 12 11 9 10 8 9 9 9 10 5 13 10 14 16 16 15 14 14 9 17 17 12
18 11 7 12 9 5 16 16 14 10 11 14 19 33 35 38 35 34 31 28 25 23 21 20 17 16 14 14 12 10 10 8 7 7 7 9 7 10 9 10 10 12 13 10 7 8 9 11 13
15 14 5 10 8 8 7 16 12 12 5 17 21 31 37 38 35 34 31 28 26 24 21 20 18 16 14 12 14 12 11 9 7 7 7 8 10 3 8 5 7 6 10 7 6 9 6 7 17
18 10 9 7 8 11 17 13 9 16 11 16 24 30 35 36 33 31 29 27 25 24 22 20 19 18 13 14 11 11 10 10 10 7 8 7 8 9 6 5 11 4 9 9 6 5 5 5 5
11 19 11 7 11 13 12 7 11 14 13 19 25 30 34 36 34 32 30 29 26 24 23 21 19 18 16 14 15 12 11 10 8 8 6 7 12 7 5 6 6 4 12 8 10 6 5 4 6
20 11 16 16 14 14 12 12 15 14 18 21 23 28 33 34 33 32 30 29 27 25 23 22 20 18 17 13 14 13 11 8 8 9 8 8 6 9 7 4 10 4 3 4 6 8 7 4 7
17 18 16 18 20 19 14 16 18 20 20 22 24 29 33 34 32 31 29 28 26 25 24 22 20 18 17 14 16 11 10 10 9 7 5 7 5 8 3 5 1 5 8 6 5 7 6 5 5
15 16 21 18 23 18 19 5 9 20 23 23 25 29 32 33 31 30 29 29 27 25 25 23 21 20 19 17 15 12 11 12 11 8 9 7 6 5 8 3 6 6 7 8 4 8 6 4 6
17 19 19 19 14 20 19 14 18 32 24 25 26 29 32 33 33 32 31 29 27 26 25 24 23 21 20 17 15 13 10 10 10 9 10 8 6 5 9 7 5 7 5 10 9 6 6 6 6
18 18 20 17 12 17 20 14 16 22 23 24 25 29 32 33 32 32 31 30 29 27 26 26 25 24 22 18 18 16 14 12 11 9 7 7 8 7 8 5 3 11 4 4 7 4 5 6 4
20 14 18 18 16 14 16 15 16 19 20 25 26 29 31 32 33 34 33 32 31 30 28 28 28 26 25 20 19 16 16 13 11 9 9 8 9 8 6 5 5 4 7 5 7 6 9 8 4
19 19 17 14 17 16 15 12 16 17 21 23 24 27 29 33 36 36 36 35 33 32 31 30 31 29 27 21 20 18 16 13 13 13 10 10 9 8 8 7 6 9 7 7 8 7 5 8 5
19 18 19 16 17 15 20 14 10 10 18 20 25 26 30 32 34 36 36 37 37 35 31 31 32 32 28 28 21 22 19 18 15 14 12 12 12 10 7 7 6 6 4 6 5 6 6 5 6
18 17 17 18 18 17 20 17 19 34 27 23 24 29 30 32 35 38 40 39 38 36 34 33 33 33 30 33 25 25 22 18 15 14 15 13 12 12 10 9 10 6 8 8 10 8 10 7 4
18 18 17 15 15 18 24 20 19 15 13 26 29 31 30 32 34 36 37 35 35 36 35 34 36 37 36 34 33 28 26 22 18 17 15 14 12 12 13 11 10 7 7 9 8 7 9 9 9
16 18 13 14 15 19 24 24 19 17 25 27 28 33 33 33 34 35 37 39 39 40 40 39 39 40 41 39 37 35 30 28 21 19 18 16 15 14 16 14 12 8 8 7 9 10 11 9 9
22 21 14 24 15 21 25 27 23 25 19 21 26 39 36 36 35 36 39 40 42 42 43 42 41 42 42 43 41 40 38 26 25 23 20 19 16 15 12 15 13 11 10 7 9 7 8 9 10
21 24 26 25 21 17 19 28 24 25 25 18 15 32 27 39 36 36 37 39 40 42 45 45 43 44 42 41 43 42 40 36 27 25 25 20 20 16 17 14 13 14 13 12 12 9 9 10 10
19 16 21 18 25 26 20 23 19 25 24 26 18 16 34 37 33 34 35 37 39 40 41 42 44 43 42 42 44 42 42 40 35 31 27 25 21 22 14 17 17 16 17 15 15 11 12 12 10
16 20 18 19 23 20 19 15 18 24 25 22 25 23 23 28 31 32 33 36 38 37 38 41 42 41 41 42 43 42 40 38 41 36 34 31 25 22 24 21 18 18 18 18 19 18 13 13 11
21 24 24 17 22 21 21 16 6 19 24 23 24 33 30 28 29 32 30 33 36 38 39 41 42 42 42 42 45 44 41 39 37 43 41 33 31 29 25 23 23 20 19 19 20 19 18 17 14

GFSSGP_850_spd_066.txt.gz
Wind_Speed
9 10 5 3 4 6 2 2 12 15 10 10 18 20 18 11 1 12 29 23 22 20 19 19 16 14 12 12 12 10 8 7 7 6 5 7 9 9 10 11 12 12 12 12 13 11 12 11 12
10 7 7 4 4 5 2 2 6 12 16 22 22 21 21 18 22 33 30 26 24 21 19 19 17 15 13 11 10 8 7 7 6 7 8 9 9 9 10 11 11 12 13 13 13 13 13 12 13
13 10 5 4 4 2 1 11 14 18 22 20 9 14 10 21 33 30 31 30 26 20 18 19 16 13 12 12 11 11 10 9 9 9 10 9 10 10 10 10 12 12 13 14 14 14 13 12 15
5 5 7 5 7 12 7 23 15 18 14 26 20 15 27 28 25 33 31 28 25 22 18 19 17 15 14 13 12 12 11 10 10 11 11 11 11 10 11 11 12 13 14 13 13 13 13 14 16
7 5 5 7 7 10 12 10 17 16 14 20 23 21 16 23 31 32 31 29 27 23 18 19 17 16 15 14 13 13 12 12 12 12 12 12 11 10 10 11 13 13 13 13 14 13 13 14 18
4 5 5 7 5 7 14 18 11 17 20 24 30 29 15 31 34 32 28 31 27 23 20 20 17 15 14 14 13 13 13 14 14 14 14 14 12 11 10 11 12 13 13 13 14 14 13 14 19
7 6 3 7 6 9 13 19 16 16 15 22 28 19 21 30 33 29 27 32 24 24 19 18 15 17 14 14 13 13 15 15 14 13 14 15 14 13 11 11 13 14 14 14 14 15 15 16 20
13 4 2 6 0 6 19 13 14 17 4 24 26 12 25 35 33 29 28 26 25 24 19 17 12 16 14 14 14 14 14 14 14 15 16 16 16 15 16 12 13 15 15 15 16 16 18 21 24
6 5 8 2 8 15 39 12 12 16 19 16 10 24 33 41 34 29 29 26 28 23 20 17 16 15 11 14 14 14 14 14 16 17 15 15 11 11 13 13 14 15 16 16 16 16 19 22 20
12 6 8 12 2 4 7 19 20 18 21 16 20 26 36 39 35 31 32 29 28 24 21 19 20 14 12 12 12 14 15 15 12 11 8 13 12 5 13 16 16 17 16 16 19 14 18 17 13
22 16 8 20 21 22 21 14 13 21 15 25 31 35 40 38 34 31 32 26 26 24 23 27 17 16 17 10 13 11 13 10 7 6 9 10 11 9 9 13 15 14 16 9 13 12 18 11 8
18 21 18 6 10 11 7 10 13 23 8 19 32 37 41 39 35 32 31 29 26 25 27 26 23 19 19 11 13 10 10 14 3 6 11 12 7 13 5 8 7 2 11 10 5 6 13 18 15
18 18 9 8 8 6 6 7 12 16 25 23 32 35 40 37 34 31 31 27 26 22 25 22 21 15 14 15 16 12 12 8 12 7 9 17 7 6 6 5 5 17 7 3 6 6 7 12 10
18 16 17 7 8 16 14 8 15 22 22 32 30 32 34 37 36 31 31 28 27 24 23 23 21 18 16 15 8 14 12 12 7 5 4 10 12 8 6 6 4 5 6 9 8 9 8 5 11
20 19 12 15 12 15 5 5 10 19 24 31 34 30 34 33 36 31 31 30 28 25 22 23 21 17 15 21 12 15 11 8 5 6 5 3 10 7 7 9 7 10 6 7 7 6 4 8 8
13 18 17 17 18 14 14 14 8 21 20 25 35 30 34 33 32 31 31 29 28 26 23 22 19 19 17 20 16 13 6 10 6 6 4 9 8 7 10 7 10 7 6 5 8 6 1 10 8
15 15 20 20 21 18 19 5 4 17 20 24 29 36 34 33 34 32 31 30 30 28 27 21 22 21 18 17 20 13 7 8 9 9 6 3 3 5 5 1 8 7 5 5 5 6 6 9 8
17 18 19 18 18 21 20 12 14 28 12 31 27 35 34 35 35 34 33 30 30 29 29 23 23 23 20 18 16 14 13 13 12 10 11 4 4 5 5 5 3 5 7 8 7 6 5 5 6
20 21 19 17 19 13 11 20 14 12 17 13 29 35 35 34 33 34 32 31 31 29 30 27 25 25 25 21 20 16 11 11 7 11 14 5 6 6 3 6 7 6 4 11 10 4 5 4 8
21 21 20 17 20 15 14 15 14 19 15 8 28 33 38 38 35 35 33 33 32 33 30 30 29 27 26 19 20 16 16 13 13 11 9 5 9 9 6 5 10 10 3 6 4 10 6 3 4
19 20 18 17 16 18 16 14 13 12 8 16 31 32 35 42 41 38 36 36 35 35 33 35 33 27 27 24 22 19 17 17 12 14 12 7 6 7 8 5 6 8 7 4 7 6 8 8 7
19 16 19 19 18 14 18 10 11 13 15 22 30 34 35 38 40 39 38 38 38 37 36 34 36 31 30 26 23 23 20 15 18 18 12 7 9 6 7 5 5 6 8 8 8 7 4 9 5
18 18 15 16 18 19 23 13 11 24 16 18 26 31 39 38 43 43 43 41 39 38 40 37 35 36 31 33 26 25 22 19 15 14 18 15 11 11 9 7 6 7 6 6 8 7 11 8 4
16 18 17 18 15 16 21 19 16 19 20 17 32 43 43 41 41 44 44 41 39 38 40 38 37 39 37 34 31 29 28 22 16 17 18 17 12 13 14 12 9 7 12 11 10 10 13 12 9
17 13 12 14 14 18 19 19 14 14 26 21 18 41 39 43 41 41 43 43 43 43 43 43 41 40 40 38 37 33 31 28 24 20 18 15 17 13 13 16 13 9 10 9 11 10 13 15 12
18 19 14 17 15 18 20 20 17 23 30 41 46 36 29 43 42 40 45 47 49 47 47 45 45 42 42 42 39 38 34 33 29 19 24 18 16 19 18 17 13 9 9 8 8 9 12 11 13
21 19 21 23 22 15 17 17 23 20 21 31 27 23 32 26 31 42 42 45 46 47 49 49 47 45 42 43 43 43 40 35 34 28 23 24 21 15 16 14 11 13 10 9 9 7 8 12 11
16 18 17 15 21 24 18 20 14 19 17 18 19 29 37 41 27 23 42 43 43 46 45 46 45 47 45 41 44 44 44 42 37 34 28 25 24 22 13 17 19 14 16 14 14 9 9 11 9
13 15 18 17 16 18 16 16 16 12 21 19 21 29 22 17 42 38 35 41 45 44 43 45 45 44 46 44 42 45 45 44 42 36 35 31 28 24 27 17 20 20 17 20 19 16 16 18 12
14 20 19 14 18 15 16 18 22 11 7 19 22 37 42 48 45 21 52 43 47 46 46 46 46 45 45 45 42 44 43 44 44 44 39 38 34 32 28 28 21 21 21 20 22 20 20 16 16

GFSSGP_850_spd_069.txt.gz
Wind_Speed
6 9 7 4 2 3 3 1 5 13 11 21 19 11 7 6 1 4 27 30 31 28 23 20 19 15 13 12 13 12 11 11 10 10 11 11 12 12 12 13 13 13 13 14 11 13 13 15 17
14 7 1 4 3 2 2 5 5 17 25 32 30 25 11 5 12 34 32 29 29 27 22 20 17 16 14 13 11 9 9 10 10 11 11 11 11 12 12 13 13 15 15 14 13 14 13 16 18
12 5 4 2 1 2 4 5 5 26 26 16 10 17 7 14 28 28 33 31 27 25 22 20 18 15 14 12 12 11 12 11 12 12 12 12 12 13 12 13 13 14 15 14 15 13 15 16 17
8 4 5 2 5 6 5 11 8 20 26 25 20 14 24 21 22 33 33 29 25 23 23 20 17 15 15 14 14 13 13 13 13 13 13 12 13 13 13 14 14 15 14 13 14 16 17 17 18
4 4 3 4 4 3 8 22 12 15 17 30 41 19 15 16 31 37 35 29 29 21 22 21 18 16 15 14 14 14 13 14 15 14 13 12 12 12 13 14 14 15 15 16 14 16 17 20 20
4 3 2 2 4 7 11 27 11 22 26 28 28 21 11 28 36 35 37 34 20 23 23 22 19 17 16 15 15 15 15 16 16 16 15 14 13 13 13 14 15 15 16 15 15 16 19 22 20
2 1 3 2 8 6 11 12 12 18 27 18 29 13 25 35 36 35 34 32 24 23 24 22 20 18 17 16 16 16 17 17 17 16 17 16 14 13 13 14 16 16 15 16 19 19 21 23 24
6 2 3 5 4 2 10 13 23 27 15 31 34 10 24 38 39 34 36 28 21 25 22 21 21 18 18 16 18 17 18 18 19 20 20 18 16 16 13 16 17 16 17 19 21 22 23 23 20
11 2 5 2 2 4 15 4 15 19 29 24 12 33 46 42 37 34 35 29 24 23 20 20 20 19 17 17 18 19 20 18 19 19 17 16 17 14 15 17 16 18 18 19 21 24 26 21 19
11 2 3 8 6 7 15 16 14 12 24 22 26 35 42 40 36 35 43 36 27 21 20 21 18 15 15 18 19 20 22 18 19 17 16 13 13 14 16 17 17 21 21 19 25 22 21 20 15
19 12 8 4 4 18 22 6 27 25 17 34 38 43 43 40 34 31 41 32 23 21 25 19 17 18 19 14 23 21 18 15 10 10 12 14 13 14 17 17 15 20 17 20 12 13 19 20 13
15 23 17 10 15 9 5 5 17 20 10 27 46 52 45 38 35 38 36 31 26 31 32 25 19 15 17 20 20 17 17 15 11 8 11 13 10 9 11 10 9 9 10 14 11 16 17 12 8
17 17 22 15 9 8 23 16 19 17 5 32 37 44 38 36 32 36 33 33 25 33 35 26 22 15 16 14 12 11 10 16 13 6 7 11 13 8 6 8 8 9 10 8 10 11 15 11 11
22 21 19 18 13 17 13 11 8 7 8 31 37 40 35 36 33 36 33 33 29 37 33 28 26 21 18 14 11 20 17 17 10 4 4 13 13 11 8 9 10 10 7 11 10 10 11 14 10
22 9 14 7 17 10 24 6 4 14 13 29 35 35 36 31 31 30 33 35 30 31 33 32 29 25 22 20 17 14 19 13 8 5 7 8 10 9 8 7 7 10 13 12 11 4 8 12 10
11 8 6 10 8 14 18 13 16 23 13 25 33 33 37 32 33 26 34 33 31 28 31 29 29 26 21 21 16 17 11 11 9 5 3 8 7 9 8 9 9 10 10 9 12 8 6 15 11
6 8 8 11 17 7 9 11 18 27 16 21 33 35 33 31 32 27 35 34 34 26 28 24 23 27 24 25 21 15 13 12 8 8 7 10 9 7 9 15 9 9 9 11 8 9 10 9 11
7 8 8 10 12 14 11 16 17 26 35 20 25 36 37 31 31 31 37 36 35 29 25 20 20 24 25 27 24 16 17 15 12 9 8 7 8 9 9 14 13 10 11 9 12 8 11 12 6
14 16 15 12 13 8 15 16 17 19 16 14 16 33 37 31 28 32 38 37 38 35 31 25 26 23 24 25 26 20 16 17 17 13 9 7 8 8 6 10 12 9 9 11 11 11 8 12 13
18 16 15 14 13 6 17 13 13 16 10 13 11 33 39 34 30 36 35 40 40 38 35 31 29 27 25 25 28 21 17 17 13 10 13 12 7 8 7 11 12 9 12 13 10 10 11 10 9
14 10 11 11 16 12 13 3 5 9 13 14 16 8 30 44 35 34 36 40 42 40 38 34 33 31 26 25 28 24 17 16 16 17 12 11 13 8 10 9 10 8 7 10 9 12 10 11 12
9 9 11 13 8 3 3 3 6 5 10 9 19 25 19 31 41 36 39 40 43 41 38 34 37 32 30 27 31 29 24 21 19 16 13 9 10 11 10 8 10 10 8 6 7 13 10 9 8
10 10 9 8 7 4 18 2 4 10 10 16 26 34 21 22 44 40 42 44 41 41 40 36 39 36 33 30 31 32 27 25 22 18 16 12 10 8 8 6 7 8 9 10 12 12 8 11 6
7 9 10 7 3 6 10 5 5 12 20 9 25 31 35 34 36 43 50 42 41 42 42 40 38 43 38 33 32 33 32 28 24 21 20 18 15 10 11 11 5 6 12 13 12 10 13 11 11
7 2 3 4 4 7 7 6 8 24 14 22 26 33 36 35 34 46 47 45 43 44 47 45 42 44 43 38 37 35 35 32 24 23 23 23 20 14 13 17 11 7 9 8 10 12 16 14 12
6 7 5 6 5 5 9 6 8 15 32 38 38 46 22 20 20 34 50 50 48 48 50 50 48 45 45 43 41 37 35 35 29 24 20 21 14 15 13 12 11 9 9 10 9 12 15 17 14
7 6 6 6 12 5 6 9 10 11 19 30 35 29 29 31 26 19 28 54 53 49 51 53 51 48 45 44 43 43 37 38 36 31 25 22 18 14 18 17 15 13 8 11 9 10 12 14 16
9 5 4 3 7 7 5 9 6 6 16 26 24 30 35 33 40 26 18 25 43 54 51 52 52 50 45 44 45 46 43 38 39 36 30 30 25 25 14 21 20 15 10 13 11 10 11 11 11
11 6 3 1 2 5 7 7 10 10 7 8 25 43 55 52 54 50 37 21 28 36 45 53 54 52 48 44 44 46 48 43 39 40 36 32 32 28 21 17 20 16 13 13 14 12 12 10 10
14 9 5 3 8 3 4 8 16 11 13 30 34 39 44 45 56 42 48 41 39 35 42 52 55 55 52 46 44 44 47 48 44 41 40 37 33 31 27 24 20 20 18 15 18 17 16 17 14

GFSSGP_850_spd_072.txt.gz
Wind_Speed
7 10 5 2 1 1 3 2 3 8 7 13 21 6 8 6 1 3 30 34 33 29 25 23 20 18 15 13 14 16 16 15 13 12 13 13 13 12 13 13 14 13 14 13 14 16 16 17 16
13 10 3 2 2 1 3 3 8 7 12 22 17 17 7 4 7 28 38 33 32 29 24 22 19 16 15 15 14 14 14 13 12 13 14 12 13 12 14 12 15 14 14 14 15 17 17 18 18
11 5 2 2 1 2 4 5 13 22 22 15 9 12 5 5 24 37 37 35 32 27 24 21 18 17 16 14 12 12 13 12 13 13 12 12 12 12 13 13 14 14 15 15 14 16 18 19 19
10 3 3 2 5 5 5 12 5 12 13 9 22 13 11 17 23 32 37 35 31 27 23 21 19 17 15 14 14 13 14 14 14 14 13 13 13 13 13 13 14 14 14 14 16 18 19 20 19
6 2 2 3 4 4 9 6 4 8 5 16 10 10 8 15 26 38 36 33 30 27 24 21 19 18 18 16 15 14 15 15 15 15 14 13 13 12 14 13 14 14 15 16 16 18 20 21 17
2 2 2 1 4 9 6 14 11 10 17 18 19 17 7 23 35 34 32 31 27 27 23 21 20 19 18 17 17 16 17 17 16 14 13 14 13 14 15 15 15 15 15 16 17 20 23 22 19
2 2 3 1 6 2 1 2 11 20 18 9 24 8 22 36 36 32 29 26 23 23 23 22 21 19 19 18 18 18 19 19 17 16 15 14 14 14 15 14 15 17 18 18 20 23 22 22 20
4 3 1 9 3 4 4 8 14 26 13 26 27 8 22 41 39 32 29 25 24 22 22 21 20 20 19 19 20 20 20 21 20 20 19 17 15 15 17 16 16 17 18 20 24 25 23 19 17
4 1 2 4 4 3 3 8 11 8 27 11 8 28 47 46 34 34 34 27 28 26 22 21 21 20 19 21 22 21 21 23 22 21 21 19 17 18 18 17 18 17 18 20 23 23 21 17 16
7 4 4 2 8 4 3 1 11 3 25 11 14 34 45 43 35 41 37 31 29 27 23 21 20 20 21 22 22 22 21 20 18 19 19 18 17 18 18 19 19 18 20 21 24 22 18 17 13
7 7 6 6 8 11 4 6 13 7 11 23 35 39 41 40 40 40 35 28 30 27 23 21 20 20 21 24 24 23 23 19 16 13 17 17 19 18 18 19 22 21 23 19 19 17 13 13 9
6 21 22 16 8 9 9 15 8 10 7 21 46 54 46 40 37 40 35 31 29 30 28 21 19 21 23 25 23 21 16 16 16 13 17 16 15 13 15 15 15 17 17 14 16 14 13 11 11
12 17 20 19 12 16 17 14 20 13 8 19 34 43 44 40 30 36 33 29 30 30 28 22 26 22 25 22 22 19 16 16 17 12 13 12 13 8 9 8 11 11 14 16 16 15 14 11 9
11 13 17 16 23 17 16 12 11 10 6 28 31 31 35 37 29 40 36 34 33 30 29 24 24 21 23 18 16 16 15 15 12 9 13 11 13 10 14 12 12 10 13 16 16 13 11 12 9
17 6 9 16 20 7 29 9 2 6 12 28 28 27 28 34 29 36 36 36 36 31 31 26 23 21 19 14 10 13 16 14 12 8 12 16 15 13 12 12 9 9 11 11 11 10 16 16 14
5 3 4 6 15 16 6 4 11 16 22 19 22 28 28 30 30 30 36 36 34 37 34 28 25 24 19 16 14 16 16 16 13 10 10 14 12 9 12 10 12 12 12 10 7 11 12 13 14
7 2 6 9 21 11 3 7 15 26 35 26 28 31 31 30 31 22 33 36 36 37 35 33 30 27 22 22 19 17 14 13 10 10 10 12 10 9 10 14 11 13 12 11 6 5 13 13 12
2 3 5 5 6 9 8 7 18 23 29 32 35 33 32 34 32 28 35 35 33 37 34 32 29 28 26 23 20 18 16 14 12 10 9 9 11 13 15 13 13 13 12 13 11 12 12 12 11
4 3 9 16 13 4 16 17 22 25 18 21 24 26 33 34 32 29 37 39 35 35 35 31 28 26 29 29 25 19 19 18 14 10 8 8 10 13 12 16 13 14 12 17 13 12 11 9 10
7 7 11 12 4 5 6 9 13 19 19 28 34 34 32 29 34 26 38 42 41 37 34 32 26 20 30 32 28 23 20 18 14 11 11 9 11 10 15 15 14 13 14 13 15 13 15 14 13
6 6 10 11 2 7 12 5 5 4 11 14 29 45 39 38 39 34 38 45 43 40 37 32 28 23 30 32 30 25 21 19 18 15 14 12 13 11 9 13 15 12 14 14 13 13 12 15 10
6 7 11 8 3 3 4 4 7 10 6 15 27 28 32 31 38 39 36 48 47 43 38 35 31 25 27 30 34 31 27 26 23 19 15 11 12 12 13 12 12 11 12 14 13 14 11 14 13
12 12 8 2 3 3 3 4 4 13 11 18 25 39 30 37 40 40 36 47 49 45 42 37 33 28 27 26 34 32 30 25 22 20 17 12 12 12 13 11 12 12 12 11 12 16 15 14 10
12 6 7 5 3 2 5 5 3 7 25 18 27 30 36 46 43 44 36 44 50 48 44 39 36 31 29 30 31 35 31 26 23 23 20 18 15 13 13 11 10 11 14 13 15 16 14 14 10
3 7 3 4 3 5 5 4 7 13 11 20 31 38 35 41 43 40 38 46 51 52 48 43 39 35 32 34 33 36 35 30 27 25 23 23 20 17 13 15 12 11 13 15 15 14 16 14 14
3 8 5 6 3 3 7 3 5 9 25 28 37 39 39 39 41 44 40 45 52 52 50 47 43 39 34 36 36 35 38 34 31 26 27 24 23 17 12 13 15 12 11 14 15 16 19 18 17
4 2 6 4 1 4 3 8 9 3 8 14 20 31 38 39 42 46 39 43 50 50 50 49 47 42 38 37 39 38 39 39 36 29 25 27 22 19 18 15 15 14 10 10 12 16 16 19 19
8 5 4 3 2 3 5 4 5 12 14 6 7 21 25 36 40 45 52 48 40 45 47 49 48 45 40 39 39 41 40 40 40 35 27 29 24 20 19 21 19 18 15 12 14 15 16 18 17
7 8 6 1 4 4 2 5 4 7 5 10 11 29 32 39 41 49 46 44 50 42 41 46 51 49 44 43 41 40 43 42 42 40 35 29 28 26 25 20 21 24 20 14 15 16 14 17 16
4 6 5 4 7 1 4 4 5 7 9 18 27 13 22 30 39 40 47 41 43 52 47 43 46 50 48 44 44 42 42 44 43 44 42 36 33 30 29 27 21 25 24 18 15 16 17 16 17

GFSSGP_850_spd_075.txt.gz
Wind_Speed
10 10 6 1 1 1 2 5 4 4 4 11 25 7 8 5 2 3 25 36 31 30 26 24 21 19 15 13 14 14 14 12 11 12 12 12 11 10 10 11 10 10 10 12 12 12 12 13 14
11 10 2 1 2 1 1 4 9 3 10 29 11 16 5 4 4 18 39 33 31 28 25 24 21 17 15 14 15 14 13 11 11 12 12 12 10 11 10 12 11 11 11 13 13 14 14 14 15
12 4 2 1 2 3 1 6 7 8 21 17 6 13 4 3 11 40 35 35 30 27 24 22 19 16 16 14 14 12 11 11 11 12 11 12 11 12 11 12 12 12 12 13 13 15 15 14 14
8 3 3 2 3 4 4 4 10 8 11 6 16 8 6 6 36 26 37 34 30 25 22 19 18 17 15 13 13 13 12 13 13 12 12 11 12 12 12 11 12 13 13 12 14 15 15 16 13
7 3 2 2 4 3 8 5 5 2 3 11 4 8 13 13 16 36 37 32 28 25 21 19 17 16 14 14 14 13 13 13 13 12 12 12 12 12 12 12 12 13 13 14 16 17 17 14 13
2 2 2 1 1 2 3 5 2 3 6 13 17 15 7 12 30 37 34 31 26 24 22 19 16 16 16 14 13 14 15 14 13 12 11 12 12 13 13 13 13 12 13 15 17 19 17 14 15
3 1 3 6 4 2 4 9 3 6 12 8 19 6 18 27 34 35 32 28 26 23 21 20 18 16 15 15 15 15 16 15 13 13 13 12 13 14 14 14 13 13 14 18 21 19 17 16 16
3 1 2 3 4 2 5 10 5 5 4 17 25 6 18 37 34 31 29 26 25 22 20 20 19 19 17 16 16 17 17 16 14 13 13 14 13 14 14 15 15 14 16 20 22 19 17 16 14
3 1 3 4 4 4 6 7 5 7 12 5 3 20 39 39 34 33 31 27 25 22 21 20 19 18 18 18 19 19 19 18 18 17 16 15 15 15 15 17 16 16 17 21 19 17 16 14 12
3 2 4 1 6 7 11 6 6 5 17 5 20 36 40 39 35 35 31 30 28 25 22 20 20 19 20 19 20 21 20 18 18 17 17 17 16 16 17 17 16 16 19 20 18 15 13 13 8
5 3 2 3 9 9 10 10 3 7 9 7 36 42 38 38 35 32 28 26 26 25 22 20 20 20 21 20 21 22 19 18 16 16 17 16 16 16 16 17 17 17 18 18 17 13 11 7 5
4 8 14 6 6 9 12 12 10 6 4 7 31 45 45 40 37 35 30 28 26 25 23 21 21 21 21 22 22 21 17 15 14 16 19 18 17 18 19 17 20 18 16 15 14 11 8 7 4
7 9 14 17 17 9 16 7 6 7 3 13 28 32 32 36 35 34 28 25 28 26 25 22 22 23 22 24 21 17 16 15 15 16 15 13 14 13 13 14 15 13 13 15 13 11 9 6 7
6 7 16 20 18 16 10 6 4 6 5 13 28 32 29 31 34 36 32 30 28 27 26 25 23 24 23 23 19 15 14 13 12 13 11 11 8 7 9 11 13 14 13 15 14 12 10 9 8
16 9 8 10 14 7 21 3 4 8 8 18 27 31 32 29 31 37 33 29 29 28 25 27 25 26 23 19 16 13 12 11 10 11 9 7 10 8 10 12 10 12 14 16 13 10 10 9 8
3 3 4 3 8 16 2 3 5 12 16 22 29 30 31 32 29 34 34 31 33 30 26 27 27 24 21 18 14 12 12 9 8 9 12 11 8 10 9 10 10 12 13 11 9 12 10 9 9
6 1 1 2 4 7 4 5 15 25 31 27 34 34 32 34 28 32 39 35 34 30 28 27 26 24 19 15 13 12 13 12 10 9 10 13 11 11 11 8 11 12 11 8 8 11 10 8 6
2 1 1 2 4 3 9 4 13 18 20 26 30 32 35 35 36 26 34 37 35 34 31 28 24 24 20 18 14 14 13 14 13 9 10 11 10 8 10 11 10 10 9 9 5 11 12 10 6
2 3 3 3 5 4 10 8 16 15 11 17 23 29 33 38 39 31 24 38 38 38 36 32 26 24 25 23 22 21 17 15 14 11 9 9 10 10 13 11 12 11 10 10 7 12 10 11 7
3 5 3 6 2 4 5 1 9 14 12 13 21 29 33 35 39 29 27 39 42 39 40 34 29 28 28 26 25 20 17 17 15 12 8 8 9 13 11 13 12 12 11 15 11 12 11 9 9
3 6 3 5 3 6 9 5 6 9 11 14 21 24 29 33 38 32 33 39 42 43 42 37 33 28 29 28 25 21 18 18 17 14 12 9 11 9 13 15 13 14 13 15 13 9 9 10 12
5 7 5 4 2 2 3 2 6 7 8 16 22 30 29 32 36 35 36 40 45 44 42 37 34 31 25 28 31 27 23 21 18 15 12 9 12 11 10 12 15 12 13 14 12 14 11 13 10
9 6 6 4 2 2 1 4 4 11 15 17 23 29 29 30 30 32 35 36 47 49 44 39 34 31 25 23 34 30 27 24 19 16 15 13 12 13 10 10 13 13 11 13 16 13 14 14 14
7 3 5 5 4 2 5 5 4 5 15 13 20 29 33 41 38 30 33 36 45 47 47 44 38 34 29 24 32 32 32 28 23 21 19 17 12 13 13 12 12 12 13 12 13 14 14 12 13
5 6 2 2 2 5 2 4 7 10 12 13 23 35 41 45 40 37 36 41 43 49 51 47 42 38 33 27 28 30 33 30 27 23 20 21 17 14 13 14 12 11 11 12 14 15 16 15 14
2 7 5 5 4 4 1 5 1 3 13 24 24 30 30 36 43 45 38 43 44 45 52 50 47 42 37 33 27 29 34 33 30 25 22 22 20 16 13 13 15 10 10 12 14 14 16 17 15
3 5 1 7 4 3 1 5 4 12 17 20 14 23 33 39 38 47 44 43 45 47 49 53 50 46 40 36 28 28 33 37 34 29 24 21 21 20 17 16 13 15 14 13 15 15 16 18 17
7 3 4 4 4 3 4 5 6 14 15 13 14 13 27 32 34 40 45 45 48 48 47 50 51 49 45 39 35 27 29 34 37 34 30 26 23 26 22 20 18 15 14 14 14 15 16 18 20
8 6 5 4 4 5 3 2 9 8 7 12 13 19 22 34 37 44 47 49 45 46 47 49 54 54 49 45 39 34 27 31 34 36 35 31 23 24 25 22 22 19 18 17 15 15 16 18 18
15 5 4 4 6 2 1 4 6 13 12 15 21 29 14 29 33 39 39 41 44 46 48 51 54 55 54 46 41 38 32 28 33 36 38 36 31 25 24 23 22 20 19 22 21 17 18 18 18

GFSSGP_850_spd_078.txt.gz
Wind_Speed
11 10 7 2 0 1 2 3 4 1 5 10 24 8 9 6 2 3 25 35 31 27 25 23 19 15 13 12 12 11 9 8 9 10 9 8 7 8 8 8 7 7 8 8 9 11 12 12 13
12 9 2 2 2 0 3 2 5 2 10 24 12 15 5 3 3 15 39 34 31 27 25 22 18 14 11 10 10 10 9 8 9 9 10 9 8 8 10 9 10 9 9 10 10 11 12 12 14
11 5 0 2 1 2 2 2 3 4 28 12 6 10 4 4 6 41 37 35 30 27 24 21 18 13 11 12 11 10 8 8 9 9 9 8 9 9 10 9 10 10 11 11 11 12 13 12 13
7 2 1 0 3 4 3 3 5 10 7 7 13 8 6 1 37 29 38 33 29 26 23 20 16 13 12 10 9 8 7 8 9 9 8 8 9 9 9 10 10 10 11 12 12 11 11 12 11
5 2 1 2 4 1 4 2 6 3 4 8 3 5 9 17 17 35 36 31 27 26 22 18 15 14 11 10 10 9 9 9 9 9 9 9 9 9 9 9 9 9 10 12 14 13 12 11 12
1 1 1 1 2 1 6 4 3 4 5 10 11 9 6 10 29 36 35 29 25 24 20 17 15 13 11 10 10 10 10 9 9 8 9 9 9 9 9 10 10 10 12 14 15 14 11 13 16
1 1 1 3 4 3 4 9 2 5 7 6 14 5 14 18 35 35 32 27 23 21 19 17 15 13 13 12 11 11 10 10 8 7 8 9 9 9 10 10 9 9 11 15 16 14 13 16 15
3 0 2 1 4 1 6 5 6 8 5 13 14 6 13 30 36 34 29 26 23 21 19 16 17 16 14 13 12 12 11 11 9 8 9 10 11 9 10 11 9 10 14 17 15 15 14 13 12
3 1 1 1 2 4 2 2 6 9 8 3 4 18 27 41 36 33 29 26 22 20 19 18 17 16 15 15 15 14 13 11 10 11 12 11 11 11 11 12 10 12 16 17 15 14 12 12 12
2 1 2 1 5 5 9 9 5 7 9 7 19 28 37 38 36 34 31 29 25 21 20 18 18 17 16 16 16 16 15 14 12 12 13 14 13 12 13 13 11 13 15 14 14 11 11 9 7
3 3 2 5 11 13 9 5 7 4 3 7 28 35 39 38 35 34 31 28 25 22 20 18 18 17 17 17 19 17 16 14 13 13 14 14 13 13 12 13 13 12 13 13 12 11 8 5 8
2 8 9 5 10 9 8 16 9 8 7 8 33 40 40 38 37 34 31 28 25 24 21 20 19 18 18 19 20 17 16 13 12 13 15 13 12 13 13 13 15 13 11 11 10 8 6 3 4
4 8 12 15 11 9 14 10 5 11 10 21 30 35 37 36 34 30 27 25 24 23 22 21 20 19 19 20 19 16 14 12 13 14 15 14 14 13 14 16 14 11 10 8 6 6 4 2 5
4 10 17 13 6 14 10 8 8 10 16 28 30 32 35 36 34 30 26 25 24 23 23 22 22 21 20 21 18 15 13 12 14 13 11 12 10 9 10 11 9 8 9 9 8 6 3 5 7
5 3 4 8 7 5 19 6 4 18 20 28 31 29 33 33 32 30 25 24 25 24 24 22 23 23 23 20 15 13 13 12 10 10 8 7 4 4 7 12 10 8 10 9 9 5 4 5 8
3 3 3 3 4 8 3 3 7 16 21 26 31 29 32 31 31 30 27 23 25 25 25 24 24 24 24 20 15 12 10 9 8 8 7 6 6 5 6 9 9 9 11 8 5 4 6 5 8
5 3 2 3 3 5 1 1 3 14 21 25 28 32 31 31 30 31 29 26 27 27 26 24 26 26 22 19 15 11 10 8 6 5 7 8 6 6 6 6 7 11 10 7 6 6 4 5 4
3 4 2 2 5 1 6 4 4 12 7 16 23 27 31 32 31 31 33 28 29 31 29 26 26 24 21 18 15 13 11 11 10 7 6 7 7 6 9 7 7 9 9 7 5 6 3 3 2
3 4 0 2 3 3 3 4 8 14 11 13 21 27 30 33 33 31 33 32 31 32 31 29 28 25 23 21 18 15 13 12 11 9 6 7 7 7 9 8 7 7 7 8 4 9 6 4 3
2 5 2 3 0 4 2 2 3 11 7 8 18 22 28 31 33 29 30 33 36 35 33 30 29 27 25 22 20 17 14 14 11 9 7 7 8 8 6 8 6 7 5 8 4 8 7 7 3
1 5 3 3 4 3 4 3 3 7 6 10 9 20 24 31 35 37 31 33 38 39 36 34 31 29 25 22 23 21 17 15 14 13 10 7 7 8 9 9 8 7 8 10 7 7 6 3 5
1 7 5 2 2 1 2 3 3 7 8 11 18 19 26 28 32 39 37 35 36 40 38 37 35 32 26 25 24 24 22 18 16 11 10 9 8 8 7 10 11 8 10 10 10 8 6 3 5
6 6 6 4 3 3 3 4 4 3 7 12 24 27 26 34 33 34 38 38 34 34 42 40 38 36 30 29 28 26 23 18 14 12 11 10 9 10 7 8 12 10 7 12 10 8 10 8 9
5 5 8 5 3 2 2 4 5 3 4 4 18 26 31 33 35 34 36 36 35 34 40 43 40 37 35 31 29 30 27 23 20 16 14 13 11 11 11 11 10 11 10 9 10 13 11 10 11
5 6 2 3 2 5 5 4 2 7 10 10 16 26 32 32 35 34 38 39 40 38 42 44 42 40 36 34 29 30 31 27 22 20 19 16 14 11 11 12 11 10 9 11 10 10 12 11 9
4 7 5 5 5 4 2 6 1 5 14 21 29 16 26 30 39 42 33 38 42 40 39 44 45 42 39 36 30 25 32 30 27 23 21 18 15 12 10 9 10 9 8 9 9 9 12 12 11
3 4 3 7 2 4 1 6 4 20 19 29 29 26 11 24 33 40 44 37 41 44 40 41 47 45 43 36 33 27 28 31 29 27 24 20 18 15 15 14 11 12 11 8 9 11 11 12 14
7 1 3 4 4 3 3 4 4 16 17 19 24 27 25 16 28 37 41 44 41 43 44 41 42 46 45 41 35 31 27 30 30 28 28 25 20 19 17 17 17 13 13 13 10 10 12 14 14
6 5 6 5 3 5 4 2 5 8 12 14 23 32 33 20 20 31 34 38 37 39 42 43 43 44 49 46 41 35 32 30 31 33 30 27 24 21 19 19 17 17 15 13 13 10 11 13 13
4 3 3 4 3 2 3 3 7 7 15 20 24 29 35 22 1 20 25 29 35 35 38 40 41 43 44 47 45 42 36 31 33 34 33 31 29 26 21 20 18 17 18 18 17 16 14 13 14

GFSSGP_850_spd_081.txt.gz
Wind_Speed
9 9 7 2 1 1 1 1 2 6 8 7 20 7 12 7 0 2 22 32 28 26 25 22 18 16 14 13 12 11 9 8 8 8 8 7 7 8 7 6 7 8 8 10 11 11 13 12 14
11 8 3 2 1 1 1 2 1 2 13 22 10 15 6 4 3 12 33 32 28 27 24 21 17 14 13 13 11 9 8 7 8 8 7 7 8 9 9 8 9 9 9 9 11 11 11 12 13
10 5 0 2 1 1 1 2 6 13 22 15 5 7 4 4 5 29 29 33 27 26 23 20 16 12 11 11 10 9 7 7 8 8 7 8 8 9 9 10 9 10 10 10 11 11 12 13 12
6 1 0 2 1 2 2 3 14 19 13 7 11 7 5 0 22 24 36 32 28 26 22 19 15 12 11 11 11 9 7 8 7 8 8 9 8 9 9 10 10 10 11 10 12 13 13 11 11
6 1 1 3 2 2 5 7 9 6 5 8 1 5 7 11 18 35 35 30 26 25 20 18 13 12 11 10 9 8 8 9 8 8 9 9 8 9 10 10 10 9 11 12 13 15 15 13 9
2 1 1 1 3 6 6 4 5 8 7 7 10 11 6 9 26 36 32 28 24 23 19 15 13 12 9 9 9 9 10 9 9 8 9 9 9 9 10 10 10 11 11 13 14 14 16 16 11
2 1 2 2 3 3 3 6 7 9 9 6 13 6 11 15 30 32 29 26 24 21 17 15 13 11 10 9 9 9 10 9 8 8 8 9 9 9 9 11 10 12 15 15 15 13 17 16 12
2 1 1 0 1 3 5 5 8 10 5 12 12 6 12 26 32 31 28 24 23 19 17 15 13 13 12 11 11 10 10 9 8 9 10 9 9 9 10 11 7 12 15 15 14 16 14 12 12
2 2 4 3 2 5 3 4 10 6 6 4 6 9 22 32 32 27 25 20 21 19 16 15 14 13 13 12 12 10 10 9 9 10 10 11 10 10 11 10 9 14 16 15 14 14 13 13 11
2 1 3 3 6 8 10 9 11 0 2 9 12 21 30 32 31 27 25 24 19 20 17 16 14 14 14 14 13 12 10 10 11 12 12 11 11 12 11 11 12 15 15 14 13 13 12 10 9
1 2 1 4 10 16 12 10 10 6 5 8 23 31 33 31 29 26 24 25 20 21 19 18 16 15 14 14 15 14 13 12 13 14 14 12 12 11 11 12 14 14 14 13 12 11 9 9 9
3 6 6 3 8 6 9 15 10 7 4 6 23 31 34 32 28 26 23 22 21 22 20 19 18 15 15 17 17 15 14 14 14 15 15 14 12 11 12 13 14 13 11 11 10 8 8 6 6
8 5 5 6 7 5 14 10 6 8 5 15 26 29 30 29 26 22 21 21 20 21 21 20 19 18 17 18 16 15 13 13 14 14 15 16 14 13 14 14 13 11 10 8 7 7 7 7 7
3 8 11 7 7 10 10 7 6 9 12 21 25 28 27 26 25 22 23 24 22 22 22 21 20 19 18 19 16 13 11 13 16 15 15 14 13 12 10 10 7 7 7 6 6 6 6 6 8
4 4 3 6 11 5 17 7 3 17 18 22 25 26 25 24 24 25 25 24 22 21 22 21 21 21 19 18 15 13 11 12 11 11 12 10 8 6 7 5 7 6 6 4 4 4 6 7 7
3 2 2 4 6 9 6 8 10 19 23 22 24 26 25 25 25 24 23 22 23 23 22 22 22 21 21 19 15 14 11 9 9 8 7 6 7 8 8 8 5 5 6 4 2 1 3 7 9
1 5 5 4 4 6 3 7 15 19 23 25 26 26 26 25 23 22 22 21 22 22 22 22 23 23 22 19 16 13 11 8 7 7 8 8 7 6 7 7 7 6 7 4 1 5 5 4 6
8 6 4 5 6 4 5 5 11 14 18 24 25 24 27 26 25 23 23 21 21 23 24 23 23 24 23 19 17 13 11 9 7 6 6 8 5 5 6 5 7 10 8 4 3 3 4 3 4
5 6 7 3 3 2 5 6 11 15 8 20 23 25 26 27 25 22 24 23 22 26 26 25 25 25 23 21 18 15 11 11 10 7 6 6 5 5 6 6 6 9 9 6 3 5 3 3 3
4 4 4 3 4 2 4 5 8 15 12 16 22 25 25 27 23 24 24 25 26 30 28 26 26 27 25 22 17 15 11 10 10 9 7 7 7 5 4 8 7 7 7 8 4 7 4 2 1
4 5 3 3 1 4 4 5 7 8 12 9 18 24 23 26 28 25 25 27 29 30 31 28 26 26 25 23 20 17 14 12 12 11 8 6 7 7 7 8 6 6 6 8 5 6 2 2 2
9 7 4 2 1 2 2 3 3 7 12 12 14 20 24 27 28 29 28 27 30 35 33 30 28 27 24 23 21 21 18 16 15 10 9 7 6 6 5 7 8 5 7 6 8 5 4 3 5
2 5 5 2 2 2 3 3 6 3 3 10 17 18 19 27 29 32 32 28 29 32 34 34 32 29 27 25 23 22 21 18 13 12 10 8 8 8 6 7 9 8 5 8 9 8 8 5 5
10 7 5 4 1 5 5 3 8 5 8 8 11 21 26 26 30 30 31 31 34 30 31 36 37 33 31 27 25 23 21 20 17 15 13 11 9 8 9 7 7 10 7 6 10 9 8 8 7
7 8 5 6 5 5 4 5 5 8 11 13 16 14 21 27 30 30 31 35 37 37 34 31 37 37 35 31 28 24 24 22 20 16 14 14 12 9 10 11 10 9 9 9 8 8 9 9 8
13 12 5 9 9 7 2 8 6 9 12 15 19 19 4 14 26 30 30 33 39 41 37 32 31 35 37 35 32 27 26 26 24 22 19 16 15 11 9 8 9 7 8 9 10 9 9 10 8
6 8 2 5 1 9 4 4 7 14 16 23 26 25 18 6 16 28 30 31 33 40 40 35 30 33 35 36 34 32 28 28 28 25 23 19 19 16 13 11 9 7 8 6 7 8 8 10 11
3 4 6 3 10 11 4 3 3 15 18 19 24 26 23 15 10 20 27 27 28 34 38 38 34 31 32 35 35 34 32 26 26 29 25 24 21 19 16 14 12 10 9 10 9 8 9 11 11
2 3 3 3 3 6 7 4 5 8 11 13 20 24 26 25 10 10 16 21 33 25 31 36 37 35 34 36 38 37 35 31 25 26 28 26 25 22 19 17 15 13 11 11 11 9 8 8 10
5 3 2 7 6 2 1 5 5 6 10 13 19 23 26 27 24 13 2 11 16 26 26 30 33 36 36 34 34 38 38 35 32 27 26 29 28 26 23 20 19 16 14 16 14 12 11 10 9

GFSSGP_850_spd_084.txt.gz
Wind_Speed
8 8 7 3 1 3 2 5 4 8 10 7 15 7 10 8 6 6 24 21 25 22 20 19 16 16 15 14 12 11 10 9 10 8 9 9 10 8 7 9 9 10 11 12 13 14 15 15 15
10 10 4 2 1 1 3 7 9 7 11 22 12 15 7 10 9 20 26 26 25 22 20 16 16 14 13 12 10 9 8 9 9 9 9 10 10 10 11 10 10 11 11 12 14 14 15 16 15
10 5 4 3 2 1 5 8 12 16 20 16 8 8 5 5 10 27 24 27 24 22 18 16 15 13 12 10 9 8 7 7 8 8 9 10 10 10 10 10 10 12 12 13 14 16 17 16 15
5 4 5 3 8 8 9 11 17 17 15 7 14 9 7 4 24 20 28 26 23 21 17 17 13 12 11 10 9 7 7 7 8 8 9 10 11 11 11 12 11 12 13 15 16 16 16 16 12
4 5 4 1 9 7 13 13 15 11 13 8 3 7 10 15 14 29 27 23 22 19 16 15 13 12 11 10 8 7 8 8 8 8 10 10 11 11 12 12 12 12 14 14 16 19 19 7 9
4 3 3 5 9 9 10 3 10 10 14 8 12 14 8 15 25 27 25 22 20 19 16 12 12 10 8 8 7 8 8 8 8 9 10 11 11 12 12 12 12 12 16 15 16 15 16 10 10
4 2 3 5 7 7 5 5 4 8 12 8 9 8 14 22 27 25 24 20 18 17 15 11 9 9 9 9 9 9 9 9 9 10 11 11 12 12 12 13 11 15 16 16 18 17 17 12 12
5 3 4 2 2 6 1 6 5 11 13 13 11 6 22 28 27 24 22 21 18 15 13 13 10 10 9 8 9 10 9 10 10 10 11 12 13 14 14 12 13 17 17 16 18 16 14 13 14
4 2 5 6 3 8 7 5 5 7 9 5 5 9 29 30 27 25 23 21 18 15 14 12 10 10 10 10 10 9 8 9 10 10 14 14 12 11 11 10 16 18 16 17 17 15 15 13 13
4 0 8 9 9 9 10 8 11 6 9 5 10 19 31 31 28 26 24 22 18 15 14 13 12 11 11 9 9 9 9 9 10 9 11 11 12 13 12 15 18 17 16 15 16 16 16 10 10
3 2 3 11 11 11 11 13 11 7 7 9 19 26 33 31 28 25 22 21 18 16 14 13 13 13 11 10 10 8 8 9 9 12 11 13 11 11 12 13 12 12 15 11 10 10 9 10 9
5 2 2 7 4 5 7 13 9 10 5 6 17 30 34 31 28 24 22 20 19 17 15 14 12 13 11 11 10 10 8 9 10 10 12 12 10 11 12 12 12 12 10 10 10 7 8 7 9
9 4 1 2 4 2 10 8 9 10 7 15 24 32 31 29 25 22 21 19 17 17 15 15 13 13 13 13 11 10 10 9 9 9 11 11 10 11 11 12 10 10 9 7 8 8 8 7 8
4 5 4 4 6 7 6 13 8 9 16 20 27 30 29 26 24 22 20 19 17 16 16 15 14 13 13 12 13 13 10 9 10 10 11 14 11 12 10 10 8 7 8 7 7 8 8 8 6
6 7 7 6 11 8 12 10 8 17 17 23 27 27 26 24 22 21 20 19 18 16 16 15 15 14 14 13 11 12 10 10 9 9 11 10 9 9 8 6 7 5 6 7 6 7 8 6 6
11 10 9 10 10 8 5 9 17 19 21 22 25 25 24 23 21 19 19 18 17 16 17 15 14 14 13 13 11 10 9 8 8 7 6 6 5 6 6 5 4 5 5 5 4 5 7 8 6
10 11 10 10 3 9 10 13 13 18 18 20 24 25 24 22 21 19 18 18 18 17 17 17 15 15 14 14 11 10 9 8 9 7 6 7 8 8 8 6 5 6 6 5 5 6 6 7 6
15 11 12 12 8 11 6 12 16 18 17 20 22 23 24 23 24 20 18 17 17 17 16 16 16 16 17 14 13 10 8 7 6 7 7 8 5 7 8 5 5 7 6 4 6 6 5 5 5
12 11 12 10 8 7 7 13 14 18 16 15 21 22 25 24 24 21 19 17 17 17 17 17 18 18 20 15 13 10 6 7 7 6 8 8 7 8 9 5 6 8 6 6 4 5 5 3 3
11 12 14 10 6 6 9 10 14 17 13 19 19 21 24 26 26 23 20 18 17 18 18 18 18 20 21 15 13 10 8 7 7 8 7 8 7 7 6 10 8 8 6 5 3 9 5 4 2
13 14 11 13 6 3 12 8 10 15 17 14 18 18 22 27 28 26 23 21 19 19 19 19 19 20 22 16 14 13 9 8 7 8 5 6 8 7 8 9 8 8 8 6 4 6 6 2 2
16 5 6 9 10 10 14 7 6 6 7 8 12 18 18 25 25 27 25 24 22 21 20 18 19 21 23 21 14 13 10 8 7 7 7 8 8 8 8 8 9 8 8 8 6 6 5 6 6
5 10 10 8 10 4 13 7 8 9 9 11 14 14 21 20 25 28 28 27 25 23 21 21 21 22 20 21 17 14 12 9 7 8 9 8 7 7 7 8 10 7 6 7 10 7 5 5 5
8 10 9 8 9 11 10 11 6 5 4 3 3 10 22 23 23 25 27 27 26 25 24 22 23 25 24 23 21 19 14 12 11 11 9 7 6 7 8 6 8 8 8 7 8 9 7 8 6
14 16 10 11 9 9 12 7 11 8 6 6 6 6 12 27 26 25 27 30 29 27 24 23 23 26 28 27 24 22 18 15 14 11 11 9 8 6 10 9 7 8 9 8 9 10 9 8 6
19 18 10 13 13 12 6 9 8 8 8 11 12 10 6 17 25 29 28 29 30 27 25 23 23 24 27 29 27 25 21 16 14 14 12 11 9 8 9 9 9 8 8 8 9 7 7 8 8
19 15 6 6 11 9 13 13 13 8 11 15 17 16 10 2 13 23 24 26 28 29 28 26 24 23 22 27 28 28 25 21 16 16 15 14 12 11 11 10 8 10 9 9 9 7 7 10 9
7 9 10 9 14 14 10 16 10 7 10 13 17 20 20 13 8 12 22 23 22 25 27 26 25 25 23 22 26 27 26 25 21 19 18 17 14 14 13 14 12 10 10 10 8 8 9 10 9
6 11 10 8 5 14 10 8 7 9 8 10 15 18 21 23 17 6 8 10 17 20 21 24 25 24 23 22 23 25 25 26 23 22 21 20 18 16 17 17 15 13 13 12 12 12 10 10 11
3 5 9 11 12 6 6 7 6 11 8 10 15 18 20 22 21 20 15 6 12 15 18 20 20 23 23 21 23 24 26 24 23 24 23 21 21 20 18 18 16 15 15 15 14 13 11 11 10

GFSSGP_850_spd_087.txt.gz
Wind_Speed
7 7 5 7 4 4 2 6 6 14 10 12 11 12 16 24 11 9 31 25 25 20 19 17 16 16 15 14 13 11 11 9 9 8 9 10 9 9 11 11 11 12 13 15 17 17 17 17 17
5 7 4 2 5 3 3 12 11 9 17 18 13 14 17 15 12 33 29 26 23 21 18 15 15 13 13 12 11 11 11 10 10 10 11 10 12 12 11 12 13 13 14 15 17 19 19 17 16
9 8 3 3 4 3 6 8 12 19 20 17 16 14 11 11 29 24 29 27 24 20 18 15 15 12 11 10 11 10 10 10 9 10 12 11 11 11 11 12 13 14 14 15 18 19 18 20 18
8 5 8 3 10 12 12 14 19 21 13 12 15 13 12 17 21 27 29 25 23 19 16 15 13 12 10 9 10 9 9 9 9 10 11 11 12 12 13 12 14 14 16 17 17 18 16 19 17
10 6 5 4 14 13 14 16 19 16 13 13 11 16 22 20 22 28 27 24 21 20 13 13 12 11 10 9 7 8 9 9 9 9 10 11 11 13 13 14 15 16 17 17 16 16 14 14 15
3 5 4 6 12 10 12 11 12 19 16 14 22 22 13 18 28 26 24 22 20 17 16 12 14 12 9 8 8 8 9 9 8 9 11 12 12 12 14 14 15 17 17 17 13 16 13 11 11
7 5 1 6 12 13 9 9 9 15 12 9 8 16 18 26 27 25 23 21 18 17 13 10 9 9 9 8 9 9 9 9 9 10 11 12 13 13 12 13 17 17 18 16 15 16 11 12 13
5 4 7 3 7 7 11 6 8 11 11 10 12 11 26 31 28 24 22 21 18 15 12 16 9 9 10 9 10 10 9 9 10 12 14 15 16 17 17 14 18 18 19 17 17 12 13 15 16
7 3 4 5 6 11 18 8 2 4 10 4 4 27 31 31 28 25 23 20 17 13 13 15 11 10 10 9 10 10 11 10 12 15 18 13 14 12 14 14 19 17 18 16 12 12 13 19 22
5 2 7 8 11 13 14 10 9 4 10 11 15 28 31 30 28 25 23 22 19 15 14 14 12 13 11 11 10 9 9 11 11 8 19 12 11 13 13 17 17 17 16 16 16 14 11 7 7
5 4 2 12 14 15 15 14 8 7 8 15 22 32 32 29 26 24 22 20 19 16 14 13 16 10 11 8 12 7 13 10 9 10 10 11 14 16 14 17 16 16 16 9 10 9 10 10 7
5 10 8 7 8 9 11 15 11 6 6 10 20 30 31 28 26 24 22 20 19 16 15 15 13 12 10 11 10 9 10 9 10 11 11 16 11 11 9 11 13 12 8 6 14 8 8 9 12
5 12 3 4 8 13 12 13 14 12 8 12 21 30 30 27 24 21 20 19 18 17 15 13 12 10 12 10 11 10 12 11 9 10 6 10 11 11 11 10 6 10 6 5 8 7 9 10 13
11 9 2 3 8 11 13 15 12 9 12 16 27 32 29 25 23 21 20 18 18 17 16 13 12 11 12 9 13 9 9 11 10 8 11 10 11 12 10 10 8 2 4 10 9 16 7 11 7
3 10 8 7 11 10 17 11 12 13 17 23 27 30 27 24 22 20 19 18 17 17 16 15 13 11 12 10 14 11 9 11 10 9 10 10 9 6 7 8 9 5 5 9 6 12 8 7 7
13 13 11 12 13 8 9 10 18 15 17 25 28 27 24 23 21 20 18 17 17 17 17 16 13 12 12 10 12 11 9 6 11 9 6 6 7 7 9 7 5 6 4 5 3 7 7 5 10
14 14 16 12 8 12 8 17 20 19 20 21 24 25 24 22 21 19 18 17 17 16 17 17 14 14 13 12 9 12 9 10 9 5 6 6 5 8 5 7 4 9 7 0 8 7 9 6 6
18 18 19 10 10 13 13 19 19 20 21 20 24 22 23 23 21 20 19 18 17 16 16 16 15 15 14 12 10 8 8 9 6 7 9 5 3 8 8 7 5 9 5 3 10 6 2 8 3
16 15 13 11 15 10 11 19 19 20 21 22 23 20 19 23 22 20 19 19 18 17 16 16 16 16 15 12 11 10 8 9 6 8 5 6 4 4 9 5 6 8 5 7 6 7 4 3 1
19 19 18 4 10 8 14 17 16 20 17 20 20 22 21 24 24 21 20 19 19 19 18 17 16 16 16 12 11 8 11 8 7 6 6 6 5 5 6 4 5 9 8 5 4 5 4 4 1
18 16 14 11 9 14 13 17 19 10 10 11 19 19 23 24 25 25 21 20 19 19 19 18 18 16 17 13 11 9 5 6 6 8 6 6 6 4 7 10 7 7 9 5 6 6 3 3 0
17 17 19 20 14 12 18 9 18 22 13 16 13 12 18 21 27 26 24 22 20 19 20 18 18 17 17 16 14 11 10 8 9 6 6 6 7 8 4 5 3 6 4 8 5 6 1 3 5
13 9 6 10 16 11 21 9 12 18 16 16 20 19 22 23 26 31 27 25 21 20 20 19 18 18 17 17 13 12 11 7 9 10 9 9 8 7 7 7 6 8 8 10 5 6 6 3 3
4 18 13 12 14 13 14 11 13 15 15 16 13 17 20 24 27 24 28 28 25 23 21 20 19 19 19 17 19 15 10 10 7 8 7 6 7 7 8 8 9 6 4 4 7 7 6 5 6
9 13 11 11 13 11 18 7 8 13 6 9 8 12 17 22 33 28 29 29 29 27 25 22 21 20 19 18 16 16 13 10 6 9 9 11 9 9 11 7 8 6 10 5 8 8 8 8 6
18 21 13 13 14 14 11 11 10 13 11 11 11 5 7 22 24 31 30 30 32 30 27 24 22 21 20 21 20 17 15 11 11 11 10 8 8 7 9 7 8 9 8 8 9 7 8 8 7
18 20 25 15 17 14 13 15 13 13 13 15 8 7 12 6 28 27 26 31 35 33 30 27 25 22 20 20 20 20 18 15 13 13 11 10 10 7 10 8 9 10 8 8 8 7 8 6 10
12 15 19 10 14 16 16 18 13 14 12 8 11 12 15 12 7 15 31 33 29 39 32 28 25 23 20 18 19 19 19 18 19 15 16 13 11 10 17 11 8 8 9 10 8 9 10 10 9
11 12 15 14 15 12 13 9 18 14 11 10 11 13 15 16 14 8 5 19 28 28 32 30 25 23 20 18 18 19 19 19 17 18 16 16 18 15 10 7 15 10 10 10 11 13 7 10 11
11 11 17 11 18 14 5 10 15 14 19 16 13 13 14 15 15 19 16 9 14 16 15 25 25 24 22 19 17 18 18 18 18 18 17 16 16 16 16 14 15 14 14 14 13 12 12 12 11

GFSSGP_850_spd_090.txt.gz
Wind_Speed
7 8 4 2 3 3 2 5 7 12 9 11 30 20 20 21 8 15 32 25 24 21 21 19 17 16 15 14 13 12 10 11 11 12 12 11 11 12 12 12 13 15 17 17 18 17 18 18 22
8 4 3 3 3 3 2 13 13 10 14 23 28 26 21 24 37 36 33 27 25 22 19 19 17 16 15 14 13 12 12 12 12 12 12 13 12 12 12 13 13 15 16 17 19 17 17 19 24
10 4 3 3 1 2 7 11 11 18 18 23 22 22 20 33 33 29 34 28 23 23 18 17 16 14 14 13 12 12 11 12 12 12 12 13 12 13 13 14 14 15 16 18 19 19 19 22 25
2 6 4 3 9 15 12 13 13 20 19 20 16 14 29 23 31 34 32 27 29 20 15 16 15 14 12 12 12 11 11 12 12 12 13 13 13 13 14 15 15 16 17 18 19 19 19 21 25
9 4 3 5 10 15 15 21 20 16 21 10 26 26 25 27 30 30 30 29 24 19 14 16 13 13 13 11 10 10 10 11 12 12 12 12 13 13 14 15 16 16 15 16 15 16 18 20 21
2 5 1 2 7 18 18 20 5 21 25 22 32 30 26 28 28 32 29 25 21 21 17 16 15 14 12 11 11 10 10 11 11 12 12 12 13 13 14 15 17 16 16 16 15 16 16 18 17
11 7 4 8 11 14 11 20 8 15 26 21 24 23 28 27 25 30 27 20 25 21 16 16 15 12 12 11 11 10 10 11 11 12 12 12 13 13 15 17 16 15 13 16 17 18 16 16 18
9 4 4 2 9 5 8 10 9 17 4 12 24 19 27 29 25 29 26 22 24 19 19 15 12 15 10 12 11 11 11 12 14 15 16 16 15 16 15 17 15 19 19 18 18 19 16 18 24
4 3 4 7 9 12 12 9 5 5 1 3 8 31 32 29 27 28 26 20 20 16 21 19 17 14 7 13 14 13 14 15 17 14 12 15 15 13 16 15 15 17 19 16 15 19 24 23 20
3 3 10 11 14 15 17 14 11 5 7 10 33 33 31 28 28 30 22 21 18 19 20 19 13 14 19 13 18 14 20 16 10 9 20 16 13 8 13 16 18 19 19 14 12 18 16 16 18
9 3 7 17 18 20 18 15 8 15 6 26 35 36 31 27 25 26 22 22 18 22 19 18 15 17 17 8 16 17 17 16 9 9 13 10 13 17 16 16 14 18 21 12 10 13 15 13 6
5 19 5 15 21 18 16 18 11 6 3 24 31 32 30 26 24 25 26 24 28 14 22 13 16 14 10 14 12 17 18 8 15 12 16 13 10 16 11 14 7 4 10 3 3 13 16 15 14
2 3 17 13 20 18 17 17 13 13 7 13 30 30 28 24 22 22 24 24 21 23 16 18 13 17 13 10 19 12 15 10 13 10 9 14 10 11 14 14 9 2 7 12 16 13 13 14 10
5 18 11 19 21 20 17 18 15 15 14 19 29 29 27 24 23 21 24 24 18 20 22 16 12 15 12 12 14 14 15 10 13 8 9 8 10 11 12 10 5 8 11 6 11 11 16 11 11
31 22 10 9 26 16 26 11 13 15 14 22 29 28 25 23 23 20 23 20 17 18 19 17 10 15 7 16 17 11 13 14 11 10 6 7 8 12 13 9 6 9 8 8 15 11 8 14 9
13 12 6 10 20 21 13 10 15 14 19 24 29 28 26 23 23 21 18 18 18 18 17 15 14 13 7 19 15 9 16 14 7 8 11 9 9 9 6 9 10 9 4 6 8 7 12 8 15
12 13 16 14 19 24 8 17 17 13 20 27 29 28 26 22 22 18 19 19 20 17 17 16 16 15 12 13 9 10 7 13 11 10 5 4 5 7 8 7 9 9 6 8 8 10 7 4 5
17 20 13 12 17 21 11 17 19 22 26 24 24 25 24 23 22 20 19 19 19 21 17 16 15 18 13 14 12 11 7 9 9 8 9 5 2 4 5 6 5 15 6 7 8 7 12 7 2
19 18 16 2 13 14 18 22 18 24 22 22 20 19 22 22 22 21 20 20 20 19 19 18 18 18 15 14 12 14 11 11 8 7 7 7 3 7 8 4 7 5 5 8 7 7 2 5 4
23 16 18 13 8 10 21 17 21 24 23 23 22 23 18 23 23 23 23 22 22 21 21 21 18 20 18 14 13 8 11 10 8 7 7 6 4 5 2 9 6 9 6 7 9 3 4 2 6
22 18 16 7 8 11 13 15 20 20 25 30 24 23 24 24 22 25 23 24 23 23 23 23 21 19 22 15 12 11 17 12 8 8 8 7 5 4 6 6 9 7 8 4 7 6 2 6 3
19 12 13 12 16 13 24 9 19 22 17 21 25 23 26 26 19 28 25 22 24 26 23 23 23 20 25 21 16 9 7 9 10 9 12 8 6 6 4 7 7 7 6 10 6 2 8 5 3
16 17 24 25 15 15 17 8 3 13 17 17 24 24 29 30 21 30 28 28 23 27 24 25 25 22 22 24 20 16 13 11 16 14 8 10 8 9 8 7 8 6 7 9 9 9 8 4 4
22 14 13 15 10 13 13 11 13 6 9 16 22 21 26 26 27 30 30 31 25 27 27 25 24 24 22 24 22 18 10 9 3 15 12 9 7 8 12 11 9 9 9 7 10 8 10 5 5
20 13 10 10 10 12 20 15 9 16 6 33 22 26 23 23 24 32 34 33 32 31 31 26 23 22 23 20 21 16 14 9 12 11 10 14 11 9 8 3 7 10 9 6 10 9 12 12 8
16 19 12 16 13 13 16 10 10 14 32 6 16 10 8 25 28 32 36 37 35 31 35 30 24 22 22 20 19 18 16 13 11 11 10 13 3 16 13 7 5 8 7 10 10 7 11 5 10
16 17 17 16 18 15 9 19 20 17 13 11 10 12 11 34 44 34 35 38 35 33 35 35 25 23 23 23 21 19 16 12 10 10 12 11 7 2 7 5 5 7 7 6 7 10 7 9 8
16 12 17 15 15 14 14 19 17 18 11 6 8 14 16 22 16 14 10 25 34 34 31 29 31 24 22 22 22 22 19 16 17 13 11 10 6 12 14 12 10 7 8 9 9 8 6 8 10
10 12 14 17 14 11 7 6 18 19 13 9 10 12 11 18 24 18 11 10 21 18 34 20 10 25 23 22 23 20 19 18 20 22 20 18 15 7 8 9 15 11 8 10 8 10 9 13 8
21 14 16 12 17 6 6 3 6 16 16 14 13 16 17 21 24 21 17 17 16 12 14 26 26 17 23 22 24 24 21 18 17 19 20 15 17 21 17 9 9 13 12 13 12 8 9 9 8

GFSSGP_850_spd_093.txt.gz
Wind_Speed
7 11 8 2 1 2 3 5 3 1 18 31 20 20 11 9 6 10 30 21 26 24 22 20 18 16 15 14 14 12 12 13 13 13 12 13 15 15 15 16 18 18 18 20 21 22 24 26 28
12 7 1 3 1 1 3 3 5 16 27 33 38 35 32 18 36 34 35 22 26 24 22 20 18 17 15 14 13 12 13 12 12 13 14 15 15 14 16 17 17 17 19 19 19 24 25 25 24
8 6 5 2 2 3 6 5 6 20 28 28 20 25 13 28 37 32 31 26 28 25 22 20 18 16 14 14 14 13 12 13 13 14 14 14 14 15 16 17 17 18 21 21 21 23 24 25 22
5 3 0 2 2 4 4 9 20 26 34 38 33 16 30 37 33 33 29 29 25 22 20 19 17 15 15 13 13 12 12 13 13 14 14 15 15 16 16 16 16 18 20 22 22 23 25 22 22
3 1 2 4 7 8 14 12 28 16 23 28 39 30 36 34 34 34 37 29 22 20 19 18 15 14 14 13 12 12 12 13 13 13 14 15 15 16 16 17 17 17 18 19 19 22 23 22 20
4 3 2 3 7 9 10 19 28 25 28 30 36 34 28 38 42 38 31 26 19 18 18 17 16 14 13 12 13 13 13 13 13 13 14 15 15 16 16 16 16 17 15 16 17 20 21 22 25
5 3 5 8 10 14 5 19 11 22 25 19 38 26 36 36 39 33 24 21 18 15 17 17 16 14 13 13 13 13 14 15 14 15 15 15 15 16 15 15 17 19 17 17 20 22 21 21 20
8 1 3 3 9 7 3 5 10 15 10 30 35 15 23 41 34 32 27 25 20 20 16 16 14 12 13 14 14 15 16 15 16 17 16 14 17 16 16 16 14 18 17 17 21 23 24 24 20
13 3 2 9 9 8 17 7 15 11 7 25 15 30 35 34 37 31 32 29 20 19 18 17 14 14 14 14 15 19 18 17 17 19 19 20 18 18 17 18 19 18 19 23 18 22 24 22 18
3 3 3 9 14 16 14 8 11 6 6 10 33 28 36 41 36 31 33 28 24 23 16 13 14 20 17 18 20 22 21 19 21 19 16 17 16 16 17 21 15 14 16 14 19 18 19 19 16
7 4 6 17 28 24 15 10 5 10 2 34 36 35 31 43 38 29 24 25 25 23 18 17 18 16 16 17 22 20 18 18 16 16 16 15 15 17 18 18 13 15 16 16 17 12 16 13 16
3 20 9 23 27 24 17 19 11 15 11 26 38 35 35 39 38 27 29 31 27 23 19 18 16 17 9 13 22 19 17 16 15 16 18 18 20 21 18 13 11 7 7 10 17 14 17 13 13
15 9 8 23 26 23 22 15 13 19 19 23 36 28 30 35 32 32 26 29 24 20 20 22 16 15 9 15 19 15 15 16 18 17 14 11 17 15 13 15 3 10 12 11 13 15 15 11 11
3 2 13 21 24 27 20 19 12 26 26 22 33 27 28 27 33 35 29 28 24 28 23 21 21 17 18 17 15 13 16 16 15 17 14 13 16 14 14 9 7 13 13 13 11 13 12 13 10
5 7 7 19 25 18 26 13 13 27 20 31 31 29 25 25 33 35 34 29 30 29 26 19 17 19 20 20 17 15 14 16 16 13 13 14 14 13 8 9 10 10 15 11 8 12 12 11 13
7 6 5 14 19 18 8 9 14 23 24 29 29 28 26 25 31 34 30 27 29 28 20 16 16 20 21 19 18 13 15 15 11 12 12 14 14 15 12 8 6 8 12 10 11 15 9 11 11
7 6 15 14 12 17 5 10 15 18 26 24 29 28 25 32 26 24 25 28 29 24 16 16 20 14 21 17 16 20 12 9 10 12 10 9 11 11 16 12 10 9 7 11 9 10 10 9 10
6 8 2 8 2 10 3 12 10 14 24 26 29 30 25 34 30 32 32 28 22 20 18 16 15 18 17 19 16 14 11 15 9 7 9 7 8 9 10 12 12 9 10 12 10 8 7 8 3
12 11 7 7 8 6 9 17 14 15 19 24 27 28 27 33 30 25 26 28 25 21 23 18 17 17 17 16 19 14 12 13 8 9 7 8 5 8 17 11 14 11 10 9 7 6 4 6 3
18 13 10 6 4 8 16 15 12 15 15 25 24 25 30 32 31 27 29 29 28 24 24 20 19 18 18 16 14 14 15 13 10 8 6 7 4 6 8 11 13 10 13 12 10 8 8 5 6
15 9 15 10 10 11 6 5 9 13 15 12 13 18 28 29 34 31 30 29 27 24 23 23 20 18 18 18 13 13 12 15 11 12 9 4 7 6 8 10 9 11 11 11 9 7 5 7 8
8 9 11 21 9 5 6 2 5 13 11 11 16 14 22 28 28 33 32 34 30 26 21 26 22 18 21 16 13 11 4 15 11 10 11 7 7 7 5 8 12 10 10 11 11 7 7 8 5
11 10 15 22 17 8 12 6 3 3 14 12 19 21 24 26 25 31 31 33 30 27 24 22 25 22 25 20 12 13 9 11 10 12 12 8 10 8 5 9 9 10 12 13 12 8 9 8 4
10 7 7 3 4 1 9 8 5 8 11 8 22 24 22 27 25 19 30 29 29 30 27 23 24 24 27 25 19 15 12 9 10 16 13 12 8 8 10 9 6 9 10 12 11 10 9 7 3
6 2 3 1 3 6 10 10 3 13 14 16 6 14 25 30 30 21 34 32 24 32 29 23 23 23 23 29 23 20 17 12 12 15 13 10 8 7 13 11 11 7 11 8 14 10 11 11 8
7 6 5 7 5 7 6 6 5 8 14 17 8 17 17 17 26 23 35 34 31 32 29 22 23 23 23 29 26 20 20 13 11 11 10 10 9 10 9 9 8 9 13 8 10 9 12 13 12
8 8 9 4 7 3 5 5 7 5 7 12 12 14 5 9 21 26 19 32 34 31 33 26 23 22 21 23 24 23 18 14 12 9 10 8 10 7 15 14 10 10 8 10 10 9 11 13 11
2 4 5 1 4 4 4 3 7 10 12 12 11 20 14 10 16 18 22 20 25 22 36 32 25 26 23 21 22 21 19 17 16 17 14 13 8 8 11 12 7 10 8 7 7 8 10 10 9
2 4 1 1 1 4 5 1 8 9 10 12 17 20 24 19 19 19 19 17 16 19 23 32 28 26 24 22 22 22 21 20 19 18 18 18 14 8 13 9 10 9 10 6 4 7 9 10 6
6 6 4 4 5 3 5 1 1 14 16 21 18 22 26 19 19 18 15 14 10 13 18 27 20 15 17 20 23 22 22 21 22 21 20 21 19 18 16 11 8 13 10 9 9 8 9 8 9

GFSSGP_850_spd_096.txt.gz
Wind_Speed
6 9 6 2 2 1 4 3 4 5 8 13 30 6 8 12 3 4 31 26 25 23 22 19 17 16 15 14 14 14 15 14 14 14 15 16 16 16 16 18 18 18 19 20 23 25 26 26 27
11 6 5 1 1 3 3 5 12 13 23 34 22 20 11 6 15 30 30 27 25 25 23 20 18 16 15 14 14 14 14 14 14 15 16 16 15 17 17 17 18 18 20 19 23 25 22 23 21
9 2 0 1 1 4 4 10 13 20 21 16 11 17 8 12 29 35 31 31 26 24 22 20 18 16 15 15 14 14 14 15 15 16 16 16 16 17 17 17 19 18 19 20 22 21 21 20 18
7 3 2 2 3 5 6 14 20 22 25 26 24 13 18 18 22 31 31 29 27 24 22 20 17 16 15 15 14 13 15 15 15 15 15 17 18 17 18 19 21 20 20 20 21 22 20 19 17
5 2 1 3 4 4 6 23 26 13 12 21 35 14 18 21 28 31 31 28 26 24 20 18 16 15 15 14 14 14 15 16 15 14 15 16 16 17 18 20 22 20 20 20 21 20 17 19 18
2 2 1 3 4 6 7 13 27 26 24 26 33 25 14 32 31 30 31 25 20 22 19 17 15 14 14 14 15 15 15 15 15 15 15 15 16 17 18 19 21 18 17 19 20 19 16 18 17
2 1 2 6 8 13 7 12 19 29 30 15 31 17 27 37 32 30 27 22 20 17 16 15 15 13 15 15 15 15 15 15 16 16 15 16 17 18 17 18 19 18 16 17 20 19 18 17 16
3 2 2 3 6 5 3 2 7 19 20 27 35 11 27 37 33 29 24 19 20 16 15 14 14 14 16 16 16 16 16 16 16 16 16 16 18 17 18 20 21 17 17 18 20 22 17 15 13
8 2 5 8 11 7 10 8 20 15 28 26 8 31 37 43 35 30 26 22 21 19 16 16 16 15 16 17 17 18 19 20 21 20 18 17 19 19 19 22 21 21 20 19 20 20 19 15 12
5 4 4 17 16 12 14 8 15 8 17 12 32 31 41 38 35 33 28 26 22 21 18 15 17 16 16 17 19 20 19 21 18 19 19 19 19 19 19 21 21 16 17 20 22 20 18 16 15
3 2 10 9 18 29 20 13 10 13 7 27 34 40 40 39 38 32 29 24 22 19 21 22 21 18 19 22 23 20 23 18 15 16 19 19 19 18 19 18 19 20 18 21 17 13 12 11 7
4 8 5 11 21 23 17 13 12 22 19 34 38 44 40 41 40 35 31 25 25 21 22 20 19 18 18 19 20 22 19 18 17 16 16 16 17 16 16 16 19 17 12 13 16 17 14 9 9
7 8 11 17 17 19 20 14 7 15 31 26 37 37 39 38 38 33 28 25 25 25 23 19 17 14 17 19 20 19 20 17 15 13 13 12 15 12 9 9 10 8 16 16 13 13 12 11 8
11 7 15 14 16 17 14 10 15 12 26 35 32 39 36 33 37 36 31 30 27 25 25 19 15 11 17 15 16 17 18 15 12 10 12 11 9 8 9 7 15 13 19 18 16 13 13 10 11
16 7 11 18 17 15 22 5 11 24 23 30 29 34 38 31 35 34 32 31 25 26 25 23 18 16 17 17 17 19 19 18 16 10 11 8 8 10 10 12 13 15 15 17 14 13 13 10 10
5 5 5 11 16 18 7 6 17 27 16 25 26 28 30 29 34 31 33 30 29 29 24 25 19 19 20 16 15 18 18 14 12 9 8 7 6 8 9 8 14 12 15 13 14 12 9 10 7
1 3 4 14 7 11 2 7 18 24 19 27 25 25 20 41 39 29 34 30 28 28 22 22 20 22 19 15 14 14 16 12 10 10 9 8 7 5 7 4 8 9 10 13 11 7 9 8 7
3 4 2 9 3 8 1 7 15 23 17 25 22 24 29 39 38 31 34 31 29 26 19 17 23 22 20 16 18 18 18 12 12 13 8 8 11 8 6 6 6 5 8 9 10 7 5 6 3
5 4 7 5 2 7 9 7 13 14 18 18 21 22 28 34 40 35 36 34 31 25 19 18 18 22 20 20 20 16 14 14 11 8 7 8 9 11 13 10 10 8 8 8 9 8 5 3 3
4 1 7 12 10 5 4 6 8 4 12 20 25 21 25 30 36 37 39 35 31 26 21 20 16 19 18 17 16 14 13 14 11 11 8 8 9 8 15 11 16 10 12 12 10 6 7 7 4
7 5 8 10 11 4 12 3 2 11 8 18 21 20 29 33 38 38 38 36 31 26 22 20 18 15 19 19 18 15 14 12 12 12 10 7 7 8 9 11 14 9 11 11 10 7 5 5 6
7 8 11 24 10 5 2 4 4 6 11 13 15 15 31 38 38 39 39 37 31 27 23 24 22 17 18 19 16 15 12 12 11 10 11 9 7 8 8 10 11 12 10 12 11 8 7 7 4
11 8 13 21 5 10 6 5 3 6 12 16 11 16 21 33 36 38 40 34 31 28 23 21 25 21 19 24 17 12 12 15 11 11 12 11 9 7 6 10 12 10 12 11 15 10 6 6 5
12 4 6 6 4 1 9 5 4 8 17 15 15 16 19 22 31 32 37 34 33 29 25 22 23 24 23 24 18 15 13 10 13 13 11 11 11 8 7 8 8 9 11 14 12 10 9 8 4
4 7 2 0 1 6 14 4 6 14 21 25 20 25 23 23 20 22 25 35 35 33 29 25 22 23 24 27 22 18 14 12 10 11 11 9 11 10 11 9 7 7 12 13 14 13 10 9 6
4 8 6 5 4 2 12 4 4 4 11 16 16 18 17 25 26 29 22 33 39 34 32 27 23 22 25 30 26 19 15 13 10 10 16 10 10 7 10 8 6 8 11 10 14 14 13 12 10
3 2 6 6 3 4 3 2 7 8 5 6 5 7 12 17 24 29 25 32 34 34 33 30 23 20 24 27 30 24 21 16 12 15 13 11 11 8 11 12 9 10 11 13 10 12 14 16 16
8 4 4 3 4 2 3 5 3 5 6 10 8 7 4 7 14 20 20 31 29 30 35 33 27 23 23 23 29 26 22 16 17 15 15 13 11 10 10 18 13 10 13 11 10 10 12 15 17
4 3 5 4 4 6 4 2 4 11 11 10 10 9 10 4 5 13 18 23 26 26 33 32 26 24 22 24 23 23 23 19 16 20 17 14 14 12 11 10 12 11 10 11 10 10 10 10 9
5 6 5 4 2 3 4 2 10 14 18 14 9 10 11 11 10 14 16 19 24 21 19 24 22 24 25 26 26 24 21 20 18 18 19 16 16 14 10 12 10 9 11 11 10 8 9 12 9

GFSSGP_850_spd_099.txt.gz
Wind_Speed
10 8 3 2 1 1 2 1 2 7 13 12 29 8 3 10 2 3 26 25 25 22 22 18 16 15 14 12 11 11 11 12 12 12 14 15 13 14 16 17 17 17 16 19 18 20 21 21 21
13 7 2 1 1 2 0 1 5 6 13 26 17 18 5 3 6 24 30 26 23 23 21 18 17 16 13 12 13 12 11 12 12 14 13 13 15 15 15 16 17 16 19 20 21 21 22 21 19
9 3 1 0 1 3 3 2 13 19 28 29 7 12 5 4 21 37 31 28 23 23 20 18 16 16 14 13 12 12 12 12 12 14 13 13 14 15 15 17 17 16 19 19 18 18 17 17 15
6 2 2 1 3 3 3 7 15 10 15 9 20 11 10 15 24 28 32 26 25 22 19 17 15 14 14 14 12 13 12 13 13 13 14 15 15 15 17 17 16 17 19 18 17 17 15 15 15
6 1 1 1 4 5 2 12 14 5 6 13 9 8 12 14 22 33 30 26 23 21 18 15 14 13 13 13 13 13 13 13 12 13 15 14 14 17 20 19 17 17 18 17 16 16 17 15 14
1 2 1 4 6 3 4 11 11 13 18 17 18 17 7 19 31 30 27 24 20 20 17 15 14 13 12 12 13 13 13 12 13 13 15 15 15 17 20 18 17 15 17 18 14 13 14 15 13
1 2 1 1 3 8 2 15 9 18 17 10 19 7 17 28 29 29 26 22 20 17 16 14 13 12 12 12 12 12 12 13 13 13 14 16 16 18 19 16 15 16 18 17 15 15 15 14 12
3 1 2 2 4 5 3 6 15 14 12 25 21 5 16 32 32 29 25 22 20 16 13 13 13 13 14 12 12 12 12 12 13 13 15 16 18 18 19 16 14 15 15 16 16 16 12 11 11
6 1 4 11 8 9 4 7 11 11 31 12 4 25 34 34 34 27 25 22 18 16 14 13 14 14 13 14 14 13 13 13 13 14 16 17 17 19 19 16 15 15 16 16 15 13 11 10 9
4 1 6 2 2 13 8 12 13 13 19 22 31 25 33 33 30 25 24 23 20 18 17 16 15 14 14 15 16 16 16 15 16 17 18 15 18 18 20 19 17 18 17 17 17 13 9 7 5
5 2 4 5 18 16 15 7 10 21 9 32 33 36 35 33 29 26 23 23 22 19 17 17 15 14 15 18 16 18 16 14 15 17 18 16 17 20 17 13 13 19 18 16 15 11 8 4 2
3 1 1 7 20 15 11 16 10 15 5 33 34 39 37 35 33 30 26 24 24 24 23 20 17 15 19 17 18 16 15 13 13 15 16 14 16 16 15 14 16 22 15 15 10 10 9 4 2
1 3 2 2 12 18 14 11 8 23 14 34 36 39 38 35 32 29 26 23 26 27 23 20 18 17 17 16 17 16 16 14 13 13 13 15 15 13 12 12 11 8 14 15 15 12 10 6 10
11 12 1 2 10 16 8 9 11 16 22 34 36 35 38 35 33 29 28 26 25 25 24 21 19 18 18 15 14 16 14 13 11 10 11 10 7 7 6 7 8 13 15 12 11 10 8 10 11
9 5 2 5 11 4 19 4 6 21 28 34 33 33 34 34 33 32 29 26 25 23 22 19 17 16 16 14 15 14 11 11 11 7 8 8 9 8 6 7 10 14 13 11 10 10 7 6 6
7 3 4 5 8 7 1 5 15 22 27 31 31 30 29 33 35 31 29 26 26 23 21 18 17 15 16 16 17 14 13 10 9 7 6 7 7 8 8 8 12 10 11 11 9 8 6 5 3
4 3 4 7 9 7 3 6 22 21 23 27 30 30 29 29 31 33 29 25 24 22 21 21 18 17 18 15 15 14 10 9 8 5 4 6 7 6 8 7 10 10 12 12 9 7 6 5 3
3 2 2 7 6 13 3 4 18 16 20 21 22 30 25 30 33 33 30 26 24 23 23 21 20 18 16 14 14 14 10 9 8 4 2 3 4 5 4 7 9 10 10 10 7 6 3 2 1
4 2 6 5 4 4 2 9 16 14 19 27 16 26 32 37 36 30 32 29 26 24 23 23 20 20 17 15 17 16 15 10 8 8 5 4 6 5 5 4 5 7 6 7 5 3 2 0 1
5 3 4 7 8 3 5 9 13 11 17 24 15 26 30 29 32 35 35 33 28 26 21 22 20 22 18 15 15 14 12 12 11 8 6 5 5 7 5 5 5 3 5 4 3 1 1 2 1
3 4 6 5 7 4 7 1 10 8 11 13 16 25 31 32 36 38 36 34 32 27 26 25 18 16 20 17 16 14 11 12 10 10 8 6 5 5 9 7 9 8 7 6 5 2 2 1 2
1 6 8 15 7 4 4 3 3 3 4 25 22 23 31 32 40 40 38 36 35 30 27 24 20 15 17 20 18 15 13 11 11 8 10 8 7 5 5 9 11 8 7 7 6 4 2 2 3
7 7 11 14 4 6 3 3 2 4 5 8 24 18 32 36 43 42 42 37 35 30 28 24 22 18 16 21 18 16 14 12 12 10 11 10 8 7 7 9 11 10 7 8 8 7 4 2 2
3 6 11 5 3 0 7 4 3 6 11 10 15 17 19 28 33 44 41 39 37 31 29 25 24 21 18 22 21 17 13 11 15 12 13 11 9 8 7 7 7 10 7 9 9 9 8 3 1
4 7 2 3 1 5 8 4 3 6 6 18 17 24 24 32 32 31 37 43 40 37 32 28 25 24 22 21 24 19 14 10 11 13 13 11 10 10 9 8 8 7 7 11 11 11 11 6 4
7 10 5 5 4 1 4 4 1 6 15 19 22 21 26 29 36 31 40 42 41 38 34 31 27 24 22 23 24 22 16 14 11 12 12 10 9 6 7 6 7 8 9 10 12 13 12 11 9
4 4 6 6 3 4 2 3 2 3 7 13 15 15 16 20 32 27 36 38 37 40 37 33 29 25 23 24 24 23 18 15 11 9 12 12 9 9 8 7 5 5 9 12 11 11 14 14 13
8 7 4 3 5 3 1 0 3 2 8 10 10 13 7 10 18 19 27 37 31 39 40 37 26 29 23 23 24 25 21 16 13 11 11 12 12 12 9 10 11 8 8 11 12 11 11 13 14
3 2 6 5 4 5 4 3 3 5 7 9 11 11 6 3 5 12 18 28 35 35 38 36 31 24 27 22 24 24 25 20 16 16 16 16 13 12 10 11 12 12 9 10 11 10 11 11 10
2 7 5 5 2 3 4 2 4 10 11 14 11 13 12 7 5 11 17 20 29 36 31 32 30 24 23 22 22 21 24 23 21 18 18 18 16 15 11 11 11 11 11 10 10 11 10 10 11

GFSSGP_850_spd_102.txt.gz
Wind_Speed
9 8 3 1 1 0 2 3 3 10 6 8 23 5 3 6 1 3 24 22 21 19 17 15 14 12 9 9 9 9 10 11 10 10 11 12 12 13 14 15 15 15 19 16 20 19 18 18 18
10 6 2 2 2 1 1 3 6 9 15 22 12 13 6 4 4 21 26 24 20 20 18 15 12 10 9 8 9 9 10 10 10 12 12 11 12 13 14 15 14 18 18 18 19 18 18 18 17
8 3 1 1 1 1 1 1 6 12 21 26 5 10 5 4 13 30 26 25 21 19 16 14 13 10 9 9 8 8 9 9 12 11 11 13 13 13 13 15 16 16 18 19 20 17 14 13 14
3 1 2 2 2 3 2 4 23 20 23 10 15 8 7 8 27 20 29 23 20 18 16 14 13 11 10 8 8 9 8 10 10 11 13 13 14 14 14 14 15 17 16 17 16 15 16 15 14
4 0 1 1 0 4 3 6 14 12 8 11 6 6 13 12 13 30 26 22 21 20 16 13 12 11 10 9 9 9 9 9 9 11 13 13 15 16 15 14 16 17 16 16 14 14 14 15 14
0 0 0 3 3 3 2 3 7 10 13 15 15 16 7 7 28 27 25 23 19 18 15 13 11 11 9 9 9 9 10 9 10 12 12 14 15 15 16 14 15 15 15 16 15 14 14 15 14
2 0 1 2 7 4 2 7 5 10 15 8 22 6 13 23 27 26 24 21 18 15 13 12 11 10 10 10 9 9 9 10 11 12 11 14 15 15 13 14 13 15 13 13 14 14 15 14 13
1 2 2 2 5 2 4 4 16 10 6 15 24 7 13 32 27 25 23 20 17 15 12 12 11 11 10 10 9 8 9 9 11 11 14 15 15 14 13 12 12 12 12 12 14 12 12 13 13
2 2 1 2 13 6 4 4 5 9 15 8 3 25 33 34 29 26 23 20 17 15 13 11 11 11 10 11 10 10 10 11 12 13 14 14 14 14 12 11 10 11 12 11 11 11 11 11 11
2 1 2 6 5 7 2 9 10 9 13 22 30 26 33 32 29 26 23 21 18 16 15 12 11 11 11 12 13 12 11 12 14 15 15 14 17 16 11 12 12 11 10 10 9 9 9 10 11
4 2 3 4 7 19 14 4 6 18 7 27 36 34 33 31 26 22 20 18 16 16 15 14 13 12 13 15 14 15 14 14 15 16 16 15 15 15 13 13 13 13 12 10 8 7 7 8 11
2 4 6 10 15 14 15 13 16 10 7 36 38 37 34 30 26 23 21 19 18 16 15 14 14 15 16 15 16 15 13 15 15 15 15 17 17 14 9 12 14 13 13 11 6 4 4 6 7
2 5 4 2 20 13 14 17 15 5 20 33 35 34 32 29 25 23 21 18 19 18 17 15 16 19 16 18 16 15 15 15 14 12 13 15 14 12 11 14 12 8 11 7 5 4 5 7 9
4 4 3 7 14 17 13 17 16 14 17 28 34 33 32 29 26 24 23 23 23 21 18 16 17 17 15 16 16 15 15 14 14 14 15 14 13 9 7 7 4 8 8 8 7 7 7 10 9
6 6 1 9 13 7 15 10 9 26 14 28 33 31 31 29 28 25 23 24 24 21 18 18 18 16 14 14 14 14 13 12 12 13 11 9 9 7 8 7 8 10 8 6 5 5 5 7 9
5 4 3 3 5 11 13 4 19 35 26 26 28 28 30 30 29 25 23 22 24 21 18 17 17 15 13 14 15 13 12 10 10 9 8 9 9 8 8 9 10 8 6 8 5 3 3 7 7
4 3 2 2 2 2 3 5 19 32 28 25 25 26 28 28 26 27 24 22 23 21 18 16 15 13 14 14 14 13 11 9 8 7 7 7 8 8 9 9 9 6 7 6 6 3 3 4 5
4 2 3 5 1 6 5 3 16 22 27 27 24 25 25 30 28 27 26 24 22 19 18 15 15 14 15 13 13 12 10 8 8 7 6 4 7 7 5 7 8 7 10 7 7 6 3 3 4
4 4 6 4 6 6 5 7 17 15 24 20 23 25 26 28 27 27 27 22 24 21 18 17 15 17 14 13 14 13 10 9 8 7 5 4 5 4 6 7 7 9 9 7 6 4 3 3 4
1 7 5 9 7 3 7 4 13 10 19 30 14 26 28 29 31 28 26 26 26 23 20 20 18 15 13 11 12 13 12 8 8 6 5 3 4 6 5 6 8 7 8 6 6 3 3 4 6
3 4 5 6 8 3 1 4 10 7 16 29 20 17 32 34 34 32 34 29 28 25 21 22 19 16 15 12 13 12 11 9 11 8 6 5 3 4 6 6 7 6 5 5 2 2 3 5 7
5 10 9 17 7 4 7 4 8 14 7 10 22 23 25 36 33 37 33 32 31 27 23 21 21 17 18 15 14 12 9 8 10 6 7 6 6 5 7 7 6 7 6 4 4 2 1 4 7
4 6 9 10 3 4 3 2 2 11 13 14 33 20 28 35 36 39 37 34 33 29 26 24 23 19 20 17 16 14 11 9 8 7 7 8 7 7 7 7 8 8 7 5 5 4 2 2 5
7 9 10 4 3 1 7 4 4 9 20 15 25 32 26 33 36 38 38 34 35 31 28 26 26 22 19 17 18 16 13 10 11 10 8 7 8 8 8 8 8 9 8 6 6 7 5 2 2
2 5 3 3 0 5 2 4 5 3 6 22 25 35 33 37 36 40 38 37 37 35 31 29 27 26 22 18 18 17 14 11 10 10 8 9 8 8 7 7 6 9 7 7 8 8 7 7 4
8 8 6 5 5 2 3 4 4 3 9 18 24 27 30 37 37 38 38 36 38 38 34 31 29 27 25 21 19 19 17 10 6 7 10 9 6 5 6 7 7 7 7 6 8 9 9 9 9
5 3 6 7 3 4 2 3 4 5 5 15 21 25 26 34 36 39 37 38 37 37 36 33 32 30 24 23 20 19 19 14 10 9 9 12 8 7 7 8 7 6 6 7 8 9 11 11 11
6 6 3 3 5 3 2 3 3 2 7 8 11 16 14 22 27 30 31 30 33 36 34 33 34 30 27 23 20 19 18 15 11 9 5 9 10 9 9 9 9 7 5 8 10 11 9 11 12
2 1 5 5 4 6 4 5 3 6 10 8 11 14 17 17 21 27 31 31 30 29 31 32 35 30 22 29 23 19 20 19 14 12 9 9 10 9 11 9 8 9 9 7 9 9 11 12 11
2 5 6 5 4 1 3 4 1 8 13 17 12 13 13 15 17 22 23 25 31 36 35 28 29 31 26 26 24 20 20 20 19 17 12 12 12 11 13 11 9 7 8 9 8 9 9 9 8

GFSSGP_850_spd_105.txt.gz
Wind_Speed
7 6 2 2 1 1 2 5 5 15 13 9 20 6 9 6 1 5 20 19 20 18 16 16 12 10 8 8 8 9 9 9 9 10 10 11 12 12 13 14 15 15 17 18 18 18 18 17 17
8 5 2 0 1 2 3 2 13 14 19 26 8 13 4 4 4 17 21 22 20 19 17 15 11 7 7 7 7 7 8 9 9 10 10 10 12 11 13 14 16 16 17 17 17 18 18 18 16
7 2 1 1 1 2 3 4 14 16 20 19 7 8 4 3 11 19 24 24 21 18 16 13 11 9 8 9 9 8 9 9 10 10 11 12 12 13 13 16 15 16 18 18 16 15 15 16 16
3 2 2 0 3 5 3 9 22 23 24 5 14 9 6 6 16 19 27 23 20 17 15 13 11 9 9 8 8 9 9 11 9 11 12 12 13 14 15 15 16 15 15 15 15 16 15 13 14
2 1 1 3 2 5 10 11 20 19 16 11 5 6 13 9 9 27 24 22 18 17 15 13 10 9 9 9 9 9 10 10 11 13 13 12 13 13 13 15 15 16 15 13 14 15 15 15 14
2 1 1 2 3 2 4 11 18 13 12 14 16 17 8 8 22 23 21 20 17 16 14 12 11 8 8 8 9 9 9 11 12 13 13 14 14 15 13 15 15 16 16 15 14 14 14 15 16
2 1 2 2 7 1 3 5 8 11 13 8 21 10 10 18 25 22 21 20 17 14 13 12 10 9 8 9 9 9 10 11 12 13 14 15 13 14 14 14 14 15 13 14 16 15 14 15 16
3 3 4 1 11 3 2 4 13 13 8 16 19 8 13 22 26 24 21 19 16 13 12 11 10 10 8 9 9 10 11 12 13 15 15 15 13 11 12 13 12 13 13 15 13 14 14 13 14
2 2 3 2 9 5 2 6 5 11 17 6 3 20 23 27 26 24 20 17 14 13 12 10 10 10 9 9 10 11 10 12 13 15 15 15 14 12 11 10 9 11 13 13 12 12 12 13 13
2 1 2 2 3 4 4 11 14 8 14 14 22 21 28 26 25 22 20 16 14 12 12 11 10 10 10 9 10 11 11 12 15 15 15 14 14 11 11 10 11 11 12 11 11 11 11 11 13
3 1 8 4 1 6 7 12 12 16 8 20 33 31 26 25 22 19 18 15 14 12 11 11 11 11 11 12 12 12 13 15 15 14 15 16 14 13 12 12 12 12 12 11 9 9 10 12 14
2 3 7 8 11 7 5 12 10 5 5 21 31 33 27 24 21 18 17 15 14 13 12 12 12 13 13 13 13 13 15 16 15 14 13 14 14 12 11 12 12 12 11 8 7 8 10 9 10
4 3 9 13 15 14 12 9 7 14 20 25 26 27 26 21 18 15 14 15 15 13 13 13 14 14 13 14 14 14 16 16 15 14 16 15 12 11 13 12 10 9 8 6 7 8 9 10 10
6 6 6 16 18 18 17 8 7 6 21 23 25 24 21 20 18 17 17 17 16 15 14 16 18 15 15 15 16 16 15 14 14 15 16 13 12 11 11 9 5 8 6 6 6 8 10 10 9
8 5 7 19 21 14 23 8 3 13 22 23 21 21 20 18 18 17 18 19 19 18 16 18 18 16 15 15 15 15 15 14 15 15 12 10 9 8 8 4 6 8 8 6 6 7 7 9 11
3 1 3 6 16 11 8 10 12 18 18 23 21 21 19 18 18 17 18 20 20 19 18 19 17 16 15 13 13 13 13 14 12 11 11 10 9 9 8 9 10 8 6 5 5 6 6 8 9
3 2 5 6 4 9 4 6 22 26 18 23 23 21 20 19 18 19 18 20 20 19 19 19 17 15 15 15 13 11 11 11 11 10 9 9 9 9 10 10 8 6 7 5 4 4 5 7 8
8 4 6 6 5 6 7 7 23 25 20 22 23 22 22 21 23 21 20 18 19 19 18 17 16 16 16 15 13 11 10 10 10 9 9 7 6 6 7 8 6 6 7 6 6 6 4 5 7
8 5 8 5 4 6 5 11 18 25 24 23 21 23 23 23 21 19 20 21 20 20 18 17 17 17 18 17 15 13 10 9 9 9 8 8 7 5 6 7 5 7 8 7 6 5 4 5 7
8 10 7 10 3 7 8 4 15 22 23 23 23 24 24 22 20 20 24 23 22 21 19 17 18 18 15 15 15 13 10 8 6 6 7 6 7 6 6 7 7 7 7 7 5 3 4 5 7
4 3 8 7 9 11 10 2 9 6 13 12 13 21 23 24 23 22 26 26 24 24 21 19 18 19 15 13 14 14 13 10 9 8 5 5 5 8 8 9 8 8 7 7 5 4 4 6 7
7 7 9 17 7 4 3 2 8 12 10 18 23 14 23 24 24 25 26 28 28 25 22 20 19 18 16 14 13 12 11 8 9 6 6 5 6 6 8 9 9 8 6 7 4 2 4 6 7
1 13 13 15 7 7 9 4 4 14 16 17 26 26 20 26 26 28 28 30 28 26 22 19 20 19 18 16 14 12 9 7 6 6 6 8 7 6 8 8 8 9 6 5 5 4 2 4 6
9 15 12 5 2 3 11 8 6 14 27 21 33 35 29 22 27 31 32 30 30 28 24 22 21 20 18 18 16 14 10 7 8 7 6 6 6 6 9 8 9 9 8 5 6 6 3 2 3
9 14 5 3 3 4 3 9 7 16 10 28 33 32 30 24 26 27 25 31 32 31 28 25 23 21 19 19 16 15 11 9 7 9 8 7 4 6 7 7 8 10 9 7 9 8 6 5 3
13 11 6 7 6 4 6 7 1 4 14 21 34 34 33 25 27 29 28 34 34 33 31 28 26 24 22 19 15 15 13 9 4 8 8 8 7 6 7 6 7 8 7 8 10 9 8 6 7
7 9 7 1 1 5 5 3 3 4 9 18 27 30 34 30 26 28 29 32 36 34 31 30 28 25 24 21 17 14 15 12 8 6 5 8 9 8 8 8 8 7 7 7 8 9 9 9 8
7 9 10 5 8 7 4 3 4 8 9 13 18 27 27 29 26 27 30 30 35 31 31 28 28 27 25 22 20 16 14 14 11 9 7 8 11 9 8 8 7 7 6 6 8 8 8 9 11
6 5 3 6 3 9 6 4 3 8 12 14 15 20 21 22 24 28 30 30 30 27 26 24 27 25 23 20 23 19 17 15 15 12 9 6 10 9 7 8 9 10 12 7 6 8 8 10 9
2 10 13 9 10 1 3 2 3 6 13 16 16 16 16 18 21 23 26 29 26 24 24 21 20 22 23 27 22 25 20 17 18 16 13 11 10 9 8 9 8 9 12 10 6 6 8 8 7

GFSSGP_850_spd_108.txt.gz
Wind_Speed
4 3 2 2 3 3 8 7 14 16 16 9 14 8 10 14 8 7 22 16 18 15 13 13 11 9 8 8 7 7 8 9 10 10 11 12 13 14 15 15 19 18 18 18 18 18 18 17 15
6 3 1 3 3 6 7 10 17 13 16 23 11 12 6 8 9 21 19 20 18 15 13 11 11 7 7 7 6 8 7 8 9 9 11 11 12 13 13 15 17 17 18 17 18 18 16 15 15
6 2 3 3 1 5 8 13 15 19 26 13 8 6 5 6 21 14 19 20 18 16 13 12 10 8 9 8 7 8 7 9 10 9 11 12 12 13 15 16 17 17 17 16 15 16 15 15 16
2 2 2 1 7 6 10 15 22 24 16 7 15 10 9 13 12 17 20 19 16 14 11 12 10 9 10 10 10 9 9 10 11 11 12 12 13 12 13 15 15 16 15 15 14 13 14 15 15
2 3 0 2 10 7 10 18 21 21 11 13 6 9 17 11 16 21 20 17 15 13 11 10 10 9 10 11 11 12 11 11 13 13 13 14 13 13 13 14 14 14 15 15 15 15 15 14 15
2 5 2 3 4 4 10 17 18 19 12 12 17 23 13 14 22 20 18 16 14 13 12 9 10 10 10 11 12 11 12 13 13 14 14 15 14 13 13 14 14 15 15 15 15 16 16 16 15
3 1 2 5 5 7 9 9 14 13 14 9 18 14 12 21 20 19 18 15 14 12 10 10 8 9 10 11 12 12 14 15 14 14 15 17 13 13 13 13 14 14 16 17 16 16 16 16 16
3 3 5 6 9 6 8 8 8 11 9 15 16 9 19 25 21 20 18 15 12 11 8 10 10 10 11 10 11 12 13 15 16 16 16 16 12 12 13 13 12 14 16 16 15 15 15 16 15
3 2 5 6 14 7 12 13 8 6 15 7 6 18 28 25 23 21 18 15 12 10 9 9 8 9 10 11 11 11 13 14 14 14 16 15 11 12 11 11 12 14 13 13 14 14 14 15 15
6 3 1 4 9 8 9 11 14 12 14 14 21 25 28 25 24 20 18 16 13 10 9 9 8 9 11 8 10 13 12 11 12 13 14 13 10 12 10 12 12 13 13 12 13 12 14 14 8
2 2 10 11 9 4 13 13 9 15 12 19 27 33 28 24 21 19 16 14 13 11 9 8 9 10 9 9 10 10 10 11 11 13 12 13 10 10 9 10 10 10 12 7 8 7 8 8 9
2 1 9 9 5 6 6 13 10 6 11 16 26 31 30 24 21 18 16 14 14 12 10 10 10 10 10 11 10 11 12 12 10 11 13 12 10 10 9 10 11 11 7 8 7 6 8 7 9
3 4 9 11 10 8 6 8 5 9 14 23 27 26 25 22 18 16 15 14 13 13 11 10 10 10 11 12 11 12 13 12 10 11 12 10 8 9 9 11 9 9 6 5 6 7 7 7 8
3 9 11 13 14 14 13 9 3 9 21 28 27 24 23 20 18 16 15 15 14 13 13 12 11 11 11 11 12 12 12 11 11 11 11 11 8 10 9 9 6 6 6 5 6 7 7 7 5
7 6 13 16 19 17 15 5 7 16 23 26 24 22 21 19 17 15 15 16 15 14 14 15 13 12 13 13 13 11 10 10 11 11 12 11 8 9 8 5 6 6 6 6 5 6 8 7 7
10 7 7 9 13 15 14 13 8 17 23 23 23 23 20 19 16 15 15 16 16 15 16 16 13 14 13 12 13 12 11 10 10 9 8 8 7 9 7 5 7 6 5 4 5 6 6 6 6
8 3 9 8 10 5 3 12 15 15 23 24 24 23 20 19 16 15 15 17 16 15 17 16 14 14 13 14 11 11 11 9 8 9 8 9 8 8 8 7 7 6 5 6 6 6 6 5 4
12 11 11 6 10 16 12 8 15 18 22 24 24 25 21 20 18 16 16 16 16 15 16 16 14 14 14 12 12 10 9 8 8 8 8 9 8 8 9 7 6 6 5 6 6 5 4 4 3
8 5 17 7 9 4 5 12 21 25 19 25 24 25 24 22 19 17 17 17 16 15 16 16 14 15 14 12 11 10 9 10 9 8 9 10 8 7 9 6 5 8 6 7 5 3 3 3 3
8 9 12 8 4 9 8 11 15 18 20 22 25 24 24 22 21 19 18 17 17 17 16 15 15 16 16 12 11 10 10 9 8 7 9 9 9 8 7 9 6 9 5 6 4 5 4 3 4
4 5 11 10 8 10 7 4 13 12 15 22 24 23 24 23 22 21 20 19 17 17 16 15 16 16 17 13 12 13 11 11 9 9 7 6 8 9 8 7 8 8 8 4 4 4 6 4 4
8 3 6 18 12 5 7 3 3 11 15 25 21 28 26 24 22 22 21 20 19 18 16 15 15 16 17 15 13 14 10 8 7 7 7 7 7 8 9 9 8 8 7 7 3 3 5 7 3
4 0 5 11 6 12 7 4 2 17 14 16 20 26 26 26 25 23 22 22 19 17 17 16 16 17 15 15 13 12 10 7 7 7 8 8 8 8 8 11 10 10 5 6 6 4 5 3 5
1 10 3 3 3 5 13 4 5 13 22 26 29 30 27 27 25 23 22 19 19 18 17 17 17 18 17 16 14 14 12 9 9 7 6 8 7 7 10 8 10 12 7 6 5 7 4 4 3
8 13 6 7 6 3 4 9 3 15 19 27 33 34 30 26 26 25 22 21 21 21 20 18 17 17 17 15 13 12 11 9 8 7 7 9 8 7 9 9 10 8 10 8 7 9 7 5 4
15 17 7 7 7 6 4 7 3 4 18 28 32 34 34 30 27 27 24 23 24 23 21 19 18 17 16 15 14 12 11 8 7 7 10 7 10 7 9 8 10 10 11 9 9 7 6 7 5
17 14 17 15 8 6 8 3 6 8 11 18 29 28 29 30 27 25 24 23 23 24 23 21 18 17 16 15 13 11 10 10 7 8 8 8 8 9 8 9 9 10 10 9 8 9 10 9 6
14 14 17 10 9 11 7 7 6 12 13 17 19 32 34 30 29 22 23 21 22 22 22 22 19 17 16 15 14 11 10 10 11 9 7 8 11 11 11 10 10 9 9 9 9 9 9 9 8
13 12 15 15 14 11 9 7 3 8 11 15 19 26 32 31 30 25 22 21 20 19 26 24 18 18 20 16 14 13 11 10 10 10 8 8 9 11 11 10 9 9 9 9 9 11 10 9 7
15 21 17 12 16 9 13 3 3 5 9 10 12 19 24 28 29 26 26 22 22 23 19 24 21 18 17 16 18 14 14 12 11 11 8 9 8 10 9 9 9 9 9 12 10 8 9 8 7

GFSSGP_850_spd_111.txt.gz
Wind_Speed
3 1 3 6 3 5 11 15 17 16 16 16 11 13 17 17 12 14 25 18 19 15 14 13 12 9 9 9 9 9 10 11 12 13 14 15 16 17 19 20 19 19 19 18 18 18 16 15 15
3 5 3 6 3 7 12 14 17 12 17 15 15 14 20 15 21 27 23 20 18 14 13 11 11 8 7 7 8 9 9 11 11 12 13 15 15 15 17 17 18 18 18 18 17 15 14 15 15
7 6 4 3 2 2 13 13 16 21 18 16 9 18 13 22 22 20 24 20 20 19 17 10 9 7 7 7 8 8 9 11 11 12 13 15 16 17 17 17 18 17 15 16 16 16 16 14 16
5 5 7 2 6 6 16 15 21 19 14 13 17 15 21 18 19 24 22 19 15 15 14 11 10 10 9 9 10 10 11 11 12 13 14 16 15 16 16 16 15 14 13 14 14 15 14 14 16
5 5 3 5 8 2 15 21 24 14 17 14 18 22 23 16 23 23 20 19 15 17 12 11 11 11 10 9 11 11 12 14 14 14 16 16 16 15 14 15 14 15 16 16 15 14 14 15 16
5 6 3 4 3 0 14 18 21 16 18 13 25 24 19 24 23 21 19 14 15 15 14 11 12 12 11 12 11 11 12 15 15 16 16 14 14 15 14 15 16 16 16 16 16 15 15 15 15
5 4 4 6 5 4 15 14 18 16 13 19 21 20 22 23 22 20 18 16 16 17 15 12 11 12 12 12 12 14 14 14 15 16 17 15 14 14 14 15 15 17 17 17 16 16 16 15 15
5 4 5 9 9 3 5 12 10 12 9 16 22 9 25 24 22 20 18 17 17 12 10 17 11 12 12 11 13 13 13 13 16 17 17 17 15 14 14 13 16 16 17 16 15 15 16 15 15
4 4 5 8 14 7 7 11 12 8 14 11 6 26 27 26 22 20 18 16 12 12 11 13 9 14 11 11 13 13 13 12 13 17 17 19 14 12 12 13 15 14 14 15 15 15 15 16 17
9 3 2 3 12 8 16 14 12 11 12 9 22 26 26 25 22 21 18 16 13 11 13 12 11 11 13 11 13 10 12 13 7 12 15 17 17 17 9 13 13 14 15 14 16 18 15 11 5
2 3 8 10 11 9 13 14 13 13 9 19 26 29 26 24 21 19 17 15 14 12 13 8 14 11 12 11 11 9 9 9 9 9 15 12 15 13 9 12 11 10 11 6 8 12 12 8 7
2 3 10 13 7 4 8 13 10 12 13 16 24 28 27 23 20 18 17 15 14 12 12 12 12 10 14 12 11 12 11 10 6 8 12 13 12 10 9 9 9 9 6 2 19 8 8 8 9
7 5 11 17 9 8 6 10 6 6 15 20 25 25 24 21 19 16 16 15 14 13 13 12 12 12 12 11 12 13 12 12 10 10 7 11 10 10 9 8 7 9 5 5 9 7 7 8 8
8 10 17 13 9 4 10 9 3 11 18 25 26 24 22 20 18 16 15 15 14 14 14 13 12 13 10 12 12 13 12 13 12 9 8 8 9 9 8 7 8 6 6 6 6 5 5 6 4
5 9 12 11 17 6 9 7 4 14 22 26 25 23 21 19 17 16 15 15 15 14 15 14 12 12 12 14 16 11 11 11 12 10 8 8 7 8 8 5 6 5 6 8 6 7 6 6 6
6 8 7 11 16 9 7 10 6 16 24 26 25 23 20 20 17 16 15 15 15 15 16 15 13 13 13 13 13 11 12 14 10 9 7 6 7 7 7 5 6 6 2 5 3 4 5 5 5
10 6 9 6 9 9 9 15 12 13 25 26 24 23 23 21 18 16 16 17 15 15 17 15 15 14 13 14 9 11 12 10 9 8 7 6 5 10 7 7 4 6 5 4 4 3 4 3 4
15 13 9 7 9 5 5 5 11 14 19 22 25 25 23 22 20 18 18 17 16 16 17 15 15 14 13 9 11 10 9 9 8 8 7 6 5 7 9 6 6 8 5 5 5 4 1 5 2
3 4 9 8 12 3 8 11 15 20 15 19 21 26 28 21 21 20 19 17 16 16 17 18 16 14 12 11 11 10 8 9 8 8 7 8 6 6 13 5 4 1 7 9 5 3 1 2 1
10 13 13 10 15 7 12 12 18 17 20 24 21 23 27 27 23 21 20 19 17 16 15 16 14 14 14 10 9 8 11 8 8 6 7 7 5 5 6 7 5 7 1 6 1 1 3 3 2
14 12 17 21 16 8 9 4 14 17 16 12 24 25 21 28 28 23 21 19 19 16 15 14 14 15 17 13 8 8 8 10 9 5 5 6 6 4 7 9 7 8 9 5 4 2 1 2 1
2 12 9 12 15 3 13 2 1 12 16 13 15 28 30 25 24 25 25 22 18 17 15 15 14 14 14 14 11 10 7 8 6 6 6 6 6 6 5 6 5 11 2 6 3 2 4 4 4
5 10 25 13 11 12 10 6 2 8 14 17 19 21 26 30 29 23 23 23 23 19 16 15 14 14 13 13 11 11 11 6 6 7 8 7 7 7 7 7 6 8 6 7 3 4 2 1 4
3 6 7 8 6 7 13 12 14 15 23 24 26 29 25 26 25 27 23 25 22 20 17 16 16 15 15 12 10 12 10 6 9 7 5 6 6 5 8 8 8 6 3 5 3 5 5 2 1
10 7 3 1 3 2 9 9 9 24 25 28 32 24 28 36 28 24 27 27 22 21 18 17 17 17 16 11 10 9 7 7 4 6 5 9 8 8 10 9 10 8 10 6 7 8 6 4 2
15 13 6 4 3 5 6 4 5 26 25 35 41 37 32 26 32 31 27 22 21 20 19 18 18 17 16 14 12 12 11 6 6 7 17 8 6 8 10 8 8 8 8 7 7 6 6 6 4
14 16 19 8 8 7 7 8 8 15 17 22 39 39 40 32 30 28 28 30 24 19 20 19 19 17 16 14 13 11 10 10 9 3 6 3 7 10 7 7 7 7 9 8 8 7 10 4 7
18 13 15 12 9 4 3 10 5 12 16 15 25 38 39 34 28 22 28 25 26 23 21 20 19 18 16 15 13 12 10 10 8 6 8 11 14 10 9 8 9 11 9 8 9 9 10 8 9
13 14 13 16 14 9 6 1 16 14 13 15 19 35 40 36 34 28 24 27 23 22 23 25 20 18 17 16 14 13 11 10 10 9 6 5 5 10 9 7 9 9 8 9 12 12 5 6 8
17 17 15 11 18 14 13 6 6 5 11 16 20 20 29 35 31 28 26 20 19 20 15 21 21 19 19 19 17 15 14 12 12 11 9 8 5 6 9 9 12 10 9 11 10 9 10 11 10

GFSSGP_850_spd_114.txt.gz
Wind_Speed
5 4 6 6 2 6 6 16 17 16 15 22 27 24 15 6 10 15 25 22 20 18 16 16 15 13 13 12 13 13 14 15 16 18 19 20 21 22 21 21 21 20 20 19 19 17 18 19 20
4 8 5 3 2 4 10 16 16 16 16 25 27 26 25 24 34 32 25 23 21 18 14 14 12 11 12 13 12 12 13 15 15 17 18 18 19 19 19 20 20 20 18 17 16 16 16 19 21
7 3 2 1 3 2 11 14 16 21 16 26 23 21 20 27 25 25 25 25 22 24 13 11 11 10 10 12 12 13 13 14 15 17 17 19 19 19 20 19 18 17 17 17 17 16 16 19 21
3 6 6 3 9 4 13 18 20 19 18 23 28 18 24 24 28 27 24 31 24 19 9 10 12 11 11 11 12 14 14 15 16 18 18 19 20 19 18 17 14 14 15 15 16 15 16 18 21
8 5 2 3 3 5 17 21 18 16 17 15 30 23 24 25 27 25 23 23 18 16 12 12 12 12 12 12 13 13 14 16 16 17 18 18 20 18 16 17 16 17 16 15 14 15 16 17 20
4 4 2 7 3 8 17 17 20 23 26 18 27 26 29 25 26 20 19 15 20 21 12 14 13 12 12 14 14 14 15 17 16 17 18 18 19 19 15 16 16 16 17 16 15 15 15 17 19
4 3 1 9 4 9 14 15 18 18 25 22 26 23 26 26 23 19 16 25 21 19 15 10 13 12 12 13 13 15 16 17 17 17 17 17 17 16 16 16 18 17 17 17 17 16 16 17 21
7 2 3 6 8 6 2 20 24 18 15 28 27 15 22 29 22 20 28 25 21 18 9 13 11 13 10 13 13 14 15 16 16 18 18 19 19 17 16 18 18 17 17 17 18 19 19 20 21
4 3 2 7 12 4 20 14 9 14 13 19 20 27 26 25 24 24 19 18 17 13 14 17 12 15 8 14 14 12 12 14 15 16 17 21 20 16 16 15 17 17 18 19 18 16 20 23 22
7 3 6 2 11 11 14 22 19 15 16 18 24 28 24 24 21 21 26 19 19 16 11 11 15 11 18 13 18 17 15 13 10 14 14 19 21 15 14 15 17 18 20 19 15 13 10 9 10
2 5 1 6 11 13 12 10 12 17 3 30 31 27 25 23 20 17 16 21 17 15 16 14 14 9 15 13 15 15 16 14 6 15 10 19 17 13 14 15 16 13 8 6 13 10 7 5 8
5 4 6 7 9 7 14 15 10 16 9 26 26 25 25 22 20 18 16 23 22 18 11 15 10 14 12 15 12 15 17 7 11 21 16 19 18 11 8 8 7 6 9 16 16 11 7 10 13
6 7 14 9 9 4 4 10 15 2 9 23 25 24 24 22 19 18 17 21 23 13 19 15 9 14 8 11 15 14 14 8 5 14 15 14 16 12 9 7 10 9 7 9 11 12 12 11 8
8 10 18 10 8 5 9 9 6 18 18 25 25 24 23 21 19 19 16 16 16 14 21 14 11 19 6 15 11 10 16 15 12 6 10 14 11 9 12 10 6 8 7 7 10 9 5 11 9
17 15 12 9 2 4 8 3 7 15 21 26 24 24 22 20 19 17 16 15 18 20 14 8 14 10 10 16 13 15 13 13 13 10 10 14 12 13 7 10 6 3 10 13 13 10 10 10 6
9 6 6 6 8 3 7 10 1 16 22 25 25 24 22 20 19 17 17 16 16 17 12 16 15 10 16 17 8 15 12 12 8 7 10 8 11 14 14 8 10 5 10 6 3 3 4 7 7
8 6 9 6 5 3 3 7 11 9 23 25 26 24 22 21 20 17 17 18 19 16 15 18 13 13 15 14 14 15 11 11 8 7 3 3 11 13 9 9 5 10 5 5 2 4 7 8 6
9 10 7 9 5 3 4 9 12 18 13 26 26 25 24 21 21 18 19 21 19 16 17 18 16 14 18 14 13 11 9 9 7 12 4 7 5 14 6 4 8 7 2 6 7 6 6 9 8
6 4 9 9 12 5 3 4 12 11 11 14 25 24 28 26 20 20 24 23 19 18 16 16 21 16 13 12 16 12 12 9 10 5 5 6 6 11 9 6 3 4 10 8 1 11 6 8 3
16 13 14 11 15 3 4 14 14 10 8 8 17 25 24 22 19 22 23 22 23 20 19 19 16 17 14 14 12 12 8 11 8 6 5 7 7 10 4 6 2 10 3 5 9 2 4 2 5
24 9 13 8 10 3 9 3 8 10 12 18 13 27 28 33 25 26 23 23 25 23 18 18 14 20 17 9 10 18 11 11 9 6 4 9 4 7 7 7 3 11 7 6 6 2 1 7 2
8 17 12 11 8 3 13 3 1 14 10 14 22 15 24 25 29 28 25 26 26 22 17 18 16 16 15 15 11 11 12 11 9 5 7 7 6 6 5 4 1 2 10 7 2 3 1 8 10
12 12 18 15 8 9 12 4 6 10 11 17 29 18 27 33 29 27 27 23 24 24 24 18 15 15 15 17 16 10 7 7 5 9 10 8 7 7 5 5 6 6 7 8 6 6 3 7 8
18 21 16 13 5 4 12 5 8 16 31 24 20 18 17 22 27 29 25 30 25 23 26 21 17 15 17 16 15 13 9 12 9 10 7 3 4 9 12 8 6 9 5 3 6 11 5 4 10
7 13 4 3 7 4 15 9 6 23 18 23 22 25 23 29 21 32 20 29 30 29 27 27 22 18 19 16 13 11 9 15 12 11 8 11 7 7 8 10 10 10 10 8 7 5 8 4 4
11 12 5 3 3 1 4 2 5 23 26 38 35 31 28 29 23 29 34 27 25 27 27 26 22 17 18 13 14 12 12 9 9 7 11 12 5 10 10 10 8 10 5 6 6 6 3 3 4
13 10 16 5 7 6 1 5 2 20 15 24 29 35 31 17 26 25 32 29 26 30 28 31 22 16 17 15 15 16 13 13 11 8 11 12 5 3 6 8 8 6 7 6 6 3 4 7 3
16 7 10 5 3 5 6 7 5 9 15 21 24 35 34 30 37 38 32 30 35 34 25 30 23 19 18 19 15 11 8 14 9 6 6 5 8 14 12 9 8 6 7 6 7 6 7 9 12
11 12 10 13 8 4 8 4 11 3 10 16 26 36 38 35 34 31 37 38 36 33 33 27 23 19 20 23 17 16 13 9 11 9 9 7 9 16 11 16 13 9 10 10 9 9 7 8 6
16 16 17 10 11 10 10 3 12 16 10 16 30 37 38 38 34 28 27 44 42 29 29 35 23 23 26 24 20 18 12 13 11 11 12 10 11 11 15 12 11 11 10 9 9 11 9 7 9

GFSSGP_850_spd_117.txt.gz
Wind_Speed
6 3 7 5 2 2 6 9 13 20 22 25 19 19 8 10 7 8 28 21 21 23 21 19 18 17 16 16 17 17 17 18 19 20 22 24 23 23 23 23 22 22 21 20 21 23 24 27 24
5 2 2 3 1 2 2 10 19 20 25 33 35 33 30 20 32 34 28 17 22 22 20 18 17 16 16 16 16 16 17 18 19 19 20 21 22 22 22 21 20 19 18 18 20 23 23 24 23
5 5 0 2 2 2 5 14 19 22 26 31 21 22 12 30 30 22 26 20 21 20 16 16 15 15 16 16 15 17 17 18 18 19 20 20 20 20 20 20 20 19 18 18 20 22 25 24 23
7 6 8 3 4 5 14 13 20 22 30 33 33 14 28 31 27 38 33 29 22 17 14 16 16 16 16 15 16 17 18 19 19 20 19 21 20 19 17 16 16 17 17 17 19 21 24 25 24
3 5 4 4 4 5 11 19 23 17 21 29 37 23 27 32 34 32 27 23 16 15 15 16 15 16 16 16 16 17 18 19 18 19 18 19 19 18 17 17 16 17 17 17 18 20 24 25 25
3 2 5 6 3 5 10 30 16 21 29 26 32 32 29 31 26 24 21 12 12 17 16 16 16 15 16 16 17 18 18 18 18 18 17 16 17 17 17 17 17 17 18 18 18 20 22 24 25
3 2 2 1 5 6 3 26 11 25 27 22 31 23 27 30 28 25 25 21 14 16 14 15 16 15 15 15 16 18 18 19 18 18 17 17 16 16 16 18 18 19 19 20 20 22 21 21 22
5 2 1 2 3 1 6 12 20 26 25 35 35 16 17 32 27 25 29 24 17 14 17 14 13 13 13 16 17 18 17 17 16 16 16 17 16 16 18 18 19 20 22 22 23 26 28 26 23
5 2 3 1 4 3 6 5 26 18 34 25 13 31 30 30 30 31 31 22 15 16 15 15 11 12 13 16 17 17 16 18 17 16 15 15 16 17 18 17 18 19 20 21 23 26 25 23 18
4 2 1 16 9 3 6 5 18 15 12 19 28 37 35 31 38 31 23 20 16 16 17 15 12 18 14 17 18 19 18 17 16 17 18 15 13 15 17 18 18 18 15 15 16 15 13 14 15
7 3 4 4 19 7 3 4 8 28 10 28 33 33 35 30 31 24 24 21 20 21 20 17 17 16 13 18 17 20 20 17 16 14 19 17 14 12 15 16 13 10 11 12 12 10 10 11 12
3 7 6 12 12 13 3 2 13 14 25 33 33 30 32 24 27 31 30 22 23 21 22 16 14 14 11 14 18 18 18 13 19 21 18 17 17 15 11 7 7 11 15 12 14 13 18 14 5
6 8 7 11 7 14 17 13 9 6 38 32 32 29 24 19 22 33 25 22 23 24 22 15 14 12 9 14 14 16 18 26 20 15 20 15 12 10 7 7 6 12 10 13 16 14 15 11 7
9 9 13 9 8 16 14 9 18 12 29 25 28 28 23 20 23 30 27 23 25 24 21 17 17 12 17 14 12 16 16 17 20 18 17 17 14 14 9 7 9 13 9 10 12 14 12 8 10
19 13 9 5 5 8 21 12 4 15 29 29 26 24 26 20 34 31 27 24 25 20 16 17 21 15 19 14 12 19 16 12 15 15 15 13 13 13 13 4 8 7 9 7 5 2 4 7 11
6 7 5 4 3 4 4 5 4 22 29 27 28 25 25 26 25 23 17 24 23 23 14 17 24 17 19 20 18 16 16 11 7 11 11 12 15 11 7 10 9 6 4 2 3 2 6 7 5
3 3 10 1 9 5 5 2 7 9 25 25 27 24 25 25 24 21 21 28 26 18 17 22 14 21 23 19 19 16 13 13 12 9 6 15 17 13 13 10 5 7 1 3 5 7 10 10 4
14 6 6 6 4 3 2 8 15 13 10 21 27 25 25 26 25 24 27 25 20 19 19 20 15 18 18 20 21 16 17 14 10 9 6 17 15 9 16 7 7 9 5 5 6 6 6 7 9
4 11 14 9 6 2 6 2 13 17 15 13 8 27 31 28 24 25 30 25 18 24 24 21 17 15 19 22 17 15 14 13 11 10 8 7 15 10 7 8 10 8 7 10 6 5 6 9 4
10 15 7 7 13 1 4 5 9 18 7 7 8 15 32 28 28 30 31 23 22 25 23 16 18 19 16 18 17 17 13 10 7 8 6 9 14 7 6 7 7 17 9 13 9 5 7 2 3
3 2 9 9 11 4 5 4 6 5 8 13 7 9 32 35 30 35 29 24 27 25 23 20 18 16 17 15 15 15 14 12 13 8 7 9 8 11 3 5 7 11 10 7 7 3 3 5 4
5 12 9 20 8 1 5 2 4 6 8 7 15 19 26 30 32 35 31 31 26 27 25 21 18 21 19 16 17 17 15 12 9 6 6 7 7 7 3 5 2 5 8 7 5 2 1 1 2
7 13 11 14 9 4 7 2 4 4 9 13 19 19 8 33 33 28 34 31 26 25 25 19 19 23 18 15 14 15 18 12 11 9 8 7 7 7 5 4 4 6 10 8 8 1 3 2 3
24 17 5 5 1 1 8 6 4 12 27 23 30 21 10 21 33 27 26 31 29 24 23 19 18 18 20 16 13 15 16 17 13 11 9 6 6 10 10 6 5 10 10 11 5 3 5 3 8
15 6 1 1 2 1 9 8 7 23 21 29 26 27 19 24 30 34 27 32 29 28 25 22 20 23 24 21 17 16 16 15 14 14 11 12 10 12 10 11 7 6 9 8 8 6 5 3 0
14 9 6 3 1 2 3 2 5 10 26 30 31 30 26 30 30 32 33 28 27 32 30 25 22 21 22 21 20 16 15 14 13 11 10 11 12 10 13 9 6 6 9 8 7 6 8 6 4
4 6 8 7 2 3 1 2 11 14 13 27 31 30 35 33 35 26 31 29 31 36 27 28 24 20 18 20 18 17 17 14 14 13 12 12 12 16 16 13 7 8 8 5 8 5 9 7 4
3 5 2 3 5 3 5 7 5 9 7 15 27 30 30 21 30 33 34 30 37 33 32 28 28 22 18 20 18 17 14 16 14 11 12 18 14 11 13 11 7 7 11 10 9 7 8 8 7
3 4 4 4 5 4 4 4 12 18 16 10 17 31 35 29 31 36 39 32 38 32 33 31 33 24 20 20 17 15 15 17 17 12 12 16 14 13 12 13 9 10 8 10 10 10 10 8 8
7 5 6 3 8 2 4 4 12 17 17 23 18 28 35 38 39 37 30 39 37 38 32 30 36 24 18 21 17 14 12 12 14 13 11 13 11 9 15 13 12 12 9 11 11 9 8 8 6

GFSSGP_850_spd_120.txt.gz
Wind_Speed
3 3 9 6 3 2 6 7 13 15 12 10 27 7 9 7 4 5 26 21 24 24 22 20 18 17 17 17 17 18 18 19 19 21 24 22 22 23 22 21 20 19 20 19 20 21 21 21 21
2 4 6 3 3 7 3 13 15 11 17 26 22 20 14 5 19 25 29 26 23 23 21 19 17 17 17 17 16 17 18 19 22 21 21 20 21 21 21 20 18 18 19 19 21 20 21 23 21
4 2 2 3 3 1 6 16 20 24 27 23 10 17 6 9 33 34 26 28 22 21 19 18 16 17 16 17 18 18 18 20 20 21 20 19 20 20 20 18 18 19 19 19 19 19 19 21 22
4 5 7 2 2 3 8 11 26 22 22 26 23 13 16 21 21 28 29 26 21 19 17 17 17 16 17 17 17 17 19 19 20 20 20 19 18 17 18 17 17 17 19 18 18 18 20 18 18
13 8 3 3 2 8 9 24 25 15 12 24 27 13 8 20 29 28 28 26 19 19 17 17 16 16 16 18 17 18 19 20 20 19 19 18 16 15 15 15 16 17 18 18 18 19 18 16 15
5 5 1 2 2 6 6 15 22 19 23 29 27 21 11 32 27 29 25 20 17 18 19 18 17 17 17 18 18 18 19 19 20 19 19 17 16 16 16 17 17 18 18 18 18 19 19 17 15
6 3 4 4 5 2 5 22 5 23 27 14 30 14 23 34 29 26 20 18 18 17 16 16 17 18 17 18 18 18 19 19 19 18 18 17 15 16 18 18 19 18 19 19 19 20 19 15 11
6 6 3 4 4 4 6 3 18 25 10 31 41 10 19 33 26 23 22 20 20 18 15 16 16 16 17 18 18 18 17 17 18 18 18 16 16 18 19 18 18 20 21 21 20 20 18 14 11
8 3 1 1 4 3 8 10 17 21 35 25 6 31 35 36 29 24 22 21 20 19 17 16 16 16 16 18 18 18 17 18 17 17 17 17 20 17 18 18 21 22 22 24 23 22 19 14 11
4 2 8 10 12 1 4 5 26 22 25 17 29 30 40 36 32 24 24 21 20 19 18 13 16 18 18 18 19 17 17 17 18 17 18 19 19 18 18 20 19 19 18 18 18 18 15 14 11
6 3 5 25 18 7 2 9 12 21 4 32 31 41 44 40 30 29 23 18 21 17 20 18 19 17 16 18 19 18 17 18 19 19 17 16 20 21 17 14 11 10 11 11 9 10 11 11 11
4 1 4 9 20 9 2 5 10 2 16 31 34 41 41 36 34 32 23 24 25 22 21 19 19 19 14 16 16 14 16 17 18 18 16 16 19 17 12 11 10 9 8 11 17 13 9 6 6
4 7 7 7 10 9 14 11 3 7 17 37 35 39 39 37 32 27 24 24 22 22 19 19 16 15 14 17 17 10 12 19 20 20 20 18 16 11 7 6 13 13 12 10 11 11 9 9 7
7 15 12 12 12 8 10 3 11 15 28 33 40 35 37 37 32 28 28 25 22 23 21 20 15 12 16 14 13 16 22 20 18 20 16 13 12 11 10 12 12 10 12 9 4 4 3 6 6
17 6 10 12 11 6 25 7 8 13 31 23 34 29 30 36 32 33 32 26 23 23 22 20 14 14 18 13 17 21 16 19 17 18 16 14 12 8 10 11 10 9 6 8 7 3 1 9 5
2 2 4 6 4 0 3 5 1 22 32 25 31 24 24 31 35 34 31 27 25 21 22 20 15 19 17 16 16 18 19 15 16 15 14 14 13 8 6 6 9 9 7 2 1 0 7 9 11
5 2 4 3 9 3 6 5 5 9 22 26 31 27 25 35 33 34 30 28 27 19 23 23 21 20 20 21 14 14 15 14 11 9 10 10 11 10 10 9 6 4 1 5 7 10 5 6 6
4 2 3 6 3 6 5 7 4 13 14 11 27 23 35 37 34 36 31 29 24 22 21 19 21 21 21 19 19 18 15 13 10 8 6 14 13 9 10 9 4 3 4 5 7 7 5 6 4
4 6 6 8 9 7 3 8 9 9 5 6 5 23 32 38 37 35 32 30 27 27 23 17 20 26 22 20 19 19 19 16 13 10 8 17 13 8 7 7 6 8 8 6 7 8 10 12 4
6 7 6 5 9 2 5 8 10 12 4 6 2 10 39 32 35 37 35 32 28 27 25 18 19 19 20 23 19 18 16 14 13 11 10 17 14 9 8 7 10 8 8 6 6 7 8 6 4
1 9 9 7 8 1 5 4 4 6 8 7 3 6 25 39 40 41 38 33 26 28 27 19 18 22 23 20 18 17 16 16 14 12 13 13 15 9 6 6 10 14 7 8 5 6 6 7 6
3 6 14 11 8 3 4 2 5 8 5 5 7 6 18 29 40 41 37 32 26 26 28 20 20 23 19 21 19 18 19 16 13 10 13 13 12 12 6 7 8 14 12 8 6 5 5 4 2
6 10 11 7 2 1 3 0 3 5 8 7 13 13 16 17 40 42 37 31 26 27 29 24 24 21 22 20 18 17 16 13 13 11 11 13 11 9 6 6 7 9 11 8 7 5 4 3 6
18 13 11 6 2 0 2 3 4 5 6 11 15 18 17 18 30 41 36 31 27 26 28 26 26 20 25 20 19 20 19 15 13 13 14 10 9 12 10 6 7 8 11 10 10 5 3 4 8
15 6 3 1 1 2 4 5 8 4 9 16 20 24 22 17 26 29 36 35 33 30 28 26 25 20 27 22 20 18 20 18 14 14 13 11 13 15 13 9 8 11 11 12 10 7 4 2 4
8 7 6 6 4 3 4 4 6 12 20 25 25 28 24 18 23 19 31 38 37 31 28 27 27 24 25 23 21 18 17 18 14 16 13 11 11 12 13 11 6 7 13 11 11 9 8 8 5
5 5 5 7 3 2 3 6 8 7 5 6 21 27 28 21 28 28 26 37 38 34 30 28 27 23 24 24 22 19 18 18 20 18 15 13 13 12 13 12 9 8 11 13 10 10 11 9 7
9 7 4 2 5 2 2 5 5 5 9 12 18 26 29 32 25 32 28 38 39 36 30 30 26 21 21 25 24 22 20 19 18 17 15 14 12 11 16 13 13 12 12 11 11 11 13 15 10
2 2 5 5 5 5 3 6 8 12 9 12 20 28 32 29 33 33 32 40 34 32 33 32 29 26 22 23 25 22 21 22 19 16 14 14 15 11 10 10 12 12 15 14 13 11 12 12 10
4 3 4 5 4 1 4 6 3 9 7 15 23 33 33 38 35 35 40 35 37 32 34 36 30 30 24 22 24 22 20 20 20 17 14 12 14 12 13 12 15 13 13 13 15 12 10 11 8

GFSSGP_850_spd_123.txt.gz
Wind_Speed
4 3 8 4 2 3 1 1 5 9 7 11 25 4 5 8 2 4 22 18 22 19 19 17 15 15 16 16 16 17 16 17 17 19 20 20 20 20 18 17 16 16 15 15 16 17 18 18 18
2 4 3 2 3 5 3 4 14 5 11 27 12 14 10 4 10 25 25 22 21 20 18 17 15 15 15 15 16 17 16 18 20 19 19 18 18 17 17 16 15 14 16 17 18 18 15 15 15
1 3 1 2 1 3 3 3 11 15 21 11 6 13 5 3 20 30 25 25 22 19 18 16 15 14 15 15 15 16 18 20 18 19 19 18 16 16 14 14 14 15 16 16 17 18 17 16 16
2 2 5 4 4 4 4 9 16 14 15 8 18 9 12 18 22 22 27 24 21 18 17 16 15 14 14 14 14 16 16 18 17 18 18 18 17 16 14 15 14 14 15 14 15 16 17 15 16
7 7 4 3 3 3 7 7 15 8 6 16 13 7 7 14 14 26 26 22 18 17 16 14 15 14 16 16 15 16 16 17 17 17 16 15 14 14 14 14 15 14 14 16 16 13 14 15 14
6 4 3 2 3 3 5 11 10 14 15 17 16 12 4 17 23 27 23 20 16 15 15 15 15 14 16 15 16 17 17 18 16 17 15 14 14 14 13 14 16 15 14 16 15 13 14 14 15
5 2 1 1 5 3 3 14 15 11 14 10 18 5 15 28 23 25 20 18 17 16 16 16 16 16 17 16 16 19 17 16 16 15 15 14 14 14 14 15 16 16 16 18 16 15 12 11 12
2 3 1 3 5 3 4 1 17 20 5 18 26 5 13 29 24 24 17 17 16 16 15 16 16 17 17 17 17 18 18 17 16 15 15 15 16 16 16 16 16 16 16 18 17 13 10 9 10
5 3 3 2 2 1 3 6 14 9 20 14 3 26 31 30 27 23 21 21 19 17 15 15 15 16 17 17 17 18 17 16 16 16 16 19 18 16 17 17 18 17 15 16 16 14 10 8 7
5 3 7 6 3 2 4 3 15 12 17 17 23 26 33 31 31 27 25 23 20 19 18 14 15 16 18 18 18 16 16 14 15 16 19 19 17 17 18 20 20 19 17 17 16 12 9 6 3
6 2 6 15 12 12 5 6 16 24 8 26 30 34 33 30 23 24 20 16 18 18 17 16 16 16 17 17 17 16 17 17 17 18 19 18 18 19 19 16 17 16 14 13 11 9 7 5 3
4 2 11 11 16 10 7 4 10 9 7 31 33 38 35 30 27 24 20 18 20 17 16 18 16 15 15 15 15 16 15 17 18 17 17 18 19 18 14 10 12 10 9 12 11 9 7 5 4
5 3 7 4 16 10 11 9 3 6 12 27 35 38 34 32 27 21 17 20 21 20 18 18 17 14 13 15 16 14 17 17 15 15 17 17 15 12 11 7 9 10 11 10 8 10 8 6 6
4 11 10 14 9 9 9 6 6 8 15 31 37 36 34 32 27 23 22 22 21 20 19 17 15 12 12 13 11 11 18 16 17 18 17 14 12 8 11 10 9 6 7 5 6 8 6 7 6
13 8 9 12 4 4 15 5 5 10 13 34 35 33 34 31 30 26 22 19 22 19 17 15 13 11 10 10 11 18 19 20 17 16 12 11 11 9 11 11 8 9 6 5 5 3 2 6 6
3 4 3 6 10 1 7 4 10 18 20 29 33 30 33 32 31 27 23 23 25 22 19 13 10 12 13 15 13 16 17 17 16 15 13 10 9 8 7 7 8 7 5 3 3 3 6 7 6
6 3 6 2 7 7 5 2 3 9 25 29 30 29 36 29 31 28 24 27 27 21 20 16 12 16 15 15 16 16 15 15 14 12 12 10 11 8 5 9 8 6 5 6 6 6 7 8 6
4 4 6 3 3 8 7 5 2 7 8 20 18 30 33 33 37 31 27 27 26 21 22 19 16 15 18 17 16 16 16 15 12 11 11 9 7 6 5 7 3 2 2 2 4 5 6 5 4
6 6 9 4 1 4 5 3 6 6 12 9 1 22 35 38 39 33 30 29 27 23 23 22 20 19 20 16 16 17 16 14 11 6 8 11 11 9 8 6 4 3 1 3 4 4 10 5 1
7 10 5 3 9 1 6 7 6 6 6 7 6 17 32 33 35 37 35 32 29 25 22 22 25 21 18 17 16 15 15 13 10 7 10 12 12 4 6 7 7 5 5 4 5 6 9 3 4
2 5 7 5 7 1 2 4 5 6 14 16 13 11 28 41 42 40 39 36 32 29 25 21 20 25 22 18 18 16 14 13 13 13 9 12 11 6 6 5 7 8 7 8 5 5 5 4 5
3 3 12 15 13 3 3 3 5 6 7 8 15 9 28 32 43 43 43 40 35 30 27 22 21 21 20 21 17 16 16 14 12 12 11 10 14 9 6 5 6 10 8 9 8 5 4 4 5
4 7 5 4 5 1 4 1 3 7 7 11 14 16 25 38 39 46 44 41 33 31 30 23 22 23 23 22 20 17 15 13 11 11 13 12 12 12 11 7 8 10 11 10 9 4 3 2 2
15 8 7 4 4 2 4 5 3 4 7 12 15 17 18 38 40 45 43 39 33 32 30 25 26 22 22 22 21 19 16 14 14 14 13 14 11 11 10 7 9 11 12 10 11 6 3 5 5
5 3 3 4 1 5 6 6 8 11 11 12 14 19 22 30 40 39 41 40 35 33 33 28 29 24 23 23 22 21 19 18 15 15 13 14 13 13 11 10 7 9 12 10 10 10 7 3 6
10 6 5 6 4 2 1 5 6 4 21 28 28 32 28 24 35 44 44 40 37 33 33 31 30 29 25 26 23 20 19 20 18 14 14 14 13 13 12 11 8 8 12 12 12 10 11 9 6
6 4 4 6 2 2 3 6 8 11 14 16 27 33 37 29 36 42 45 41 38 36 31 32 29 28 26 28 26 22 19 19 19 15 16 14 12 13 14 12 11 10 11 13 12 13 11 11 10
6 8 3 2 4 4 4 5 6 3 6 7 15 32 38 38 27 32 40 43 38 36 32 31 28 24 23 26 26 23 20 18 18 19 18 16 14 15 15 14 15 13 12 14 14 12 12 13 10
2 2 5 4 4 4 2 5 5 4 10 15 18 28 36 43 33 27 34 38 39 39 36 33 30 27 24 24 25 24 22 20 20 18 16 16 16 13 10 14 14 14 14 15 14 11 11 12 14
4 2 3 5 3 1 2 4 13 2 9 15 20 25 35 40 43 29 34 31 31 39 40 36 33 31 26 23 23 24 22 22 22 20 18 16 15 15 15 14 14 14 12 14 15 12 12 13 14